Date StartTime U_cm/s V_cm/s W_cm/s Ustd_cm/s Vstd_cm/s Wstd_cm/s Uvar_(cm/s)^2 Vvar_(cm/s)^2 Wvar_(cm/s)^2 KE_(m/s)^2 TurbulentKE_(m/s)^2 HorizWindSpeed_cm/s FrictionSpeec_cm/s DragCoef SpeedOfSound_m/s SonicTemperature_C Pressure_mb 
12/04/2014  00:00:00       33.095      109.791        3.943       35.288       31.114       52.476     1245.211      968.066     2753.694        0.906        0.248      114.671       32.743        0.082      337.022        8.715      856.182
12/04/2014  00:01:00      -92.918       62.510      -25.746       39.533       63.117       22.513     1562.851     3983.782      506.820        0.963        0.303      111.988       25.379        0.051      337.006        8.688      856.056
12/04/2014  00:02:00     -157.062      -46.573       -4.704       42.188       32.964       25.480     1779.853     1086.610      649.233        1.519        0.176      163.821       19.042        0.014      336.857        8.439      856.095
12/04/2014  00:03:00     -154.464      -35.960      -16.969       33.073       27.907       19.870     1093.813      778.811      394.809        1.385        0.113      158.594       19.142        0.015      336.910        8.529      856.215
12/04/2014  00:04:00     -195.149     -122.304      -12.752       84.756       56.933       29.565     7183.606     3241.421      874.116        3.225        0.565      230.307       32.210        0.020      336.924        8.549      856.304
12/04/2014  00:05:00     -186.601      -53.250       -1.109       77.580       70.589       39.997     6018.706     4982.739     1599.799        2.513        0.630      194.051       40.456        0.043      336.741        8.244      856.317
12/04/2014  00:06:00     -147.129       -4.543      -10.419       66.002       49.468       37.314     4356.254     2447.062     1392.363        1.498        0.410      147.199       38.322        0.068      336.941        8.579      856.306
12/04/2014  00:07:00     -199.045       -0.104      -27.859       38.199       37.930       19.837     1459.165     1438.676      393.522        2.184        0.165      199.045       16.511        0.007      337.323        9.218      856.326
12/04/2014  00:08:00      -91.402      -17.713      -12.928       30.018       38.920       21.301      901.086     1514.760      453.738        0.585        0.143       93.102        9.801        0.011      337.253        9.101      856.356
12/04/2014  00:09:00      -67.710       31.565       -4.943       28.934       18.131       25.947      837.175      328.718      673.227        0.372        0.092       74.706       13.756        0.034      337.394        9.337      856.343
12/04/2014  00:10:00       13.175       34.674      -10.166       16.062       28.726       18.225      257.980      825.155      332.162        0.145        0.071       37.093       16.165        0.190      337.215        9.038      856.325
12/04/2014  00:11:00      -56.218      -27.466       -8.164       37.389       22.669       13.652     1397.961      513.886      186.386        0.304        0.105       62.568        8.912        0.020      337.264        9.120      856.342
12/04/2014  00:12:00      -18.904      -22.816        5.655       33.816       21.446       20.509     1143.521      459.941      420.607        0.147        0.101       29.630       19.630        0.439      337.250        9.096      856.364
12/04/2014  00:13:00     -141.280      -10.768      -16.155       53.833       17.159       11.941     2897.972      294.425      142.577        1.184        0.167      141.690       17.811        0.016      337.067        8.791      856.355
12/04/2014  00:14:00     -217.014     -106.279       -0.622       76.276       56.618       37.679     5818.071     3205.560     1419.675        3.441        0.522      241.641       30.794        0.016      336.788        8.321      856.405
12/04/2014  00:15:00     -173.808      -80.137       -1.222       79.078       40.368       30.492     6253.297     1629.579      929.790        2.272        0.441      191.392       35.919        0.035      336.922        8.545      856.493
12/04/2014  00:16:00      -80.962      -51.208        6.590       48.176       39.387       26.541     2320.955     1551.345      704.406        0.690        0.229       95.797       23.397        0.060      336.920        8.544      856.510
12/04/2014  00:17:00      -15.119      -16.755       15.278       47.614       56.875       35.973     2267.136     3234.764     1294.035        0.377        0.340       22.568       35.908        2.532      337.050        8.761      856.430
12/04/2014  00:18:00      154.833      128.765       89.798       62.750       47.487       46.578     3937.554     2255.043     2169.504        2.849        0.418      201.379       37.708        0.035      336.907        8.520      856.348
12/04/2014  00:19:00       72.554       62.968       59.304       68.170       47.950       45.721     4647.188     2299.242     2090.444        1.089        0.452       96.068       40.718        0.180      336.805        8.353      856.339
12/04/2014  00:20:00       17.968       83.220      111.762       43.700       64.282       36.968     1909.657     4132.135     1366.608        1.357        0.370       85.137       28.973        0.116      336.825        8.385      856.352
12/04/2014  00:21:00      105.883     -161.746       -6.116       66.371       74.383       41.321     4405.153     5532.803     1707.409        2.453        0.582      193.321       41.662        0.046      337.118        8.873      856.342
12/04/2014  00:22:00       63.331      -45.957       17.532       77.861       69.392       45.013     6062.346     4815.256     2026.141        0.966        0.645       78.249       39.472        0.254      337.247        9.093      856.381
12/04/2014  00:23:00       89.279       22.675       19.948       43.627       33.739       31.483     1903.311     1138.297      991.198        0.646        0.202       92.113       25.842        0.079      337.565        9.625      856.447
12/04/2014  00:24:00       21.184      -20.721       -1.481       18.870       29.128       15.607      356.075      848.418      243.575        0.116        0.072       29.633        8.360        0.080      337.795       10.011      856.487
12/04/2014  00:25:00       13.257       -1.176       -5.047        7.736       10.305       14.619       59.840      106.198      213.728        0.029        0.019       13.309        5.113        0.148      337.982       10.325      856.526
12/04/2014  00:26:00       20.872       26.230        6.864        9.651       10.941        7.968       93.144      119.707       63.483        0.072        0.014       33.521        5.471        0.027      337.912       10.206      856.502
12/04/2014  00:27:00       69.265       59.804        1.268       21.888       19.956       14.314      479.082      398.257      204.879        0.473        0.054       91.511        7.230        0.006      337.761        9.952      856.412
12/04/2014  00:28:00       90.473       45.693        9.383       36.390       32.027       19.324     1324.230     1025.738      373.411        0.654        0.136      101.357        7.744        0.006      337.661        9.785      856.360
12/04/2014  00:29:00       38.952       42.109        2.510       44.100       40.310       22.975     1944.821     1624.893      527.829        0.370        0.205       57.362       23.626        0.170      337.393        9.336      856.342
12/04/2014  00:30:00      -20.936       99.177      -17.833       19.349       33.706       15.513      374.367     1136.070      240.657        0.617        0.088      101.363       18.458        0.033      337.597        9.677      856.346
12/04/2014  00:31:00      -66.894       -1.687      -13.777       22.209       17.336       15.091      493.239      300.535      227.728        0.284        0.051       66.915        7.729        0.013      337.203        9.017      856.370
12/04/2014  00:32:00     -149.541        2.987      -18.115       58.631       52.750       24.449     3437.640     2782.587      597.774        1.476        0.341      149.571       20.363        0.019      336.917        8.538      856.369
12/04/2014  00:33:00     -173.243       29.269      -15.204       32.863       34.913       19.674     1079.962     1218.943      387.050        1.689        0.134      175.698       11.920        0.005      336.944        8.585      856.357
12/04/2014  00:34:00     -154.275       20.853      -17.664       53.012       41.903       26.057     2810.226     1755.822      678.981        1.490        0.262      155.678       15.753        0.010      336.989        8.659      856.362
12/04/2014  00:35:00     -101.662       21.799      -12.242       34.089       39.742       23.005     1162.074     1579.461      529.211        0.711        0.164      103.973       16.933        0.027      336.989        8.661      856.345
12/04/2014  00:36:00      -94.041       47.290      -23.826       29.434       49.057       29.689      866.337     2406.586      881.429        0.790        0.208      105.262       23.919        0.052      337.207        9.025      856.312
12/04/2014  00:37:00      -74.565       64.803      -20.795       72.730       55.965       31.897     5289.658     3132.132     1017.415        0.981        0.472       98.789       33.871        0.118      337.387        9.326      856.288
12/04/2014  00:38:00      -53.734      100.015      -16.086       39.268       42.667       25.275     1542.008     1820.437      638.800        0.857        0.200      113.536       28.164        0.062      337.528        9.562      856.264
12/04/2014  00:39:00      -39.904       83.646      -14.754       24.913       40.394       14.703      620.644     1631.664      216.185        0.564        0.123       92.677       15.687        0.029      337.572        9.636      856.260
12/04/2014  00:40:00      -10.550      121.239      -13.581       18.514       24.648       13.244      342.768      607.521      175.395        0.806        0.056      121.697        5.905        0.002      337.765        9.960      856.254
12/04/2014  00:41:00      -16.361      118.631      -17.354       17.214       12.221        8.478      296.315      149.360       71.872        0.758        0.026      119.754        5.602        0.002      338.059       10.454      856.244
12/04/2014  00:42:00      -16.426      112.934      -18.271       10.981       13.461        9.464      120.590      181.202       89.560        0.687        0.020      114.122        5.421        0.002      338.053       10.444      856.211
12/04/2014  00:43:00      -19.281       99.297      -15.226       17.109       19.693       12.556      292.720      387.806      157.665        0.565        0.042      101.152       10.829        0.011      337.944       10.259      856.193
12/04/2014  00:44:00      -65.047       86.662      -21.457       31.147       36.834       16.566      970.136     1356.741      274.444        0.740        0.130      108.357       12.792        0.014      337.959       10.286      856.209
12/04/2014  00:45:00      -62.079       30.373       -8.693       13.535       21.418       12.722      183.187      458.736      161.858        0.283        0.040       69.111        7.326        0.011      337.606        9.694      856.198
12/04/2014  00:46:00     -116.364        5.751      -12.654       60.304       29.949       20.791     3636.611      896.924      432.262        0.935        0.248      116.506       27.607        0.056      337.276        9.140      856.185
12/04/2014  00:47:00     -193.453       20.595      -16.859       49.728       41.893       26.321     2472.840     1755.042      692.815        2.153        0.246      194.547       23.986        0.015      337.200        9.012      856.266
12/04/2014  00:48:00     -161.804       11.905      -19.463       39.108       27.751       20.016     1529.415      770.123      400.644        1.470        0.135      162.241       19.071        0.014      337.258        9.110      856.360
12/04/2014  00:49:00      -49.570      -40.613       -0.245       36.936       32.413       19.128     1364.284     1050.584      365.894        0.344        0.139       64.083       13.767        0.046      337.194        9.003      856.389
12/04/2014  00:50:00      -89.197      -77.587        4.165       54.032       44.135       30.782     2919.424     1947.859      947.521        0.990        0.291      118.219       32.222        0.074      337.181        8.980      856.436
12/04/2014  00:51:00      -74.943      -79.866        2.360       43.783       42.046       29.828     1916.922     1767.873      889.707        0.829        0.229      109.521       28.798        0.069      337.169        8.961      856.477
12/04/2014  00:52:00      -98.295      -94.483        3.112       46.601       33.711       29.203     2171.646     1136.435      852.819        1.138        0.208      136.342       20.679        0.023      337.158        8.944      856.504
12/04/2014  00:53:00      -45.476      -38.260       -1.370       48.122       26.705       19.926     2315.754      713.171      397.055        0.348        0.171       59.429       14.706        0.061      337.023        8.717      856.538
12/04/2014  00:54:00      -84.609      -42.552       -2.431       23.167       35.110       18.409      536.688     1232.694      338.894        0.554        0.105       94.706       14.747        0.024      336.982        8.648      856.564
12/04/2014  00:55:00      -15.668        8.559        5.351       45.167       23.321       20.269     2040.095      543.878      410.830        0.167        0.150       17.853       24.733        1.919      336.935        8.571      856.560
12/04/2014  00:56:00       65.759       93.227       63.274       37.553       24.835       36.452     1410.261      616.762     1328.755        1.019        0.168      114.085       30.320        0.071      337.030        8.729      856.547
12/04/2014  00:57:00       84.052      100.421       65.349       50.762       31.075       43.740     2576.829      965.649     1913.165        1.344        0.273      130.954       35.540        0.074      337.022        8.715      856.491
12/04/2014  00:58:00       19.097       68.538       74.744       40.746       38.154       40.152     1660.200     1455.726     1612.198        0.769        0.236       71.149       35.016        0.242      337.058        8.774      856.483
12/04/2014  00:59:00        5.366       -2.488        6.922       25.733       16.715       16.625      662.172      279.398      276.406        0.065        0.061        5.915        8.574        2.101      336.972        8.631      856.516
12/04/2014  01:00:00       36.956       23.618        9.272       33.599       26.602       18.182     1128.924      707.656      330.568        0.209        0.108       43.859        8.205        0.035      336.948        8.591      856.530
12/04/2014  01:01:00      117.431       51.669       24.443       49.824       30.715       31.060     2482.427      943.426      964.704        1.072        0.220      128.295       22.739        0.031      336.973        8.634      856.525
12/04/2014  01:02:00      122.899       32.813       45.796       82.562       50.498       50.320     6816.497     2550.030     2532.145        1.509        0.595      127.204       36.268        0.081      337.482        9.484      856.542
12/04/2014  01:03:00      154.213       25.611        8.637       78.402       41.435       42.799     6146.889     1716.830     1831.766        1.710        0.485      156.325       37.223        0.057      337.654        9.773      856.589
12/04/2014  01:04:00       99.090       42.362       39.183       69.459       51.872       42.035     4824.533     2690.679     1766.908        1.121        0.464      107.765       42.506        0.156      337.431        9.399      856.594
12/04/2014  01:05:00       91.643       57.821       56.538       38.931       36.064       30.491     1515.606     1300.626      929.698        0.934        0.187      108.359       23.987        0.049      337.489        9.498      856.568
12/04/2014  01:06:00      117.106       80.061       45.879       48.971       28.586       35.876     2398.147      817.182     1287.104        1.336        0.225      141.858       31.982        0.051      337.358        9.276      856.555
12/04/2014  01:07:00       60.345      -37.925       22.294       48.326       59.488       38.301     2335.382     3538.871     1466.972        0.646        0.367       71.273       34.848        0.239      337.301        9.183      856.573
12/04/2014  01:08:00       99.369      -84.180        7.569       40.504       40.941       33.214     1640.553     1676.125     1103.190        1.072        0.221      130.233       33.986        0.068      337.446        9.426      856.609
12/04/2014  01:09:00       68.156      -58.966        6.188       44.126       34.155       18.736     1947.143     1166.577      351.043        0.581        0.173       90.123       22.758        0.064      337.717        9.878      856.637
12/04/2014  01:10:00        9.990       17.993       24.868       14.623       14.837       14.340      213.837      220.150      205.643        0.084        0.032       20.580        8.886        0.186      337.583        9.656      856.628
12/04/2014  01:11:00      -13.722       13.586        2.763        8.564       11.297        7.411       73.339      127.624       54.924        0.032        0.013       19.309        4.088        0.045      337.964       10.293      856.597
12/04/2014  01:12:00      -97.019       15.251      -13.515       20.656        8.532        6.284      426.677       72.794       39.490        0.518        0.027       98.210        7.098        0.005      337.604        9.689      856.552
12/04/2014  01:13:00      -98.689        0.077      -12.150       26.741       18.931       15.532      715.091      358.376      241.256        0.560        0.066       98.689       16.031        0.026      337.258        9.110      856.527
12/04/2014  01:14:00      -90.870       -3.687      -10.818       42.413       32.964       26.602     1798.899     1086.608      707.686        0.599        0.180       90.945       22.887        0.063      337.308        9.196      856.523
12/04/2014  01:15:00      -71.852        3.866        0.950       44.029       32.065       19.361     1938.591     1028.154      374.863        0.426        0.167       71.956       14.423        0.040      337.509        9.531      856.524
12/04/2014  01:16:00      -54.784       71.205      -14.805       29.483       25.437       24.854      869.276      647.017      617.705        0.521        0.107       89.842       20.718        0.053      338.046       10.432      856.456
12/04/2014  01:17:00      -57.970       67.333      -15.134        9.288       25.369        7.412       86.270      643.606       54.939        0.445        0.039       88.850       10.564        0.014      338.474       11.151      856.407
12/04/2014  01:18:00      -50.371        9.273      -14.915        7.174       16.436        4.886       51.468      270.150       23.875        0.160        0.017       51.217        4.535        0.008      338.437       11.086      856.427
12/04/2014  01:19:00      -61.487      -17.702       -8.319        8.595        7.659        7.481       73.866       58.657       55.965        0.218        0.009       63.984        4.774        0.006      338.051       10.440      856.467
12/04/2014  01:20:00      -96.790      -19.340      -10.826       24.162       16.312       11.732      583.780      266.076      137.646        0.542        0.049       98.704        3.998        0.002      337.506        9.526      856.511
12/04/2014  01:21:00     -108.741      -61.196       -8.249       41.625       24.306       17.436     1732.612      590.770      304.029        0.913        0.131      124.778       16.444        0.017      337.382        9.318      856.540
12/04/2014  01:22:00     -125.764      -25.798      -11.473       31.760       24.099       17.609     1008.689      580.763      310.076        0.926        0.095      128.382       15.861        0.015      337.569        9.631      856.520
12/04/2014  01:23:00      -91.440      -14.840      -11.601       32.101       15.580       11.345     1030.460      242.728      128.701        0.506        0.070       92.636       14.295        0.024      337.486        9.492      856.501
12/04/2014  01:24:00      -66.996      -15.114       -2.606       13.738       12.712        8.613      188.736      161.582       74.185        0.257        0.021       68.680        7.645        0.012      337.449        9.431      856.515
12/04/2014  01:25:00        7.119      -13.253       33.739       31.867       45.252       45.413     1015.475     2047.783     2062.326        0.324        0.256       15.044       42.696        8.054      337.546        9.593      856.571
12/04/2014  01:26:00       58.365      -13.972       75.045       86.207      110.299       79.219     7431.632    12165.931     6275.701        1.755        1.294       60.014       84.126        1.965      337.268        9.126      856.591
12/04/2014  01:27:00       85.369       69.551      113.275       80.536       80.587       65.390     6486.089     6494.268     4275.906        2.110        0.863      110.114       66.296        0.362      337.097        8.838      856.600
12/04/2014  01:28:00       57.254      -20.531       52.280       74.868       78.052       54.186     5605.175     6092.183     2936.082        1.053        0.732       60.823       51.621        0.720      337.065        8.787      856.615
12/04/2014  01:29:00       51.713        7.153       30.747       52.460       32.085       28.861     2752.085     1029.446      832.968        0.414        0.231       52.205       30.601        0.344      337.085        8.820      856.631
12/04/2014  01:30:00       16.528       33.039       38.423       29.509       29.311       21.105      870.809      859.106      445.432        0.251        0.109       36.943       14.759        0.160      337.097        8.841      856.626
12/04/2014  01:31:00       17.522       -4.232       11.466       15.411       19.975       13.882      237.486      399.013      192.721        0.064        0.041       18.026       11.560        0.411      337.079        8.810      856.621
12/04/2014  01:32:00      -28.710       -5.129       -3.037       24.375       11.214        9.938      594.159      125.759       98.765        0.084        0.041       29.164       11.949        0.168      337.094        8.835      856.639
12/04/2014  01:33:00      -74.355       -0.035       -7.619       26.240       19.600       16.298      688.557      384.166      265.629        0.346        0.067       74.355       14.890        0.040      336.971        8.628      856.674
12/04/2014  01:34:00      -97.719       -7.586       -8.033       42.121       35.160       24.044     1774.213     1236.228      578.133        0.663        0.179       98.013       22.866        0.054      336.998        8.674      856.723
12/04/2014  01:35:00     -125.341       33.380      -10.862       42.831       31.603       20.531     1834.507      998.722      421.518        1.010        0.163      129.710       16.902        0.017      337.064        8.785      856.750
12/04/2014  01:36:00     -104.022       37.856       -3.309       35.266       21.024       14.919     1243.711      441.992      222.565        0.709        0.095      110.696       18.195        0.027      337.116        8.871      856.770
12/04/2014  01:37:00      -44.167       53.322       -9.406       21.104       20.644       15.908      445.364      426.163      253.069        0.300        0.056       69.239       12.305        0.032      337.144        8.920      856.773
12/04/2014  01:38:00      -47.067       76.153      -12.159       22.115       18.851       15.711      489.076      355.368      246.823        0.463        0.055       89.524       13.387        0.022      337.351        9.267      856.783
12/04/2014  01:39:00        1.072       44.528       -8.285       23.561       33.920       11.578      555.106     1150.571      134.058        0.195        0.092       44.541        9.982        0.050      337.474        9.472      856.797
12/04/2014  01:40:00       17.491       59.426       -6.592       14.315       22.293       12.031      204.921      496.959      144.742        0.236        0.042       61.946        7.852        0.016      337.468        9.462      856.798
12/04/2014  01:41:00       13.472       65.483      -10.961       13.869       14.088        9.539      192.343      198.483       90.985        0.254        0.024       66.854        4.881        0.005      337.320        9.215      856.802
12/04/2014  01:42:00       24.503       58.964      -12.377       14.943       20.531        9.642      223.298      421.511       92.969        0.248        0.037       63.852       10.869        0.029      337.332        9.235      856.825
12/04/2014  01:43:00       22.137       82.874      -12.862       17.313       29.373       13.236      299.742      862.763      175.189        0.443        0.067       85.779       13.009        0.023      337.405        9.356      856.841
12/04/2014  01:44:00        9.233      104.432      -20.861        9.562       10.250        8.058       91.426      105.059       64.929        0.584        0.013      104.840        3.614        0.001      337.636        9.745      856.859
12/04/2014  01:45:00      -15.464       68.682      -15.494       16.411       19.993       12.360      269.313      399.737      152.760        0.301        0.041       70.401       10.382        0.022      337.710        9.868      856.874
12/04/2014  01:46:00      -46.094       -2.775       -8.136       16.146       26.539       10.101      260.681      704.325      102.024        0.163        0.053       46.177       10.088        0.048      337.316        9.208      856.889
12/04/2014  01:47:00      -62.722      -10.639       -7.459        9.776       13.019       10.459       95.563      169.507      109.397        0.224        0.019       63.618        6.283        0.010      337.091        8.830      856.907
12/04/2014  01:48:00     -102.999      -38.272      -13.730       22.469       12.172        9.914      504.852      148.149       98.284        0.651        0.038      109.880        3.155        0.001      336.964        8.617      856.935
12/04/2014  01:49:00     -142.154      -58.898       -6.400       28.931       22.223       15.909      837.005      493.863      253.103        1.265        0.079      153.873       14.509        0.009      337.019        8.709      856.972
12/04/2014  01:50:00     -108.878      -38.339        4.996       34.344       30.900       21.037     1179.479      954.818      442.543        0.796        0.129      115.431       17.612        0.023      337.228        9.061      856.994
12/04/2014  01:51:00     -118.226      -21.119        0.490       35.101       25.904       21.132     1232.099      671.034      446.546        0.839        0.117      120.097       19.293        0.026      337.251        9.099      857.007
12/04/2014  01:52:00     -104.616        5.749      -10.757       26.565       28.595       14.220      705.723      817.694      202.200        0.641        0.086      104.774       11.747        0.013      337.394        9.337      857.026
12/04/2014  01:53:00      -73.205      -16.725       -3.166       26.880       23.472       15.598      722.524      550.945      243.309        0.358        0.076       75.091       14.598        0.038      337.276        9.142      857.043
12/04/2014  01:54:00      -51.150       -7.100       -5.624       12.173        9.207        8.215      148.170       84.773       67.482        0.150        0.015       51.641        3.035        0.003      337.289        9.161      857.048
12/04/2014  01:55:00      -89.132      -24.173       -9.978       23.390        9.703        8.937      547.100       94.147       79.862        0.467        0.036       92.352        9.803        0.011      337.244        9.091      857.063
12/04/2014  01:56:00     -108.160      -13.721       -6.822       26.182       19.039       18.072      685.512      362.478      326.586        0.665        0.069      109.027       16.015        0.022      337.141        8.914      857.082
12/04/2014  01:57:00      -71.656       -3.071       -6.435       19.496       19.005        9.974      380.086      361.194       99.483        0.301        0.042       71.722        6.735        0.009      337.027        8.723      857.076
12/04/2014  01:58:00      -47.606        0.875       -5.751       17.802       16.570        8.454      316.908      274.557       71.475        0.148        0.033       47.614        7.672        0.026      337.014        8.703      857.049
12/04/2014  01:59:00      -46.121       19.323       -7.536       19.974       25.699       11.377      398.972      660.436      129.429        0.187        0.059       50.005        9.996        0.040      337.101        8.847      857.022
12/04/2014  02:00:00      -65.141       62.616      -17.125       13.286       21.152       11.095      176.510      447.394      123.098        0.460        0.037       90.355        7.137        0.006      337.245        9.088      857.016
12/04/2014  02:01:00      -51.063       22.624       -6.466       18.696       15.199       13.373      349.545      231.018      178.827        0.196        0.038       55.851       12.253        0.048      337.283        9.153      857.031
12/04/2014  02:02:00      -11.101       30.577        7.457       31.891       14.337       14.806     1017.043      205.544      219.219        0.128        0.072       32.530       18.953        0.339      337.217        9.041      857.028
12/04/2014  02:03:00       16.209      101.007      -23.940       16.641       37.169       17.233      276.936     1381.544      296.976        0.650        0.098      102.299       21.716        0.045      337.321        9.216      856.998
12/04/2014  02:04:00      -43.528       49.116      -12.589       25.044       66.591       15.323      627.214     4434.416      234.780        0.488        0.265       65.629       23.899        0.133      337.165        8.956      856.982
12/04/2014  02:05:00      -28.114       22.940        6.789       29.611       33.542       18.360      876.824     1125.062      337.100        0.185        0.117       36.286       13.153        0.131      336.871        8.464      856.940
12/04/2014  02:06:00      -70.007       86.752       -3.087       45.838       73.625       29.513     2101.162     5420.625      871.010        1.041        0.420      111.476       38.187        0.117      336.913        8.534      856.831
12/04/2014  02:07:00       10.067      104.995       -8.822       48.565       56.641       27.024     2358.527     3208.178      730.311        0.875        0.315      105.476       21.951        0.043      337.028        8.726      856.721
12/04/2014  02:08:00       55.892       31.617        5.279       39.440       36.263       29.238     1555.478     1314.985      854.885        0.394        0.186       64.215       23.437        0.133      336.716        8.206      856.734
12/04/2014  02:09:00      -11.464      -17.175       -1.868       23.223       21.495       14.114      539.315      462.047      199.195        0.081        0.060       20.649       12.302        0.355      336.694        8.169      856.852
12/04/2014  02:10:00      -76.091        5.242       -7.941       26.820       24.313       16.940      719.338      591.118      286.968        0.374        0.080       76.271       15.753        0.043      336.810        8.363      856.840
12/04/2014  02:11:00        7.007       55.979        1.424       45.619       34.624       23.627     2081.096     1198.832      558.244        0.351        0.192       56.416       19.539        0.120      336.977        8.640      856.733
12/04/2014  02:12:00        9.080      -67.504       -4.307       38.415       39.154       16.846     1475.717     1533.023      283.793        0.397        0.165       68.112        7.743        0.013      337.091        8.831      856.835
12/04/2014  02:13:00      -46.645       70.339       -4.653       25.256       89.433       21.803      637.872     7998.275      475.359        0.813        0.456       84.400       19.929        0.056      337.220        9.047      856.780
12/04/2014  02:14:00      -36.836      185.489      -17.348       47.280       49.681       24.441     2235.413     2468.222      597.378        2.068        0.265      189.111       23.309        0.015      337.328        9.225      856.450
12/04/2014  02:15:00      135.279       65.131        2.165       64.626       67.580       42.570     4176.496     4567.116     1812.183        1.655        0.528      150.141       29.295        0.038      337.120        8.877      856.471
12/04/2014  02:16:00       60.947     -121.460       -0.797       47.592       78.415       28.916     2265.010     6148.885      836.135        1.386        0.463      135.894       35.908        0.070      337.077        8.807      856.663
12/04/2014  02:17:00      147.051       53.489       50.820      102.806      142.775       66.239    10569.146    20384.608     4387.560        3.120        1.767      156.477       65.355        0.174      337.231        9.064      856.535
12/04/2014  02:18:00      103.951     -166.608        9.787       95.083      163.083       74.431     9040.786    26595.943     5539.957        3.991        2.059      196.377       76.212        0.151      337.929       10.233      856.562
12/04/2014  02:19:00      115.142      -42.035       73.087      114.770      132.727      106.245    13172.129    17616.401    11287.910        3.121        2.104      122.575       97.453        0.632      338.264       10.796      856.388
12/04/2014  02:20:00      -31.020       61.245      122.435      121.506      137.867       99.165    14763.641    19007.190     9833.645        3.165        2.180       68.653      105.870        2.378      338.078       10.481      856.326
12/04/2014  02:21:00     -300.172      -80.908      -10.060      239.379      142.757       60.813    57302.454    20379.532     3698.246        8.905        4.069      310.885       61.253        0.039      338.413       11.046      856.376
12/04/2014  02:22:00     -257.655     -106.641      -13.025      180.766      117.908       59.230    32676.263    13902.194     3508.138        6.400        2.504      278.852       65.211        0.055      338.143       10.593      856.497
12/04/2014  02:23:00     -114.351      -71.420       -7.845      105.567       65.052       46.044    11144.369     4231.754     2120.042        1.786        0.875      134.822       51.234        0.144      338.054       10.445      856.528
12/04/2014  02:24:00      -43.732     -144.510       14.781       83.942       86.121       45.861     7046.281     7416.769     2103.265        1.979        0.828      150.982       40.479        0.072      337.951       10.271      856.590
12/04/2014  02:25:00      -59.237     -101.581        9.517       67.129       61.789       35.430     4506.243     3817.831     1255.258        1.175        0.479      117.591       35.747        0.092      337.832       10.072      856.608
12/04/2014  02:26:00      -25.094     -101.254        5.146       51.952       61.051       31.517     2698.976     3727.192      993.344        0.916        0.371      104.317       19.206        0.034      337.850       10.102      856.685
12/04/2014  02:27:00      -12.073      -25.094       -0.452       29.659       77.813       25.808      879.671     6054.813      666.056        0.419        0.380       27.847       29.226        1.102      337.803       10.022      856.754
12/04/2014  02:28:00       23.481       27.381       85.418       78.556      108.761       79.545     6171.064    11829.031     6327.350        1.646        1.216       36.070       71.090        3.884      337.594        9.672      856.746
12/04/2014  02:29:00      176.481     -170.790       -2.211       96.837      165.037       92.953     9377.417    27237.097     8640.170        5.278        2.263      245.591      103.092        0.176      337.303        9.185      856.823
12/04/2014  02:30:00      207.561     -259.012      -36.984      105.373      129.150       75.768    11103.367    16679.663     5740.862        7.252        1.676      331.916       80.371        0.059      337.277        9.141      856.863
12/04/2014  02:31:00      198.328     -229.104      -40.626       96.371      122.702       70.868     9287.338    15055.758     5022.224        6.141        1.468      303.023       80.413        0.070      337.287        9.157      856.935
12/04/2014  02:32:00      128.357     -140.807       23.514      155.665      177.572      105.766    24231.442    31531.864    11186.384        5.189        3.347      190.531      122.620        0.414      337.314        9.203      857.040
12/04/2014  02:33:00       99.062      -23.187       96.383      132.682      175.365      117.383    17604.416    30752.838    13778.886        4.088        3.107      101.739      125.030        1.510      337.376        9.307      856.993
12/04/2014  02:34:00       81.139       77.233      130.461      114.605      101.674       68.532    13134.248    10337.575     4696.662        2.886        1.408      112.020       67.319        0.361      337.603        9.685      856.848
12/04/2014  02:35:00      126.352      136.422      143.231       98.060      105.490       73.469     9615.767    11128.037     5397.712        4.061        1.307      185.946       75.662        0.166      337.173        8.965      856.780
12/04/2014  02:36:00      132.867     -138.662       26.083      112.734      193.226      102.051    12708.979    37336.355    10414.508        4.900        3.023      192.044      124.271        0.419      337.167        8.955      856.876
12/04/2014  02:37:00      221.694     -290.146      -40.498       88.038      115.982       55.918     7750.604    13451.921     3126.852        7.965        1.216      365.147       48.554        0.018      337.181        8.980      856.937
12/04/2014  02:38:00       92.349      -89.446       -0.302       66.398       99.117       52.364     4408.649     9824.125     2741.995        1.675        0.849      128.565       58.053        0.204      337.094        8.835      856.935
12/04/2014  02:39:00       57.060      -54.035       17.886       49.995       86.010       47.251     2499.548     7397.685     2232.664        0.931        0.606       78.585       55.356        0.496      337.084        8.818      856.952
12/04/2014  02:40:00       73.616      -75.731        2.679       52.500       52.647       36.605     2756.301     2771.749     1339.927        0.901        0.343      105.615       29.293        0.077      337.105        8.853      857.004
12/04/2014  02:41:00       18.165     -105.806        7.511       42.111       66.131       32.145     1773.305     4373.332     1033.281        0.938        0.359      107.354       29.830        0.077      337.315        9.206      857.026
12/04/2014  02:42:00       74.680      -87.309       25.054       51.094       89.278       48.569     2610.625     7970.551     2358.964        1.338        0.647      114.891       45.668        0.158      337.222        9.049      857.015
12/04/2014  02:43:00       39.289       11.338       58.649       54.877       77.674       48.748     3011.460     6033.235     2376.342        0.826        0.571       40.893       56.687        1.922      337.146        8.923      856.979
12/04/2014  02:44:00        1.108       -1.242       48.810       42.139       60.236       51.721     1775.719     3628.318     2675.037        0.523        0.404        1.664       21.947      173.953      337.079        8.809      856.899
12/04/2014  02:45:00       34.290      -15.331       49.252       62.160       83.821       53.380     3863.820     7026.040     2849.395        0.879        0.687       37.561       58.264        2.406      337.050        8.762      856.855
12/04/2014  02:46:00       35.178     -127.989      -23.509       55.956       51.282       41.523     3131.122     2629.891     1724.127        1.283        0.374      132.735       31.367        0.056      337.150        8.930      856.876
12/04/2014  02:47:00       15.171      -76.382        4.109       49.426       39.251       40.171     2442.899     1540.649     1613.691        0.584        0.280       77.874       29.755        0.146      337.151        8.932      856.945
12/04/2014  02:48:00      -54.383      -21.712       11.326       51.101       48.401       32.612     2611.290     2342.667     1063.550        0.479        0.301       58.557       29.028        0.246      337.170        8.964      857.014
12/04/2014  02:49:00      -14.951        0.368       19.695       37.687       32.220       23.542     1420.297     1038.121      554.211        0.181        0.151       14.955       21.756        2.116      337.205        9.022      857.028
12/04/2014  02:50:00       39.161       39.313       35.825       24.775       17.743       19.888      613.782      314.816      395.519        0.284        0.066       55.490       11.698        0.044      337.266        9.126      856.945
12/04/2014  02:51:00       47.942       67.598       38.034       22.341       17.744       20.067      499.129      314.851      402.703        0.477        0.061       82.873       11.537        0.019      337.205        9.023      856.872
12/04/2014  02:52:00       18.789      -20.055        1.245       16.137       31.233       17.917      260.411      975.511      321.004        0.116        0.078       27.481       18.072        0.432      337.185        8.989      856.928
12/04/2014  02:53:00       18.210      -39.870       20.190       23.106       20.371       25.254      533.910      414.988      637.782        0.196        0.079       43.832       18.295        0.174      337.248        9.095      857.035
12/04/2014  02:54:00      -11.641      -18.448      -11.921       34.134       26.852       20.600     1165.103      721.037      424.368        0.146        0.116       21.814       19.378        0.789      337.272        9.135      857.088
12/04/2014  02:55:00      -42.821       -3.986        0.144       10.190       11.473       11.582      103.826      131.631      134.141        0.111        0.018       43.006        6.851        0.025      337.243        9.088      857.077
12/04/2014  02:56:00      -30.929       -3.064       -4.875       16.659       18.940       11.169      277.512      358.736      124.751        0.088        0.038       31.081        9.691        0.097      337.340        9.247      857.070
12/04/2014  02:57:00      -59.032      -24.098       -3.389       36.480       29.499       13.161     1330.767      870.205      173.210        0.323        0.119       63.761        6.159        0.009      337.409        9.361      857.099
12/04/2014  02:58:00      -72.445      -73.786       -1.834       36.433       41.493       22.476     1327.363     1721.688      505.171        0.712        0.178      103.405       21.266        0.042      337.341        9.250      857.130
12/04/2014  02:59:00      -37.318      -54.345       14.345       50.066       51.862       27.502     2506.579     2689.667      756.337        0.525        0.298       65.924       27.036        0.168      337.309        9.196      857.127
12/04/2014  03:00:00      -98.206     -108.671        9.541       67.658       83.579       40.223     4577.663     6985.446     1617.876        1.736        0.659      146.471       34.010        0.054      337.587        9.661      857.100
12/04/2014  03:01:00      -74.466     -143.152       -7.008       37.079       46.014       30.926     1374.815     2117.309      956.435        1.527        0.222      161.362       20.125        0.016      337.858       10.115      857.080
12/04/2014  03:02:00      -47.488      -25.617        2.216       18.645       49.120       15.312      347.629     2412.803      234.448        0.295        0.150       53.957       16.118        0.089      337.986       10.330      857.027
12/04/2014  03:03:00      -52.744       18.325       -3.261       22.272        8.718       10.674      496.021       76.005      113.930        0.191        0.034       55.837       12.817        0.053      337.986       10.330      856.965
12/04/2014  03:04:00     -103.046      -31.612       -9.654       20.840       35.325       14.380      434.317     1247.829      206.780        0.680        0.094      107.786       10.867        0.010      337.877       10.147      856.939
12/04/2014  03:05:00     -133.123      -73.774       -0.861       43.185       33.196       25.676     1864.930     1101.981      659.245        1.339        0.181      152.198       20.258        0.018      337.709        9.866      856.939
12/04/2014  03:06:00     -146.462      -80.761       -1.635       50.196       37.985       27.667     2519.673     1442.843      765.488        1.635        0.236      167.253       13.063        0.006      337.609        9.698      856.978
12/04/2014  03:07:00     -111.361      -59.661        1.518       51.129       40.627       31.549     2614.212     1650.536      995.364        1.061        0.263      126.336       26.370        0.044      337.600        9.683      857.007
12/04/2014  03:08:00     -124.418      -83.943       -0.922       48.144       35.927       23.740     2317.801     1290.718      563.579        1.335        0.209      150.088       19.360        0.017      337.754        9.942      857.028
12/04/2014  03:09:00     -135.865      -53.759        5.129       77.122       40.510       20.984     5947.864     1641.054      440.335        1.470        0.401      146.114       23.839        0.027      337.681        9.817      857.037
12/04/2014  03:10:00     -160.897      -31.414       -4.158       72.314       50.220       32.591     5229.251     2522.045     1062.151        1.785        0.441      163.935       31.859        0.038      337.519        9.546      857.062
12/04/2014  03:11:00      -73.956       -7.911       -8.094       38.320       28.362       17.584     1468.432      804.398      309.214        0.409        0.129       74.378       18.192        0.060      337.447        9.425      857.084
12/04/2014  03:12:00      -22.241       -1.374        0.284       23.827       13.349       15.829      567.728      178.204      250.566        0.075        0.050       22.284       10.005        0.202      337.475        9.473      857.103
12/04/2014  03:13:00      -87.936       -5.004       -7.796       33.711       27.475       18.562     1136.442      754.899      344.539        0.503        0.112       88.078       17.324        0.039      337.408        9.362      857.107
12/04/2014  03:14:00     -116.831       -0.141      -11.162       40.193       39.645       25.893     1615.458     1571.745      670.449        0.882        0.193      116.831       22.515        0.037      337.199        9.013      857.096
12/04/2014  03:15:00     -101.179       -0.331      -15.594       36.561       44.978       24.120     1336.717     2023.008      581.764        0.721        0.197      101.180       15.988        0.025      337.094        8.834      857.090
12/04/2014  03:16:00      -80.500      128.372      -20.799       27.137       38.922       18.260      736.444     1514.924      333.428        1.299        0.129      151.525       11.226        0.005      337.266        9.124      857.069
12/04/2014  03:17:00      -89.033      128.926      -20.024       40.563       24.531       21.701     1645.393      601.780      470.926        1.383        0.136      156.681       19.380        0.015      337.427        9.393      857.050
12/04/2014  03:18:00      -79.918       96.316      -12.419       27.453       28.204       19.734      753.678      795.477      389.417        0.888        0.097      125.155       13.693        0.012      337.405        9.357      857.045
12/04/2014  03:19:00      -45.876       76.222       -9.190       13.049       23.819       14.080      170.279      567.356      198.254        0.447        0.047       88.963       10.191        0.013      337.468        9.462      857.055
12/04/2014  03:20:00      -61.184       -6.674       -7.270       18.212       38.404        9.224      331.677     1474.892       85.087        0.287        0.095       61.547        7.383        0.014      337.452        9.435      857.106
12/04/2014  03:21:00      -85.461      -55.382       -4.745       17.741       12.008       14.532      314.754      144.195      211.178        0.553        0.034      101.836        3.227        0.001      337.340        9.249      857.160
12/04/2014  03:22:00     -125.196      -51.105       -6.748       16.245       21.594       13.134      263.906      466.305      172.501        0.962        0.045      135.224        7.156        0.003      337.137        8.907      857.194
12/04/2014  03:23:00     -122.559      -30.535        1.914       36.115       27.500       21.647     1304.301      756.267      468.585        0.924        0.126      126.306       22.097        0.031      337.028        8.724      857.202
12/04/2014  03:24:00     -163.470      -33.299       -5.316       60.902       37.222       22.930     3709.022     1385.461      525.800        1.674        0.281      166.827       21.723        0.017      337.034        8.735      857.210
12/04/2014  03:25:00     -242.794      -19.376      -23.503       61.281       57.104       37.802     3755.307     3260.820     1428.983        3.416        0.422      243.566       33.603        0.019      337.425        9.386      857.217
12/04/2014  03:26:00      -46.087      -57.948        3.942       54.147       41.282       29.561     2931.860     1704.224      873.836        0.550        0.275       74.040       18.410        0.062      338.059       10.453      857.214
12/04/2014  03:27:00       27.677      -17.189       15.801       16.985       18.204       18.713      288.479      331.382      350.175        0.114        0.049       32.580       12.847        0.155      338.040       10.420      857.194
12/04/2014  03:28:00       21.517      -30.058        9.610       17.955       14.233       17.252      322.367      202.565      297.619        0.114        0.041       36.966       12.310        0.111      338.145       10.599      857.169
12/04/2014  03:29:00      -74.115      -15.148       -0.077       47.049       28.435       20.982     2213.630      808.533      440.227        0.459        0.173       75.647       19.558        0.067      337.823       10.059      857.161
12/04/2014  03:30:00     -153.007      -62.172       -4.925       75.392       48.534       26.259     5683.993     2355.549      689.531        1.801        0.436      165.156       25.212        0.023      337.622        9.719      857.171
12/04/2014  03:31:00     -139.440      -83.935       -6.054       37.447       37.868       25.773     1402.270     1434.018      664.249        1.501        0.175      162.753       19.081        0.014      337.958       10.284      857.225
12/04/2014  03:32:00     -153.454      -89.698       -3.078       66.751       48.344       41.816     4455.666     2337.161     1748.594        2.007        0.427      177.747       33.291        0.035      337.715        9.875      857.257
12/04/2014  03:33:00     -106.853      -25.785        4.263       61.996       58.829       34.983     3843.557     3460.794     1223.819        1.031        0.426      109.920       33.738        0.094      337.600        9.683      857.261
12/04/2014  03:34:00     -101.466      -70.643        2.466       68.523       38.289       26.804     4695.339     1466.050      718.445        1.108        0.344      123.636       31.676        0.066      337.895       10.177      857.252
12/04/2014  03:35:00     -108.704      -75.084       -4.426       51.272       49.373       30.597     2628.780     2437.654      936.199        1.174        0.300      132.114       23.703        0.032      337.725        9.894      857.241
12/04/2014  03:36:00     -139.727      -64.889       -0.610       37.825       39.543       21.635     1430.709     1563.644      468.064        1.360        0.173      154.059       19.474        0.016      337.474        9.473      857.240
12/04/2014  03:37:00     -105.798      -68.002        2.395       71.035       31.003       25.505     5046.012      961.171      650.517        1.124        0.333      125.768       34.766        0.076      337.594        9.675      857.232
12/04/2014  03:38:00      -75.360      -59.879        5.212       46.658       55.851       26.617     2176.957     3119.326      708.479        0.765        0.300       96.253       20.373        0.045      337.781        9.988      857.224
12/04/2014  03:39:00     -111.293      -40.589      -10.134       30.679       24.722       14.070      941.205      611.199      197.961        0.794        0.088      118.464       13.310        0.013      337.690        9.835      857.208
12/04/2014  03:40:00     -129.048      -14.615       -9.970       29.962       31.767       19.599      897.696     1009.141      384.107        0.963        0.115      129.873       13.247        0.010      337.551        9.601      857.189
12/04/2014  03:41:00     -148.555      -26.008      -12.773       27.885       41.097       16.851      777.550     1688.986      283.948        1.283        0.138      150.815       15.417        0.010      337.372        9.302      857.195
12/04/2014  03:42:00     -118.834      -39.149       -4.095       35.795       34.055       19.878     1281.305     1159.762      395.146        0.925        0.142      125.117       14.029        0.013      337.288        9.159      857.221
12/04/2014  03:43:00     -110.225      -54.745        4.601       44.895       37.570       23.687     2015.593     1411.483      561.055        0.958        0.199      123.071       26.068        0.045      337.254        9.105      857.244
12/04/2014  03:44:00     -106.492      -71.861        2.289       54.160       35.557       25.632     2933.354     1264.317      657.005        1.068        0.243      128.470       28.777        0.050      337.437        9.410      857.239
12/04/2014  03:45:00      -98.832      -73.204        3.456       51.930       45.770       28.073     2696.714     2094.916      788.090        1.036        0.279      122.990       30.290        0.061      337.496        9.509      857.216
12/04/2014  03:46:00      -84.861      -65.076        1.469       42.255       31.652       26.234     1785.446     1001.874      688.248        0.746        0.174      106.941       24.280        0.052      337.622        9.719      857.177
12/04/2014  03:47:00     -113.389      -55.535       -2.622       22.147       22.698       13.646      490.493      515.207      186.220        0.857        0.060      126.259        7.485        0.004      337.622        9.720      857.149
12/04/2014  03:48:00      -77.683      -54.775       -7.370       25.553       21.464       13.991      652.959      460.714      195.741        0.520        0.065       95.052       12.940        0.019      337.567        9.627      857.137
12/04/2014  03:49:00      -24.836      -47.995       10.634       40.439       23.541       21.830     1635.337      554.199      476.537        0.285        0.133       54.040       22.517        0.174      337.593        9.672      857.128
12/04/2014  03:50:00      -27.577      -74.074       -0.681       13.211       10.032        6.332      174.539      100.651       40.097        0.328        0.016       79.041        2.498        0.001      337.677        9.812      857.125
12/04/2014  03:51:00      -22.823      -11.617        4.461       19.006       17.910       12.407      361.227      320.781      153.931        0.076        0.042       25.609        9.945        0.151      337.609        9.699      857.102
12/04/2014  03:52:00      -10.605        9.128       10.157        9.224       10.304        8.821       85.073      106.175       77.803        0.028        0.013       13.992        7.269        0.270      337.499        9.512      857.077
12/04/2014  03:53:00      -20.310       27.381       -2.947       10.630       15.783        9.015      112.991      249.109       81.267        0.081        0.022       34.091        6.320        0.034      337.415        9.373      857.052
12/04/2014  03:54:00       38.114       37.932       10.135       19.045        8.970        9.454      362.727       80.453       89.371        0.176        0.027       53.773        7.810        0.021      337.486        9.491      857.043
12/04/2014  03:55:00       90.644       38.744        7.657       39.795       18.402       23.750     1583.607      338.621      564.053        0.613        0.124       98.577       15.089        0.023      337.348        9.263      857.055
12/04/2014  03:56:00       93.834       57.509       24.401       42.064       27.054       35.494     1769.383      731.922     1259.793        0.823        0.188      110.055       30.318        0.076      337.129        8.894      857.077
12/04/2014  03:57:00       64.024       44.708       42.414       30.370       22.655       22.212      922.314      513.239      493.380        0.491        0.096       78.089       14.542        0.035      337.106        8.854      857.102
12/04/2014  03:58:00       62.639       31.521       18.466       39.531       28.215       23.791     1562.668      796.106      565.993        0.409        0.146       70.123       16.118        0.053      337.152        8.934      857.117
12/04/2014  03:59:00       49.847       45.995       16.128       29.736       36.548       27.554      884.258     1335.746      759.199        0.392        0.149       67.825       20.497        0.091      337.104        8.850      857.118
12/04/2014  04:00:00       78.283       51.430        7.349       34.219       27.084       17.759     1170.951      733.560      315.392        0.552        0.111       93.666       11.434        0.015      337.045        8.752      857.131
12/04/2014  04:01:00       93.390       66.285        2.442       33.949       29.353       31.195     1152.556      861.605      973.150        0.805        0.149      114.522       20.887        0.033      337.042        8.747      857.134
12/04/2014  04:02:00       57.539       49.044        4.849       32.712       23.054       23.007     1070.069      531.504      529.327        0.393        0.107       75.605       16.923        0.050      337.041        8.748      857.147
12/04/2014  04:03:00       81.664       52.717        4.048       26.326       19.114       15.407      693.033      365.338      237.376        0.538        0.065       97.201        9.291        0.009      337.113        8.866      857.159
12/04/2014  04:04:00       71.092       43.596        4.788       22.077       16.936       14.077      487.398      286.825      198.157        0.397        0.049       83.395        6.784        0.007      337.122        8.880      857.172
12/04/2014  04:05:00       25.015       17.928       -2.467       21.186       21.112       12.483      448.827      445.737      155.827        0.100        0.053       30.776        7.225        0.055      337.071        8.795      857.181
12/04/2014  04:06:00       11.278       42.504       -1.856       14.155       20.899       11.404      200.365      436.756      130.051        0.135        0.038       43.975       12.374        0.079      337.214        9.036      857.186
12/04/2014  04:07:00      -12.184       78.804      -12.439       15.642       15.491       10.697      244.679      239.987      114.418        0.356        0.030       79.741        5.903        0.005      337.349        9.263      857.185
12/04/2014  04:08:00      -24.223       49.404       -7.630       17.735       21.187       12.964      314.533      448.874      168.056        0.201        0.047       55.023        9.321        0.029      337.247        9.090      857.177
12/04/2014  04:09:00      -22.443       67.859       -6.240       20.293       33.496       13.771      411.815     1121.969      189.649        0.344        0.086       71.474        6.640        0.009      337.423        9.387      857.182
12/04/2014  04:10:00      -35.847       16.673       -3.461       16.426       19.789       11.228      269.827      391.597      126.058        0.118        0.039       39.534       10.567        0.071      337.257        9.108      857.209
12/04/2014  04:11:00      -45.312      -22.196       -7.095       12.599       14.275        7.220      158.744      203.766       52.130        0.151        0.021       50.456        5.130        0.010      337.023        8.716      857.242
12/04/2014  04:12:00      -62.968      -23.002       -4.703       11.390       10.634        7.059      129.729      113.091       49.825        0.240        0.015       67.038        4.975        0.006      336.972        8.629      857.248
12/04/2014  04:13:00      -38.486      -25.448      -11.720       17.190       11.616       11.758      295.502      134.940      138.245        0.142        0.028       46.139        7.763        0.028      336.996        8.670      857.248
12/04/2014  04:14:00        0.049      -29.902        7.824        9.487       10.160        9.488       90.009      103.231       90.019        0.062        0.014       29.902        4.769        0.025      337.051        8.762      857.241
12/04/2014  04:15:00      -23.354      -22.292        6.998       14.024       12.947       12.045      196.681      167.629      145.080        0.080        0.025       32.286       11.602        0.129      337.080        8.810      857.250
12/04/2014  04:16:00      -10.340       -6.549       -3.150        6.970        5.380        6.284       48.582       28.944       39.490        0.014        0.006       12.240        3.126        0.065      337.131        8.899      857.254
12/04/2014  04:17:00       18.048        7.833        1.841       12.224       17.892       11.338      149.427      320.141      128.560        0.049        0.030       19.675       11.711        0.354      337.324        9.222      857.254
12/04/2014  04:18:00       36.135       37.765       33.778       27.624       18.908       20.622      763.087      357.503      425.254        0.271        0.077       52.268       15.014        0.083      337.254        9.105      857.256
12/04/2014  04:19:00       87.552       69.778       50.752       47.766       44.814       34.415     2281.631     2008.274     1184.365        1.029        0.274      111.957       24.784        0.049      337.173        8.968      857.247
12/04/2014  04:20:00      120.202       87.297       95.919       65.390       59.797       53.844     4275.816     3575.739     2899.189        2.101        0.538      148.557       47.860        0.104      336.956        8.604      857.251
12/04/2014  04:21:00       78.939      106.741       95.942       55.278       52.561       50.586     3055.681     2762.696     2558.960        1.760        0.419      132.759       43.859        0.109      337.113        8.868      857.264
12/04/2014  04:22:00      104.902       86.818       46.912       38.886       32.180       37.128     1512.105     1035.537     1378.469        1.233        0.196      136.168       28.763        0.045      337.337        9.243      857.278
12/04/2014  04:23:00       65.022       51.465       50.232       41.885       34.841       29.403     1754.340     1213.917      864.565        0.662        0.192       82.925       23.833        0.083      337.267        9.126      857.281
12/04/2014  04:24:00       51.098       43.386       56.347       44.750       41.003       31.657     2002.596     1681.239     1002.141        0.618        0.234       67.032       30.622        0.209      337.150        8.930      857.292
12/04/2014  04:25:00        6.893       39.710       61.066       22.617       28.579       16.834      511.528      816.780      283.380        0.348        0.081       40.304       13.636        0.114      337.085        8.820      857.310
12/04/2014  04:26:00       31.846        0.917       23.984       25.788       27.066       19.464      665.003      732.595      378.837        0.168        0.089       31.859       22.243        0.487      337.049        8.759      857.331
12/04/2014  04:27:00        8.924        3.837       20.187       28.069       15.913       12.117      787.876      253.222      146.820        0.084        0.059        9.714        9.277        0.912      337.056        8.770      857.356
12/04/2014  04:28:00      -27.337      -22.193        0.682       16.763       14.866       15.621      281.008      221.010      244.015        0.099        0.037       35.211       12.086        0.118      337.035        8.734      857.374
12/04/2014  04:29:00      -20.625      -28.459        8.166       19.231       12.809       11.008      369.821      164.077      121.175        0.098        0.033       35.147       11.352        0.104      337.092        8.830      857.387
12/04/2014  04:30:00      -24.195      -23.041        1.954       21.090       18.579        7.861      444.787      345.167       61.803        0.099        0.043       33.411        2.741        0.007      337.072        8.796      857.392
12/04/2014  04:31:00       13.295       -6.268       -1.482       18.103       19.112       12.061      327.732      365.283      145.479        0.053        0.042       14.698       11.501        0.612      337.110        8.861      857.389
12/04/2014  04:32:00        0.540       44.744       10.182       20.322       20.857       24.151      413.000      435.034      583.251        0.177        0.072       44.748       13.769        0.095      337.092        8.831      857.377
12/04/2014  04:33:00      -18.768       33.873       14.677       24.598       22.744       21.027      605.074      517.294      442.128        0.164        0.078       38.725        9.611        0.062      337.138        8.909      857.379
12/04/2014  04:34:00      -34.490      -24.496       -1.580       12.960       22.931        9.028      167.971      525.809       81.496        0.128        0.039       42.304        6.113        0.021      337.087        8.823      857.379
12/04/2014  04:35:00      -17.393      -12.290       -6.760       16.235        9.046        7.046      263.585       81.826       49.651        0.045        0.020       21.297        5.124        0.058      337.120        8.877      857.379
12/04/2014  04:36:00       -9.329       -4.987       -3.576       11.968        7.810        5.643      143.234       61.001       31.844        0.018        0.012       10.579        5.857        0.307      337.127        8.890      857.381
12/04/2014  04:37:00      -38.815      -14.812        0.436       13.217        9.345        6.398      174.681       87.322       40.941        0.101        0.015       41.546        3.980        0.009      337.167        8.960      857.389
12/04/2014  04:38:00      -36.217      -29.159        5.805       21.201       12.127        9.122      449.473      147.067       83.204        0.144        0.034       46.497        6.750        0.021      337.123        8.885      857.410
12/04/2014  04:39:00      -44.776      -26.727        2.452       27.753       16.840       12.517      770.214      283.572      156.687        0.197        0.061       52.147       14.491        0.077      337.108        8.859      857.440
12/04/2014  04:40:00      -34.493      -38.331        3.953       27.252       22.362       18.364      742.699      500.071      337.227        0.213        0.079       51.566       11.641        0.051      337.065        8.786      857.463
12/04/2014  04:41:00       -4.229      -13.389       -7.655       22.384       16.415       14.829      501.024      269.465      219.908        0.062        0.050       14.041       11.210        0.637      337.036        8.739      857.477
12/04/2014  04:42:00      -26.391       -1.640        5.417        9.269       14.204       12.131       85.924      201.763      147.153        0.058        0.022       26.442       11.787        0.199      337.041        8.750      857.489
12/04/2014  04:43:00      -25.358        8.321       -1.452        7.013        8.136        8.060       49.187       66.188       64.967        0.045        0.009       26.689        6.842        0.066      336.998        8.673      857.488
12/04/2014  04:44:00      -21.092        7.829       -4.498        9.789        6.926        4.911       95.830       47.972       24.120        0.035        0.008       22.498        2.771        0.015      336.957        8.602      857.478
12/04/2014  04:45:00       -8.845        6.147       16.551        7.811       14.812        7.706       61.012      219.397       59.381        0.036        0.017       10.771        7.532        0.489      337.015        8.702      857.483
12/04/2014  04:46:00       -5.038       12.512       31.320       10.632       20.186       11.078      113.039      407.475      122.712        0.090        0.032       13.488       11.960        0.786      337.102        8.850      857.490
12/04/2014  04:47:00       15.811       46.253       38.895       25.480       24.044       21.964      649.248      578.094      482.433        0.281        0.085       48.881       20.075        0.169      337.043        8.749      857.493
12/04/2014  04:48:00       48.512       14.054       15.013       23.062       29.529       16.037      531.858      871.935      257.187        0.222        0.083       50.507       12.087        0.057      337.016        8.703      857.508
12/04/2014  04:49:00       31.861       29.255       37.549       22.677       25.308       19.639      514.247      640.491      385.686        0.241        0.077       43.255       15.315        0.125      337.039        8.742      857.516
12/04/2014  04:50:00       87.837       71.989       48.081       29.133       23.269       24.080      848.708      541.427      579.854        0.859        0.098      113.568       16.351        0.021      336.970        8.628      857.531
12/04/2014  04:51:00       98.521       63.301       53.145       36.726       31.514       32.912     1348.833      993.156     1083.210        0.998        0.171      117.105       22.089        0.036      336.892        8.498      857.548
12/04/2014  04:52:00       79.600       49.583       54.286       42.667       43.107       42.185     1820.498     1858.180     1779.564        0.860        0.273       93.780       36.896        0.155      336.838        8.407      857.571
12/04/2014  04:53:00       10.246       16.731       35.847       23.043       37.932       20.489      530.993     1438.855      419.818        0.203        0.119       19.619       17.253        0.773      336.865        8.453      857.581
12/04/2014  04:54:00       43.589       10.625       12.503       15.689       16.044       15.781      246.143      257.398      249.049        0.146        0.038       44.866        8.985        0.040      336.857        8.440      857.584
12/04/2014  04:55:00      -18.753        1.000        9.999       40.936       16.772       15.608     1675.787      281.303      243.608        0.133        0.110       18.780       19.479        1.076      336.885        8.487      857.600
12/04/2014  04:56:00      -41.838      -11.072       -6.965       14.267       14.425        9.692      203.560      208.085       93.938        0.121        0.025       43.278        7.076        0.027      336.849        8.426      857.621
12/04/2014  04:57:00      -45.007      -30.279       -1.754       15.045       12.306        8.719      226.342      151.450       76.024        0.170        0.023       54.245        7.633        0.020      336.795        8.337      857.630
12/04/2014  04:58:00      -34.881      -28.605        0.584       37.873       15.778       14.199     1434.363      248.938      201.598        0.196        0.094       45.111       19.739        0.191      336.856        8.438      857.637
12/04/2014  04:59:00      -44.718      -20.765        5.601       35.935       26.736       17.781     1291.294      714.821      316.179        0.239        0.116       49.304       17.485        0.126      336.938        8.574      857.637
12/04/2014  05:00:00      -35.111      -43.236        5.271       20.258       24.031       10.792      410.389      577.494      116.462        0.212        0.055       55.696        9.657        0.030      337.030        8.727      857.622
12/04/2014  05:01:00      -43.773      -19.165        5.397       17.567       19.236       13.835      308.615      370.034      191.399        0.159        0.044       47.785       11.916        0.062      337.022        8.715      857.622
12/04/2014  05:02:00      -69.192      -37.688       -0.338       32.964       32.274       13.733     1086.649     1041.642      188.608        0.426        0.116       78.790       12.371        0.025      337.024        8.717      857.619
12/04/2014  05:03:00      -86.417      -33.635        3.667       32.002       21.909       17.780     1024.130      480.000      316.115        0.522        0.091       92.732       16.534        0.032      337.037        8.740      857.614
12/04/2014  05:04:00      -95.275      -40.161       -3.492       28.185       25.833       17.068      794.372      667.330      291.311        0.623        0.088      103.393       12.309        0.014      337.023        8.717      857.614
12/04/2014  05:05:00     -109.150      -30.504        0.562       39.493       28.329       18.041     1559.675      802.548      325.462        0.777        0.134      113.332       17.955        0.025      336.936        8.570      857.609
12/04/2014  05:06:00     -128.419      -47.291        4.736       30.009       24.442       17.543      900.547      597.407      307.773        1.028        0.090      136.850       17.819        0.017      336.929        8.560      857.607
12/04/2014  05:07:00      -91.234      -38.082        1.884       40.075       27.885       20.477     1606.010      777.595      419.310        0.629        0.140       98.863       20.571        0.043      336.890        8.495      857.608
12/04/2014  05:08:00     -131.256      -50.512        0.244       25.327       22.019       15.562      641.450      484.831      242.190        1.057        0.068      140.640       13.130        0.009      336.902        8.514      857.610
12/04/2014  05:09:00     -107.985      -54.081        3.393       34.274       23.421       17.820     1174.703      548.534      317.561        0.832        0.102      120.771       18.275        0.023      336.895        8.503      857.628
12/04/2014  05:10:00      -90.205      -47.795        4.645       36.184       28.386       17.959     1309.294      805.753      322.517        0.644        0.122      102.085       16.438        0.026      336.901        8.512      857.645
12/04/2014  05:11:00     -120.672      -32.984       -6.538       27.640       32.167       19.806      763.966     1034.724      392.268        0.894        0.110      125.099       14.660        0.014      336.936        8.572      857.656
12/04/2014  05:12:00      -70.404      -32.741        3.247       44.810       22.498       18.261     2007.946      506.140      333.463        0.444        0.142       77.645       21.420        0.076      336.886        8.487      857.665
12/04/2014  05:13:00      -64.897      -15.025        3.372       41.052       27.897       17.581     1685.241      778.263      309.077        0.361        0.139       66.614       15.658        0.055      336.785        8.321      857.668
12/04/2014  05:14:00      -72.865      -24.676       -0.260       31.303       38.503       18.327      979.905     1482.445      335.889        0.436        0.140       76.930       18.442        0.057      336.799        8.343      857.664
12/04/2014  05:15:00      -54.965       -9.503        4.679       35.330       21.859       14.552     1248.234      477.796      211.762        0.254        0.097       55.781       16.173        0.084      336.706        8.190      857.648
12/04/2014  05:16:00      -76.136      -10.868       -1.785       19.367       17.985       12.487      375.097      323.443      155.933        0.339        0.043       76.907       10.509        0.019      336.700        8.178      857.631
12/04/2014  05:17:00      -70.196       -7.205       -3.048       26.977       16.857       15.009      727.750      284.152      225.262        0.311        0.062       70.565       15.417        0.048      336.650        8.095      857.612
12/04/2014  05:18:00      -93.510        7.404       -5.124       37.125       21.390       18.604     1378.269      457.516      346.094        0.550        0.109       93.803       18.624        0.039      336.676        8.139      857.592
12/04/2014  05:19:00     -119.967      -17.408      -15.446       20.275       15.082       11.670      411.074      227.458      136.200        0.785        0.039      121.223        8.581        0.005      336.677        8.140      857.595
12/04/2014  05:20:00     -115.432      -44.083       -6.431       19.934       19.147       11.942      397.379      366.603      142.618        0.811        0.045      123.563        8.470        0.005      336.499        7.842      857.605
12/04/2014  05:21:00      -98.367      -40.483      -11.104       30.316       24.880       20.079      919.053      619.017      403.156        0.669        0.097      106.372       19.530        0.034      336.422        7.712      857.633
12/04/2014  05:22:00     -103.385      -46.573       -4.555       21.073       20.636       14.309      444.087      425.864      204.741        0.698        0.054      113.391       12.462        0.012      336.347        7.588      857.657
12/04/2014  05:23:00     -113.180       -4.982      -11.631       28.387       18.893       16.474      805.813      356.957      271.403        0.720        0.072      113.290       14.468        0.016      336.393        7.664      857.658
12/04/2014  05:24:00      -77.274        3.084       -9.705       15.758       16.247       10.088      248.322      263.954      101.773        0.334        0.031       77.335        6.116        0.006      336.458        7.772      857.647
12/04/2014  05:25:00      -65.070       -2.115       -2.743       10.656       12.736       11.846      113.552      162.205      140.333        0.233        0.021       65.104        8.207        0.016      336.581        7.979      857.629
12/04/2014  05:26:00      -66.199       -0.777       -2.352       16.129       12.852       10.535      260.155      165.167      110.983        0.246        0.027       66.204        8.358        0.016      336.514        7.866      857.634
12/04/2014  05:27:00      -86.550       -7.054       -8.348       17.919       14.331       10.206      321.086      205.377      104.157        0.412        0.032       86.837        8.858        0.010      336.519        7.877      857.647
12/04/2014  05:28:00     -118.234      -21.823      -10.522       17.991       15.279       12.207      323.683      233.458      149.002        0.764        0.035      120.232        8.675        0.005      336.537        7.907      857.668
12/04/2014  05:29:00     -107.362      -28.029       -7.982       30.387       23.239       17.045      923.392      540.066      290.535        0.706        0.088      110.960       15.344        0.019      336.450        7.759      857.694
12/04/2014  05:30:00     -124.173       -0.014       -5.998       47.424       32.439       26.902     2249.004     1052.301      723.693        0.974        0.201      124.173       26.079        0.044      336.319        7.540      857.711
12/04/2014  05:31:00     -187.346       63.575      -10.509       50.065       32.441       27.947     2506.482     1052.399      781.020        2.179        0.217      197.839       22.478        0.013      336.383        7.646      857.710
12/04/2014  05:32:00     -147.876       37.264      -13.427       39.980       40.392       25.261     1598.371     1631.551      638.118        1.365        0.193      152.499       17.304        0.013      336.326        7.554      857.708
12/04/2014  05:33:00     -157.588        1.678      -15.555       46.275       53.239       25.174     2141.421     2834.398      633.748        1.534        0.280      157.597       24.429        0.024      336.365        7.618      857.705
12/04/2014  05:34:00     -157.877       15.707      -19.502       43.172       44.529       28.624     1863.806     1982.820      819.330        1.511        0.233      158.656       24.153        0.023      336.388        7.655      857.725
12/04/2014  05:35:00     -111.927       -5.254      -12.318       47.194       34.698       26.657     2227.294     1203.945      710.592        0.842        0.207      112.050       22.391        0.040      336.364        7.616      857.726
12/04/2014  05:36:00     -157.199       -0.606      -18.109       52.383       54.843       26.608     2744.011     3007.706      707.995        1.575        0.323      157.200       20.292        0.017      336.368        7.622      857.734
12/04/2014  05:37:00     -172.169      -12.760      -19.211       50.635       39.681       29.474     2563.934     1574.596      868.709        1.759        0.250      172.641       25.776        0.022      336.384        7.649      857.746
12/04/2014  05:38:00     -166.194      -20.249      -18.478       39.039       43.620       21.371     1524.056     1902.688      456.719        1.613        0.194      167.423       19.846        0.014      336.356        7.603      857.763
12/04/2014  05:39:00     -135.252      -42.769      -15.931       60.825       42.787       32.553     3699.681     1830.735     1059.698        1.348        0.330      141.853       28.219        0.040      336.342        7.578      857.771
12/04/2014  05:40:00     -161.749       -6.320      -16.843       44.355       41.323       26.199     1967.409     1707.602      686.382        1.542        0.218      161.873       23.501        0.021      336.348        7.590      857.766
12/04/2014  05:41:00     -129.704      -17.820       -9.428       37.394       43.170       26.174     1398.326     1863.664      685.092        1.059        0.197      130.923       19.302        0.022      336.350        7.594      857.764
12/04/2014  05:42:00     -105.847       -8.060       -7.987       32.906       30.424       25.663     1082.785      925.637      658.610        0.700        0.133      106.153       18.699        0.031      336.286        7.484      857.764
12/04/2014  05:43:00     -150.665       17.307      -10.543       28.763       33.334       21.456      827.328     1111.178      460.379        1.275        0.120      151.655       19.040        0.016      336.305        7.517      857.766
12/04/2014  05:44:00     -164.833       12.195      -14.540       26.140       30.153       20.793      683.324      909.185      432.361        1.478        0.101      165.284       15.563        0.009      336.303        7.514      857.777
12/04/2014  05:45:00     -187.635       23.521      -19.871       18.883       22.274       14.419      356.562      496.135      207.895        1.861        0.053      189.103       10.013        0.003      336.361        7.610      857.788
12/04/2014  05:46:00     -191.115       -0.232      -21.055       35.731       26.983       17.604     1276.691      728.079      309.914        1.964        0.116      191.115       18.289        0.009      336.444        7.749      857.789
12/04/2014  05:47:00     -153.721      -37.610      -15.169       59.536       31.388       31.109     3544.568      985.177      967.796        1.539        0.275      158.255       29.339        0.034      336.457        7.771      857.799
12/04/2014  05:48:00     -172.076      -32.665       -4.821       65.780       59.149       30.881     4327.004     3498.554      953.626        1.974        0.439      175.149       33.217        0.036      336.509        7.857      857.823
12/04/2014  05:49:00     -171.209      -46.885      -14.121       52.287       51.040       28.038     2733.982     2605.039      786.153        1.892        0.306      177.513       21.632        0.015      336.526        7.888      857.857
12/04/2014  05:50:00     -152.120      -65.987       -0.396       49.014       44.418       27.728     2402.390     1972.959      768.818        1.632        0.257      165.816       27.222        0.027      336.506        7.853      857.877
12/04/2014  05:51:00     -161.307      -44.112      -10.640       51.789       37.611       26.078     2682.104     1414.595      680.072        1.643        0.239      167.229       25.212        0.023      336.515        7.870      857.887
12/04/2014  05:52:00     -191.348      -50.082       -0.731       58.779       51.617       36.190     3454.967     2664.308     1309.747        2.327        0.371      197.794       34.409        0.030      336.581        7.978      857.910
12/04/2014  05:53:00     -132.185      -63.575        3.736       89.946       57.922       34.023     8090.329     3354.930     1157.581        1.706        0.630      146.679       44.284        0.091      336.577        7.974      857.913
12/04/2014  05:54:00     -135.789      -27.338       -3.163       38.835       55.831       28.671     1508.164     3117.138      822.000        1.232        0.272      138.514       24.499        0.031      336.571        7.964      857.915
12/04/2014  05:55:00     -138.272        7.523       -6.295       40.923       55.224       30.205     1674.720     3049.730      912.357        1.242        0.282      138.476       23.305        0.028      336.568        7.959      857.922
12/04/2014  05:56:00     -113.471      -52.564       -1.345       66.877       50.889       32.262     4472.588     2589.713     1040.837        1.187        0.405      125.055       31.270        0.063      336.647        8.089      857.929
12/04/2014  05:57:00      -72.898      -19.918        9.254       55.791       55.590       27.626     3112.633     3090.208      763.176        0.638        0.348       75.570       34.475        0.208      336.617        8.040      857.942
12/04/2014  05:58:00     -164.450      -36.204      -20.309       32.222       31.958       24.030     1038.257     1021.317      577.424        1.570        0.132      168.388       13.976        0.007      336.646        8.089      857.956
12/04/2014  05:59:00     -101.242      -43.385       -5.361       41.534       30.173       19.898     1725.055      910.402      395.948        0.760        0.152      110.146       13.627        0.015      336.651        8.098      857.968
12/04/2014  06:00:00      -85.511      -22.996       -6.562       45.299       22.126       18.004     2052.020      489.541      324.149        0.537        0.143       88.549       15.676        0.031      336.648        8.092      857.972
12/04/2014  06:01:00      -92.681      -37.060       -9.625       54.947       27.669       21.879     3019.153      765.575      478.684        0.716        0.213       99.816       25.813        0.067      336.622        8.049      857.980
12/04/2014  06:02:00     -102.225      -13.863       -6.290       29.693       24.080       14.956      881.693      579.848      223.691        0.618        0.084      103.160       12.318        0.014      336.552        7.931      858.005
12/04/2014  06:03:00      -88.772      -14.470       -1.193       36.695       24.902       20.179     1346.548      620.109      407.178        0.523        0.119       89.944       17.454        0.038      336.628        8.059      858.031
12/04/2014  06:04:00     -117.896      -32.535      -15.725       26.835       23.222       17.539      720.091      539.273      307.609        0.839        0.078      122.303       10.157        0.007      336.621        8.046      858.035
12/04/2014  06:05:00      -90.010      -29.528      -14.589       28.005       33.529       24.733      784.304     1124.208      611.724        0.585        0.126       94.730       14.912        0.025      336.623        8.049      858.043
12/04/2014  06:06:00      -94.198      -41.699       -7.519       45.128       25.294       21.193     2036.501      639.796      449.123        0.690        0.156      103.014       16.972        0.027      336.605        8.021      858.046
12/04/2014  06:07:00      -64.301      -35.613        2.551       26.887       23.339       15.324      722.910      544.713      234.815        0.346        0.075       73.504       15.772        0.046      336.592        7.997      858.049
12/04/2014  06:08:00      -55.795      -16.450       -0.181       17.213       19.422       12.498      296.271      377.211      156.200        0.211        0.041       58.170        7.436        0.016      336.606        8.022      858.061
12/04/2014  06:09:00      -63.778       -9.250       -7.703       20.152       20.079       14.264      406.096      403.164      203.465        0.261        0.051       64.445       11.198        0.030      336.534        7.901      858.078
12/04/2014  06:10:00      -63.635       -5.404       -6.145       19.783       15.496        9.622      391.364      240.119       92.573        0.242        0.036       63.864        8.241        0.017      336.513        7.868      858.082
12/04/2014  06:11:00      -89.273       18.015       -6.696       15.959       12.980       10.113      254.699      168.471      102.283        0.443        0.026       91.072        8.664        0.009      336.492        7.831      858.086
12/04/2014  06:12:00     -111.573       17.698       -7.215       16.600       13.797        7.654      275.550      190.363       58.581        0.667        0.026      112.968        4.450        0.002      336.469        7.792      858.092
12/04/2014  06:13:00     -124.100        9.331      -12.726       22.883       15.785       12.618      523.614      249.178      159.224        0.829        0.047      124.451       11.853        0.009      336.482        7.812      858.104
12/04/2014  06:14:00     -128.049        8.009      -14.604       18.917       28.272       13.503      357.841      799.304      182.319        0.901        0.067      128.299        8.568        0.004      336.413        7.697      858.111
12/04/2014  06:15:00     -167.390        7.279      -14.825       42.108       24.922       16.847     1773.124      621.098      283.827        1.548        0.134      167.549       14.901        0.008      336.488        7.825      858.122
12/04/2014  06:16:00     -133.710       -9.548      -12.635       44.594       28.026       17.453     1988.613      785.480      304.619        1.060        0.154      134.051       19.813        0.022      336.455        7.769      858.132
12/04/2014  06:17:00     -138.781        2.699      -14.909       29.826       22.994       15.486      889.563      528.718      239.820        1.057        0.083      138.807        8.934        0.004      336.400        7.676      858.152
12/04/2014  06:18:00      -90.545      -39.850       -6.372       32.464       30.986       23.621     1053.939      960.119      557.959        0.620        0.129       98.926       17.620        0.032      336.374        7.635      858.169
12/04/2014  06:19:00      -93.687      -35.800       -9.911       29.978       24.373       15.931      898.708      594.052      253.795        0.595        0.087      100.294       13.252        0.017      336.357        7.604      858.192
12/04/2014  06:20:00      -98.396      -50.409        2.579       27.331       37.088       23.706      746.958     1375.508      561.975        0.746        0.134      110.558       12.472        0.013      336.436        7.736      858.210
12/04/2014  06:21:00      -94.303      -48.344      -13.983       27.741       25.807       15.574      769.537      665.980      242.561        0.655        0.084      105.972        9.489        0.008      336.454        7.766      858.223
12/04/2014  06:22:00      -98.704      -49.732        3.063       36.631       33.640       23.152     1341.832     1131.627      536.032        0.762        0.150      110.525       16.398        0.022      336.437        7.737      858.239
12/04/2014  06:23:00     -116.162      -47.346       -5.202       23.847       23.071       15.736      568.691      532.289      247.607        0.856        0.067      125.441       10.483        0.007      336.467        7.789      858.254
12/04/2014  06:24:00     -109.524      -57.866       -1.984       32.070       36.452       20.769     1028.471     1328.730      431.335        0.907        0.139      123.870       20.009        0.026      336.496        7.837      858.273
12/04/2014  06:25:00     -105.296      -52.007       -2.248       31.066       31.563       20.608      965.126      996.224      424.675        0.809        0.119      117.439       19.817        0.028      336.495        7.834      858.297
12/04/2014  06:26:00      -83.203      -48.901       -0.180       35.969       28.711       21.066     1293.738      824.341      443.758        0.594        0.128       96.509       20.303        0.044      336.514        7.868      858.316
12/04/2014  06:27:00     -105.700      -48.187        0.596       36.458       24.564       17.769     1329.178      603.371      315.721        0.787        0.112      116.165       19.736        0.029      336.550        7.929      858.328
12/04/2014  06:28:00      -81.643      -57.645       -0.753       39.227       26.476       21.917     1538.788      700.958      480.347        0.635        0.136       99.943       24.661        0.061      336.542        7.915      858.339
12/04/2014  06:29:00     -109.153      -50.161       -4.393       34.408       34.711       20.562     1183.912     1204.834      422.814        0.863        0.141      120.127       11.917        0.010      336.571        7.964      858.349
12/04/2014  06:30:00      -99.374      -38.893       -1.598       41.265       46.648       22.193     1702.806     2176.009      492.526        0.788        0.219      106.714       22.700        0.045      336.602        8.016      858.363
12/04/2014  06:31:00      -90.887      -57.591       -5.199       33.634       24.910       17.094     1131.227      620.508      292.194        0.682        0.102      107.597       16.621        0.024      336.622        8.050      858.375
12/04/2014  06:32:00      -34.525      -46.366        5.383       38.000       36.155       16.316     1444.014     1307.163      266.223        0.319        0.151       57.809       17.946        0.096      336.626        8.056      858.392
12/04/2014  06:33:00      -92.199      -77.355      -10.922       17.527       27.628       18.963      307.192      763.316      359.590        0.802        0.072      120.352        9.367        0.006      336.631        8.063      858.411
12/04/2014  06:34:00      -52.792      -51.762       -9.030       30.274       22.944       16.757      916.489      526.419      280.813        0.364        0.086       73.934       13.889        0.035      336.748        8.260      858.429
12/04/2014  06:35:00       -3.337      -32.204        5.855       19.582       23.923       16.530      383.457      572.319      273.225        0.116        0.061       32.377        9.948        0.094      336.681        8.149      858.447
12/04/2014  06:36:00      -59.159      -83.768        5.131       39.523       34.874       25.341     1562.038     1216.213      642.182        0.698        0.171      102.552       17.316        0.029      336.649        8.094      858.445
12/04/2014  06:37:00      -16.434      -71.190        1.563       41.869       47.242       18.160     1753.007     2231.816      329.786        0.483        0.216       73.062       19.944        0.075      336.461        7.779      858.444
12/04/2014  06:38:00      -71.389      -89.854        0.515       29.785       49.525       22.268      887.148     2452.765      495.847        0.850        0.192      114.761       19.627        0.029      336.466        7.787      858.435
12/04/2014  06:39:00      -54.475      -71.024        1.287       33.692       35.097       25.769     1135.128     1231.802      664.048        0.552        0.152       89.509       18.059        0.041      336.449        7.759      858.419
12/04/2014  06:40:00      -30.660      -46.384        3.258       37.234       29.836       19.874     1386.381      890.199      394.971        0.289        0.134       55.601       14.423        0.067      336.433        7.730      858.408
12/04/2014  06:41:00      -71.800      -65.408        5.872       52.431       39.559       27.775     2748.986     1564.883      771.451        0.728        0.254       97.126       26.223        0.073      336.463        7.780      858.393
12/04/2014  06:42:00      -64.813      -36.514        2.969       54.484       28.785       25.288     2968.458      828.561      639.464        0.499        0.222       74.390       26.904        0.131      336.478        7.806      858.385
12/04/2014  06:43:00      -78.735      -19.229      -11.227       22.932       16.199       12.423      525.881      262.408      154.343        0.382        0.047       81.049       10.753        0.018      336.466        7.786      858.377
12/04/2014  06:44:00      -50.493      -23.835        4.359       19.263       19.894       13.082      371.045      395.754      171.151        0.204        0.047       55.835       10.174        0.033      336.483        7.814      858.360
12/04/2014  06:45:00      -84.591       16.435       -5.766       17.860       21.257       13.243      318.986      451.853      175.389        0.420        0.047       86.172       10.410        0.015      336.445        7.750      858.348
12/04/2014  06:46:00      -71.435       46.940       -7.639       22.405       25.406       18.759      501.997      645.470      351.913        0.443        0.075       85.477        9.234        0.012      336.419        7.709      858.335
12/04/2014  06:47:00      -78.228       25.874       -3.345       22.879       11.651       15.205      523.438      135.744      231.190        0.385        0.045       82.396       13.041        0.025      336.454        7.764      858.325
12/04/2014  06:48:00      -74.958       53.731      -11.211       31.952       34.299       22.694     1020.937     1176.427      515.020        0.567        0.136       92.226       21.375        0.054      336.452        7.762      858.311
12/04/2014  06:49:00      -72.021       47.465      -14.892       21.329       19.776       11.581      454.945      391.075      134.121        0.432        0.049       86.255        7.900        0.008      336.525        7.884      858.292
12/04/2014  06:50:00      -86.282       45.959      -14.524       20.990       29.047       17.385      440.597      843.710      302.243        0.568        0.079       97.759       10.431        0.011      336.610        8.029      858.283
12/04/2014  06:51:00      -82.501        6.009      -12.258       29.306       39.669       22.265      858.827     1573.643      495.728        0.496        0.146       82.719        9.869        0.014      336.500        7.845      858.289
12/04/2014  06:52:00      -85.725       21.085      -11.064       32.764       35.257       22.593     1073.478     1243.062      510.427        0.537        0.141       88.280       14.393        0.027      336.555        7.936      858.294
12/04/2014  06:53:00      -89.223       -5.973       -8.483       28.800       18.613       17.582      829.414      346.427      309.132        0.478        0.074       89.422        9.204        0.011      336.583        7.983      858.299
12/04/2014  06:54:00      -73.389       -1.663       -9.124       21.410       15.998       14.840      458.368      255.939      220.228        0.320        0.047       73.408        5.762        0.006      336.564        7.951      858.307
12/04/2014  06:55:00      -71.878        8.138       -7.336       20.050       14.491       12.169      401.996      209.987      148.080        0.302        0.038       72.337        5.286        0.005      336.656        8.105      858.320
12/04/2014  06:56:00      -63.386        5.733      -12.572       28.969       14.612       15.323      839.222      213.513      234.806        0.275        0.064       63.645       16.692        0.069      336.643        8.086      858.326
12/04/2014  06:57:00      -75.517      -33.521       -7.813       32.432       19.245       16.348     1051.846      370.367      267.246        0.429        0.084       82.622        4.320        0.003      336.612        8.031      858.341
12/04/2014  06:58:00      -72.865       -1.086      -12.457       22.925       12.436       15.526      525.573      154.663      241.054        0.319        0.046       72.873       11.792        0.026      336.613        8.032      858.346
12/04/2014  06:59:00      -61.605        4.211      -11.510       29.261       19.970       12.538      856.235      398.807      157.208        0.268        0.071       61.749        6.004        0.009      336.606        8.022      858.336
12/04/2014  07:00:00      -77.605       24.318      -13.721       22.927       16.643       15.336      525.643      276.998      235.196        0.392        0.052       81.326        4.979        0.004      336.648        8.092      858.324
12/04/2014  07:01:00      -52.224       36.482      -11.484       25.937       27.308       15.818      672.730      745.745      250.204        0.293        0.083       63.704       16.667        0.068      336.722        8.216      858.302
12/04/2014  07:02:00      -25.499       68.408       -3.901       44.508       35.823       26.696     1980.930     1283.263      712.693        0.466        0.199       73.006       23.534        0.104      336.853        8.434      858.293
12/04/2014  07:03:00      -34.799       61.869       -7.117       40.271       31.039       23.937     1621.764      963.446      573.000        0.412        0.158       70.984       20.388        0.082      336.975        8.637      858.301
12/04/2014  07:04:00      -41.021       46.363       -5.097       30.060       29.680       19.092      903.577      880.912      364.492        0.300        0.107       61.905       16.035        0.067      337.020        8.714      858.324
12/04/2014  07:05:00      -40.247       11.936       -2.351       26.506       20.609       11.460      702.586      424.751      131.331        0.151        0.063       41.980        8.991        0.046      336.828        8.391      858.354
12/04/2014  07:06:00       -6.702       -7.313        6.765       18.668       15.974       10.570      348.506      255.178      111.730        0.043        0.036        9.920        9.081        0.838      336.767        8.292      858.379
12/04/2014  07:07:00        1.371        7.130        3.439       11.840       15.005        8.146      140.176      225.142       66.352        0.025        0.022        7.261        6.431        0.784      336.790        8.327      858.401
12/04/2014  07:08:00      -16.217       42.464       -4.918       28.138       40.202       20.737      791.757     1616.233      430.006        0.246        0.142       45.455       18.594        0.167      336.899        8.509      858.407
12/04/2014  07:09:00      -65.628       24.750       -0.962       26.781       35.546       21.627      717.232     1263.550      467.726        0.368        0.122       70.140       11.567        0.027      336.855        8.437      858.405
12/04/2014  07:10:00      -22.493      -14.151        0.797       26.151       20.457       17.721      683.860      418.496      314.050        0.106        0.071       26.574       13.378        0.253      336.727        8.223      858.406
12/04/2014  07:11:00      -41.069        4.143        8.163       18.753       12.105       14.486      351.681      146.537      209.842        0.124        0.035       41.277       11.793        0.082      336.768        8.292      858.407
12/04/2014  07:12:00       26.760       21.669        7.557       21.879       14.775       16.839      478.685      218.303      283.558        0.111        0.049       34.433        9.257        0.072      336.522        7.881      858.412
12/04/2014  07:13:00       86.650       44.918       21.612       30.415       23.765       22.911      925.095      564.799      524.926        0.600        0.101       97.601       19.372        0.039      336.176        7.302      858.412
12/04/2014  07:14:00       49.766       49.008       52.576       30.347       31.208       28.495      920.954      973.911      811.950        0.517        0.135       69.846       19.575        0.079      336.128        7.222      858.405
12/04/2014  07:15:00       50.831       22.957       39.996       42.103       25.071       25.162     1772.659      628.531      633.137        0.387        0.152       55.775       23.667        0.180      336.159        7.273      858.417
12/04/2014  07:16:00       51.018       30.668       47.345       33.224       35.703       28.228     1103.816     1274.735      796.841        0.448        0.159       59.526       25.062        0.177      336.278        7.472      858.426
12/04/2014  07:17:00       19.665       34.040       47.040       26.926       21.984       12.492      725.023      483.293      156.058        0.256        0.068       39.312       10.282        0.068      336.251        7.427      858.431
12/04/2014  07:18:00       15.130      -33.165       18.736       31.617       49.245       38.852      999.622     2425.079     1509.509        0.331        0.247       36.454       34.314        0.886      336.263        7.447      858.438
12/04/2014  07:19:00       23.742      -11.738       17.293       39.343       36.619       28.646     1547.843     1340.937      820.579        0.235        0.185       26.485       17.855        0.454      336.343        7.581      858.448
12/04/2014  07:20:00       59.194      -63.691       -3.377       45.533       60.791       30.222     2073.215     3695.543      913.396        0.713        0.334       86.951       28.178        0.105      336.389        7.658      858.466
12/04/2014  07:21:00       41.792       -2.028       35.653       41.759       35.451       34.747     1743.808     1256.763     1207.369        0.361        0.210       41.841       22.615        0.292      336.371        7.626      858.489
12/04/2014  07:22:00       11.943       48.270       59.456       35.447       35.369       26.885     1256.474     1250.984      722.827        0.462        0.162       49.726       16.412        0.109      336.377        7.637      858.502
12/04/2014  07:23:00       20.453       46.025       74.577       35.579       38.328       22.618     1265.831     1469.018      511.593        0.567        0.162       50.365       17.315        0.118      336.362        7.612      858.498
12/04/2014  07:24:00       34.746       68.165       81.956       37.408       39.571       20.165     1399.342     1565.843      406.630        0.797        0.169       76.510       18.178        0.056      336.340        7.576      858.482
12/04/2014  07:25:00       44.734       63.237       64.580       43.285       36.505       30.175     1873.573     1332.648      910.509        0.714        0.206       77.460       22.669        0.086      336.359        7.607      858.465
12/04/2014  07:26:00       51.397       61.901       44.335       44.108       37.834       44.954     1945.476     1431.382     2020.895        0.692        0.270       80.457       31.185        0.150      336.377        7.638      858.463
12/04/2014  07:27:00       45.431       37.870       29.548       48.623       28.820       23.203     2364.232      830.607      538.382        0.405        0.187       59.145       21.850        0.136      336.376        7.636      858.474
12/04/2014  07:28:00       17.916       21.059       16.640       17.133       21.363       20.538      293.539      456.364      421.829        0.111        0.059       27.649        9.912        0.129      336.333        7.565      858.492
12/04/2014  07:29:00       87.162      -82.115       -0.456       35.780       30.700       22.226     1280.219      942.471      494.008        0.853        0.136      119.750       18.258        0.023      336.410        7.691      858.511
12/04/2014  07:30:00       63.421      -15.830       28.735       47.449       57.973       33.039     2251.383     3360.869     1091.587        0.590        0.335       65.367       43.376        0.440      336.404        7.681      858.530
12/04/2014  07:31:00       21.684       24.943       46.103       30.482       30.131       21.889      929.163      907.875      479.118        0.277        0.116       33.051       12.194        0.136      336.400        7.676      858.535
12/04/2014  07:32:00       42.628      -33.376       32.125       33.336       31.850       27.160     1111.319     1014.396      737.649        0.341        0.143       54.140       18.365        0.115      336.431        7.727      858.534
12/04/2014  07:33:00       35.888       44.733       50.173       37.931       37.266       30.474     1438.738     1388.749      928.669        0.478        0.188       57.349       25.168        0.193      336.410        7.693      858.541
12/04/2014  07:34:00       68.108       40.962       40.008       30.508       32.915       34.403      930.747     1083.424     1183.589        0.556        0.160       79.477       13.570        0.029      336.416        7.701      858.549
12/04/2014  07:35:00       78.300       31.224       18.991       22.675       22.270       20.820      514.169      495.971      433.455        0.445        0.072       84.296       16.343        0.038      336.376        7.638      858.564
12/04/2014  07:36:00       75.768       39.990       10.902       44.027       32.857       23.379     1938.401     1079.589      546.571        0.551        0.178       85.674       18.687        0.048      336.376        7.637      858.563
12/04/2014  07:37:00       52.526       33.121       22.217       32.954       19.218       21.258     1085.942      369.314      451.923        0.313        0.095       62.097       19.293        0.097      336.330        7.559      858.575
12/04/2014  07:38:00       54.664       36.585       30.668       28.833       22.105       20.899      831.351      488.625      436.780        0.351        0.088       65.777       16.940        0.066      336.318        7.539      858.585
12/04/2014  07:39:00       33.348       41.803       32.326       29.742       20.857       23.149      884.585      435.012      535.879        0.288        0.093       53.475       18.616        0.121      336.347        7.587      858.586
12/04/2014  07:40:00       29.452       37.432       49.446       22.947       22.578       10.993      526.557      509.786      120.852        0.294        0.058       47.629        9.712        0.042      336.341        7.578      858.593
12/04/2014  07:41:00        8.021       23.984       40.003       16.747       25.750       17.026      280.452      663.084      289.891        0.174        0.062       25.290        8.302        0.108      336.371        7.627      858.602
12/04/2014  07:42:00       18.582       44.564       48.267       20.889       29.486       12.337      436.347      869.395      152.197        0.306        0.073       48.283       11.010        0.052      336.318        7.540      858.618
12/04/2014  07:43:00       26.463       39.724       42.632       32.466       26.192       20.574     1054.027      686.047      423.304        0.313        0.108       47.731       18.167        0.145      336.335        7.568      858.641
12/04/2014  07:44:00       78.338       39.652       21.115       30.108       31.983       24.291      906.507     1022.919      590.053        0.534        0.126       87.802       13.765        0.025      336.284        7.482      858.659
12/04/2014  07:45:00       96.693       53.376       21.402       26.044       22.847       22.457      678.291      521.998      504.299        0.718        0.085      110.447       14.794        0.018      336.281        7.478      858.671
12/04/2014  07:46:00       85.163       56.393       15.924       28.928       18.120       22.844      836.809      328.319      521.845        0.619        0.084      102.142       20.888        0.042      336.296        7.502      858.670
12/04/2014  07:47:00       79.907       47.235        7.833       19.792       18.249       15.093      391.711      333.011      227.792        0.481        0.048       92.824        9.923        0.011      336.296        7.502      858.670
12/04/2014  07:48:00       75.660       42.894       -1.421       14.802       16.915       11.715      219.090      286.104      137.241        0.410        0.032       86.973        5.677        0.004      336.324        7.549      858.677
12/04/2014  07:49:00       28.778       11.206        8.367       28.357       16.184       15.371      804.133      261.937      236.257        0.116        0.065       30.882       11.080        0.129      336.412        7.697      858.674
12/04/2014  07:50:00       -2.796        4.683       14.986        4.791        4.910        5.760       22.952       24.106       33.178        0.017        0.004        5.454        2.190        0.161      336.516        7.871      858.675
12/04/2014  07:51:00      -17.377        3.986        0.686       12.494        5.767        4.937      156.110       33.253       24.376        0.027        0.011       17.828        4.577        0.066      336.409        7.689      858.682
12/04/2014  07:52:00      -53.681       -1.853       -0.241       15.302       10.710        7.764      234.157      114.698       60.277        0.165        0.020       53.713        7.548        0.020      336.360        7.608      858.694
12/04/2014  07:53:00      -46.470       -9.123       -3.823       24.057        9.129        9.983      578.755       83.339       99.668        0.151        0.038       47.357       10.016        0.045      336.465        7.783      858.725
12/04/2014  07:54:00      -47.008       11.713       -4.363       16.040       14.875       10.046      257.274      221.263      100.915        0.147        0.029       48.445        7.412        0.023      336.438        7.740      858.750
12/04/2014  07:55:00      -74.524       14.539       -5.084       19.083       14.552        9.463      364.177      211.754       89.554        0.323        0.033       75.929        5.760        0.006      336.478        7.806      858.767
12/04/2014  07:56:00      -61.699       22.139       -4.161       17.204        9.337        8.439      295.963       87.175       71.214        0.238        0.023       65.551        3.502        0.003      336.490        7.827      858.790
12/04/2014  07:57:00      -39.918        4.033       -4.985        6.568        9.380        8.223       43.140       87.987       67.611        0.092        0.010       40.121        4.935        0.015      336.529        7.892      858.809
12/04/2014  07:58:00      -45.387      -14.577       -3.794       10.448        9.733        7.555      109.165       94.730       57.083        0.127        0.013       47.670        3.536        0.006      336.549        7.927      858.836
12/04/2014  07:59:00      -30.406      -18.223      -13.151       12.787       12.248        9.409      163.515      150.002       88.531        0.092        0.020       35.448        5.526        0.024      336.667        8.124      858.867
12/04/2014  08:00:00      -42.832      -30.551       -3.890       25.150       15.729       10.797      632.527      247.390      116.566        0.189        0.050       52.611        2.869        0.003      336.695        8.171      858.900
12/04/2014  08:01:00      -48.301      -42.639        2.381       19.603       24.603       16.527      384.278      605.286      273.147        0.271        0.063       64.429       14.738        0.052      336.736        8.239      858.917
12/04/2014  08:02:00      -62.465      -57.843       -0.081       29.953       22.821       17.581      897.189      520.782      309.088        0.449        0.086       85.133       15.342        0.032      336.711        8.198      858.932
12/04/2014  08:03:00      -86.635      -63.749       -4.902       33.476       29.371       16.395     1120.646      862.652      268.789        0.692        0.113      107.562       14.179        0.017      336.718        8.210      858.928
12/04/2014  08:04:00     -121.292      -68.917       -5.625       25.638       35.323       19.200      657.321     1247.693      368.639        1.088        0.114      139.504       14.274        0.010      336.769        8.294      858.929
12/04/2014  08:05:00     -115.945      -83.243       -8.787       45.044       45.438       27.315     2028.975     2064.583      746.096        1.264        0.242      142.733       23.457        0.027      336.743        8.250      858.918
12/04/2014  08:06:00     -117.689      -92.167       -6.126       51.413       31.598       30.263     2643.320      998.423      915.822        1.347        0.228      149.484       27.234        0.033      336.647        8.091      858.905
12/04/2014  08:07:00     -102.808      -47.153       -0.135       38.955       33.311       16.663     1517.469     1109.590      277.647        0.785        0.145      113.106       12.762        0.013      336.654        8.102      858.887
12/04/2014  08:08:00     -112.806      -26.660      -11.054       31.713       28.009       20.328     1005.739      784.494      413.214        0.788        0.110      115.914       17.451        0.023      336.556        7.939      858.878
12/04/2014  08:09:00     -118.025      -30.082       -9.048       39.955       31.934       20.591     1596.394     1019.811      423.970        0.898        0.152      121.798       15.461        0.016      336.595        8.002      858.880
12/04/2014  08:10:00     -111.390      -35.555      -11.314       33.759       21.622       17.067     1139.651      467.502      291.296        0.785        0.095      116.927       13.305        0.013      336.579        7.977      858.878
12/04/2014  08:11:00     -129.333       -9.353       -1.123       47.952       25.672       25.095     2299.353      659.071      629.770        1.020        0.179      129.671       23.971        0.034      336.534        7.901      858.872
12/04/2014  08:12:00     -134.016      -15.206      -18.472       35.841       28.657       13.706     1284.548      821.250      187.845        1.041        0.115      134.875       15.348        0.013      336.529        7.895      858.865
12/04/2014  08:13:00      -96.744      -14.932      -11.428       20.754       21.206       11.768      430.710      449.711      138.490        0.537        0.051       97.889        6.737        0.005      336.578        7.976      858.849
12/04/2014  08:14:00      -87.888       -5.029       -4.972       27.547       32.394       17.838      758.824     1049.394      318.189        0.495        0.106       88.031       14.202        0.026      336.566        7.953      858.838
12/04/2014  08:15:00     -103.179       -0.779       -9.531       22.726       33.195       17.137      516.462     1101.929      293.677        0.632        0.096      103.182        8.962        0.008      336.570        7.961      858.831
12/04/2014  08:16:00      -90.861      -13.066       -9.161       30.391       30.034       18.117      923.621      902.057      328.214        0.533        0.108       91.795        9.853        0.012      336.557        7.941      858.827
12/04/2014  08:17:00      -86.327      -11.896      -11.347       18.433       20.305       14.289      339.768      412.292      204.177        0.434        0.048       87.143       11.228        0.017      336.593        7.999      858.839
12/04/2014  08:18:00     -115.911       12.355      -14.995       19.964       18.202        8.538      398.564      331.326       72.899        0.731        0.040      116.568        6.728        0.003      336.589        7.993      858.861
12/04/2014  08:19:00      -95.283      -22.564       -8.097       43.723       20.645       15.915     1911.732      426.207      253.272        0.612        0.130       97.918       15.559        0.025      336.563        7.951      858.886
12/04/2014  08:20:00     -134.027      -29.188      -10.699       29.056       22.962       15.920      844.226      527.247      253.455        1.028        0.081      137.169       11.676        0.007      336.596        8.005      858.890
12/04/2014  08:21:00     -101.219      -39.280       -3.881       25.664       20.139       16.738      658.658      405.592      280.148        0.657        0.067      108.573       14.881        0.019      336.619        8.044      858.895
12/04/2014  08:22:00      -71.644      -15.695       -4.173       28.942       25.464       15.664      837.639      648.394      245.372        0.356        0.087       73.343       17.672        0.058      336.629        8.060      858.894
12/04/2014  08:23:00      -71.779      -20.562       -4.038       29.263       21.037       15.532      856.307      442.571      241.244        0.357        0.077       74.666       15.535        0.043      336.648        8.092      858.916
12/04/2014  08:24:00      -58.959       12.531       -7.929       19.054       16.986       12.610      363.044      288.530      159.020        0.225        0.041       60.276        8.604        0.020      336.654        8.102      858.922
12/04/2014  08:25:00      -98.999        3.334      -11.502       23.751       13.279       11.559      564.130      176.344      133.609        0.541        0.044       99.055        9.059        0.008      336.673        8.135      858.932
12/04/2014  08:26:00      -59.414      -21.217      -10.053       17.997       16.459        9.434      323.905      270.883       88.999        0.238        0.034       63.088        8.267        0.017      336.765        8.287      858.951
12/04/2014  08:27:00       -4.036      -27.097        4.254        9.013       20.006        8.525       81.228      400.245       72.671        0.066        0.028       27.396        5.069        0.034      336.835        8.405      858.967
12/04/2014  08:28:00       -9.591      -49.604       -1.404       17.455       21.052       12.537      304.689      443.171      157.168        0.173        0.045       50.523       11.736        0.054      336.802        8.350      858.994
12/04/2014  08:29:00      -27.422      -15.333        8.826       35.709       20.935       17.718     1275.152      438.284      313.913        0.155        0.101       31.418       15.067        0.230      336.807        8.358      859.023
12/04/2014  08:30:00      -23.211      -37.026        7.028       30.950       25.993       16.811      957.878      675.642      282.620        0.194        0.096       43.700       18.306        0.175      336.772        8.299      859.047
12/04/2014  08:31:00      -63.680      -32.906        4.218       48.195       33.080       19.733     2322.753     1094.318      389.393        0.448        0.190       71.679       18.139        0.064      336.747        8.258      859.053
12/04/2014  08:32:00      -14.991        8.017       13.814       21.950       26.257       23.099      481.812      689.455      533.566        0.109        0.085       17.000       17.873        1.105      336.814        8.368      859.052
12/04/2014  08:33:00       -7.894        6.295       15.235       24.842       24.157       15.702      617.112      583.565      246.555        0.089        0.072       10.097       16.459        2.657      336.843        8.417      859.036
12/04/2014  08:34:00      -44.669      -23.366        6.146       30.281       26.585       20.490      916.922      706.768      419.821        0.231        0.102       50.411       21.131        0.176      336.777        8.308      859.018
12/04/2014  08:35:00      -56.456      -29.980       -2.204       22.982       17.041       14.829      528.153      290.403      219.898        0.256        0.052       63.923       11.564        0.033      336.785        8.321      859.016
12/04/2014  08:36:00      -34.297      -17.045        4.202       22.618       20.993       15.138      511.571      440.725      229.156        0.133        0.059       38.299       17.259        0.203      336.810        8.362      859.013
12/04/2014  08:37:00      -35.082      -18.580        6.674       26.563       18.422       15.391      705.574      339.364      236.879        0.145        0.064       39.699        9.709        0.060      336.826        8.389      859.020
12/04/2014  08:38:00      -27.731      -25.623        4.677       29.751       25.435       17.254      885.145      646.950      297.698        0.164        0.091       37.757       14.422        0.146      336.928        8.560      859.041
12/04/2014  08:39:00      -38.365      -11.123        9.249       20.298       20.480       14.177      411.997      419.413      200.974        0.136        0.052       39.945        7.952        0.040      336.940        8.578      859.042
12/04/2014  08:40:00      -47.275      -33.208        6.300       35.377       26.116       14.128     1251.536      682.041      199.588        0.275        0.107       57.773       10.963        0.036      336.895        8.503      859.046
12/04/2014  08:41:00      -82.081      -75.815        1.252       29.606       21.788       14.792      876.537      474.717      218.806        0.703        0.079      111.737       10.370        0.009      336.902        8.515      859.040
12/04/2014  08:42:00      -94.495      -71.644        0.015       27.818       27.117       17.276      773.828      735.316      298.471        0.793        0.090      118.584       15.706        0.018      336.886        8.487      859.025
12/04/2014  08:43:00      -60.342      -60.165       -2.299       18.984       47.458       15.048      360.404     2252.251      226.435        0.505        0.142       85.211       16.095        0.036      336.854        8.437      859.021
12/04/2014  08:44:00      -40.714       -4.445        1.938       13.662       15.501       10.076      186.651      240.273      101.520        0.110        0.026       40.956        9.112        0.050      336.985        8.653      859.014
12/04/2014  08:45:00      -58.375        0.985       -3.017       25.138       12.163       12.375      631.905      147.944      153.135        0.218        0.047       58.383       13.084        0.050      336.939        8.576      859.009
12/04/2014  08:46:00      -40.312       -0.336       -6.519        8.042        3.250        3.923       64.680       10.563       15.387        0.088        0.005       40.313        1.593        0.002      336.939        8.577      859.005
12/04/2014  08:47:00      -26.229       -2.096       -4.985        5.931        4.288        5.985       35.175       18.390       35.823        0.040        0.004       26.313        4.088        0.024      337.013        8.701      859.028
12/04/2014  08:48:00      -39.920      -25.534       -3.892       27.493       19.484       15.739      755.842      379.623      247.711        0.182        0.069       47.388       13.342        0.079      337.087        8.823      859.061
12/04/2014  08:49:00      -75.853      -50.475        6.477       46.062       38.060       26.395     2121.668     1448.536      696.673        0.630        0.213       91.112       22.878        0.063      337.108        8.860      859.091
12/04/2014  08:50:00     -106.303      -77.781       -3.669       29.391       33.471       23.709      863.858     1120.338      562.109        0.995        0.127      131.720       16.309        0.015      337.045        8.753      859.110
12/04/2014  08:51:00      -96.299      -80.264       -4.096       25.226       33.070       23.825      636.335     1093.615      567.621        0.901        0.115      125.363       17.119        0.019      337.053        8.766      859.106
12/04/2014  08:52:00     -105.947      -27.581        2.884       36.770       32.005       16.027     1352.033     1024.305      256.866        0.731        0.132      109.479       17.721        0.026      337.091        8.829      859.094
12/04/2014  08:53:00     -116.496      -25.590      -15.970       32.123       17.449       12.548     1031.908      304.453      157.444        0.799        0.075      119.274       11.086        0.009      337.101        8.849      859.088
12/04/2014  08:54:00      -45.785      -34.478       -3.134       27.681       20.416       10.783      766.253      416.822      116.265        0.230        0.065       57.315        9.035        0.025      337.173        8.968      859.104
12/04/2014  08:55:00     -110.082      -36.265       -7.665       32.127       22.393       13.401     1032.136      501.437      179.584        0.760        0.086      115.902       10.105        0.008      337.148        8.927      859.105
12/04/2014  08:56:00     -125.556      -67.760       -2.900       48.817       30.100       24.487     2383.137      905.999      599.605        1.213        0.194      142.674       26.500        0.034      337.150        8.929      859.095
12/04/2014  08:57:00      -98.142       -4.481       -2.374       50.461       44.201       27.049     2546.278     1953.770      731.635        0.744        0.262       98.244       21.210        0.047      337.218        9.043      859.105
12/04/2014  08:58:00     -130.879      -60.223       -8.019       33.613       38.473       22.701     1129.838     1480.182      515.338        1.197        0.156      144.070       20.315        0.020      337.082        8.816      859.115
12/04/2014  08:59:00     -111.163      -34.214      -10.215       41.561       41.010       21.898     1727.313     1681.836      479.510        0.876        0.194      116.309       18.525        0.025      337.086        8.822      859.121
12/04/2014  09:00:00      -43.693      -14.833        9.859       37.241       22.671       21.638     1386.896      513.968      468.203        0.230        0.118       46.142       19.585        0.180      337.320        9.216      859.118
12/04/2014  09:01:00      -88.781      -41.323       -0.438       22.498       26.212       21.081      506.166      687.062      444.403        0.561        0.082       97.927       11.699        0.014      337.168        8.962      859.123
12/04/2014  09:02:00      -57.679      -13.795      -12.873       22.144       14.684       15.083      490.351      215.629      227.495        0.231        0.047       59.306        8.692        0.021      337.200        9.014      859.114
12/04/2014  09:03:00      -40.570       19.271       -4.581       19.535       15.721       10.746      381.620      247.137      115.483        0.139        0.037       44.914        7.034        0.025      337.276        9.141      859.113
12/04/2014  09:04:00      -33.223        1.775       19.707       23.034       28.098       20.117      530.580      789.473      404.699        0.161        0.086       33.270       19.021        0.327      337.591        9.669      859.107
12/04/2014  09:05:00        6.728        6.111       24.324       14.936       16.426       15.703      223.082      269.810      246.582        0.071        0.037        9.089       12.168        1.792      338.185       10.665      859.122
12/04/2014  09:06:00      -21.258       28.647        7.364       27.515       26.297       15.609      757.074      691.530      243.644        0.151        0.085       35.672       12.853        0.130      337.739        9.916      859.144
12/04/2014  09:07:00      -55.160       19.515        1.255       10.522       11.231       12.230      110.720      126.136      149.582        0.191        0.019       58.510        5.370        0.008      337.491        9.500      859.182
12/04/2014  09:08:00      -21.555       -0.052       -4.363       11.751        6.992        7.281      138.086       48.894       53.019        0.036        0.012       21.555        5.537        0.066      337.630        9.732      859.223
12/04/2014  09:09:00      -37.211      -10.676       -5.912        9.563        7.236        6.669       91.452       52.353       44.482        0.086        0.009       38.712        2.023        0.003      337.499        9.512      859.251
12/04/2014  09:10:00       12.355      -32.836        4.935       43.731       37.344       20.845     1912.420     1394.566      434.507        0.250        0.187       35.084        7.967        0.052      337.716        9.879      859.268
12/04/2014  09:11:00       95.755      -77.287       -7.926       53.745       50.580       29.743     2888.527     2558.310      884.658        1.077        0.317      123.054       28.397        0.053      337.610        9.700      859.271
12/04/2014  09:12:00       33.457      -66.718       16.683       54.955       57.889       47.635     3020.059     3351.096     2269.107        0.724        0.432       74.637       40.745        0.298      337.798       10.017      859.265
12/04/2014  09:13:00       89.196       34.468       53.852       64.041       64.271       37.947     4101.297     4130.698     1439.982        1.086        0.484       95.624       37.531        0.154      337.710        9.868      859.258
12/04/2014  09:14:00       78.753       68.504       71.658       46.944       41.182       28.349     2203.731     1695.981      803.649        1.037        0.235      104.378       14.008        0.018      337.660        9.785      859.238
12/04/2014  09:15:00       91.793       78.339       74.175       81.121       49.377       42.673     6580.655     2438.048     1821.020        1.545        0.542      120.677       42.746        0.125      337.686        9.827      859.238
12/04/2014  09:16:00      106.487       61.658      102.778       79.196       75.935       46.436     6272.016     5766.174     2156.319        1.995        0.710      123.049       56.599        0.212      337.537        9.578      859.243
12/04/2014  09:17:00       40.062       77.208       71.457       53.947       57.256       46.772     2910.325     3278.241     2187.622        1.052        0.419       86.983       33.857        0.152      337.671        9.803      859.232
12/04/2014  09:18:00       30.476       66.513       81.778       45.806       37.697       31.957     2098.200     1421.055     1021.224        0.829        0.227       73.163       25.571        0.122      337.672        9.805      859.232
12/04/2014  09:19:00       65.035       16.582       54.359       72.562       93.319       59.972     5265.238     8708.371     3596.611        1.251        0.879       67.116       59.910        0.797      337.699        9.849      859.237
12/04/2014  09:20:00       58.485        5.143       56.437       50.828       73.553       52.846     2583.495     5410.114     2792.736        0.871        0.539       58.711       46.343        0.623      337.859       10.118      859.271
12/04/2014  09:21:00       43.022      -27.307       44.901       67.865       65.315       41.172     4605.608     4266.061     1695.114        0.759        0.528       50.956       34.433        0.457      337.709        9.867      859.299
12/04/2014  09:22:00        6.503      -22.269       35.626       43.491       57.336       33.607     1891.482     3287.385     1129.401        0.406        0.315       23.199       19.215        0.686      337.804       10.026      859.327
12/04/2014  09:23:00       64.906      -79.984        6.963       70.958       83.163       46.307     5035.022     6916.012     2144.352        1.237        0.705      103.006       53.543        0.270      337.687        9.830      859.347
12/04/2014  09:24:00       74.870      -57.302       -6.629       85.826      115.526       67.549     7366.051    13346.364     4562.894        1.710        1.264       94.282       74.976        0.632      337.567        9.627      859.346
12/04/2014  09:25:00       86.823      -73.691        3.069       78.653       80.836       43.882     6186.316     6534.399     1925.667        1.381        0.732      113.880       46.334        0.166      337.568        9.630      859.363
12/04/2014  09:26:00       67.548      -61.653       17.038       76.421       82.863       58.033     5840.231     6866.340     3367.869        1.236        0.804       91.454       63.185        0.477      337.616        9.709      859.387
12/04/2014  09:27:00       43.071       19.746       54.163       59.625       71.430       58.390     3555.189     5102.261     3409.435        0.862        0.603       47.382       41.378        0.763      337.613        9.706      859.411
12/04/2014  09:28:00       58.927      -57.992       28.914       72.461      104.471       71.629     5250.578    10914.110     5130.744        1.448        1.065       82.677       77.676        0.883      337.497        9.509      859.443
12/04/2014  09:29:00       69.742     -117.119       -5.302       66.605       67.574       49.895     4436.201     4566.193     2489.517        1.505        0.575      136.311       39.570        0.084      337.454        9.437      859.485
12/04/2014  09:30:00       28.704      -81.734       21.624       76.575       70.808       45.693     5863.662     5013.799     2087.826        1.047        0.648       86.628       48.991        0.320      337.614        9.706      859.514
12/04/2014  09:31:00      -21.838      -97.695       13.817       56.135       49.142       47.631     3151.113     2414.941     2268.735        0.902        0.392      100.106       39.549        0.156      337.630        9.735      859.538
12/04/2014  09:32:00       16.017       -3.093       39.738       28.319       50.371       37.642      801.954     2537.224     1416.910        0.330        0.238       16.313       18.347        1.265      337.781        9.985      859.554
12/04/2014  09:33:00      120.328      -57.507       12.506       68.822       79.587       45.796     4736.488     6334.047     2097.294        1.555        0.658      133.364       60.106        0.203      337.395        9.339      859.547
12/04/2014  09:34:00       63.323      -49.021       18.251       63.117       86.118       57.835     3983.814     7416.292     3344.871        1.074        0.737       80.080       66.325        0.686      337.487        9.494      859.553
12/04/2014  09:35:00       33.571       16.462       63.247       45.726       42.665       42.054     2090.853     1820.296     1768.510        0.554        0.284       37.390       22.436        0.360      337.623        9.723      859.546
12/04/2014  09:36:00        9.040      -12.500       40.297       23.559       66.009       41.185      555.044     4357.156     1696.164        0.423        0.330       15.426       49.003       10.090      337.703        9.856      859.545
12/04/2014  09:37:00       21.275      -19.224       37.620       39.573       68.416       35.430     1566.041     4680.723     1255.301        0.487        0.375       28.674       29.726        1.075      337.921       10.221      859.541
12/04/2014  09:38:00       -2.888       47.928       91.772       22.467       50.008       26.552      504.748     2500.770      704.989        0.722        0.186       48.014       30.242        0.397      337.828       10.066      859.540
12/04/2014  09:39:00      -13.588      -13.713       42.150       36.571       46.380       42.064     1337.408     2151.110     1769.363        0.370        0.263       19.305       34.375        3.171      337.735        9.911      859.549
12/04/2014  09:40:00       -4.962       26.408       31.955       30.835       38.186       34.763      950.825     1458.206     1208.473        0.268        0.181       26.870       32.456        1.459      337.751        9.936      859.541
12/04/2014  09:41:00       -6.685       58.750       84.393       23.901       47.060       30.341      571.271     2214.649      920.584        0.716        0.185       59.129       27.756        0.220      337.866       10.129      859.530
12/04/2014  09:42:00       22.976       63.028       92.219       40.869       44.209       23.295     1670.294     1954.435      542.666        0.859        0.208       67.085       26.371        0.155      337.759        9.950      859.511
12/04/2014  09:43:00       35.192        5.199       37.568       34.358       34.712       40.172     1180.494     1204.929     1613.817        0.334        0.200       35.574       20.180        0.322      337.938       10.250      859.501
12/04/2014  09:44:00       27.804       14.634       48.880       44.958       49.341       36.880     2021.258     2434.500     1360.137        0.460        0.291       31.420       25.430        0.655      337.906       10.197      859.508
12/04/2014  09:45:00       80.046      -59.566       -4.690       48.147       56.858       47.495     2318.153     3232.869     2255.782        0.889        0.390       99.777       48.158        0.233      337.748        9.931      859.499
12/04/2014  09:46:00       41.825        2.362       30.230       43.751       39.464       43.200     1914.132     1557.415     1866.282        0.400        0.267       41.892       36.605        0.764      338.026       10.397      859.504
12/04/2014  09:47:00       16.118       30.610       55.082       31.971       49.675       36.069     1022.166     2467.651     1300.952        0.451        0.240       34.594       35.163        1.033      337.992       10.342      859.511
12/04/2014  09:48:00       30.592       37.918       53.914       20.760       30.417       16.521      430.971      925.193      272.944        0.345        0.081       48.720       16.198        0.111      337.807       10.030      859.512
12/04/2014  09:49:00       65.921       60.532       64.598       42.448       44.069       27.657     1801.807     1942.077      764.917        0.834        0.225       89.497       22.223        0.062      337.798       10.015      859.521
12/04/2014  09:50:00       34.328      -28.973       28.885       45.101       80.338       36.580     2034.060     6454.183     1338.067        0.634        0.491       44.920       43.814        0.951      337.929       10.235      859.521
12/04/2014  09:51:00       16.904       27.979       59.089       37.347       42.513       31.659     1394.806     1807.324     1002.309        0.438        0.210       32.688       26.279        0.646      338.254       10.781      859.521
12/04/2014  09:52:00       69.986      -42.753       22.587       52.149       65.716       41.367     2719.538     4318.621     1711.188        0.799        0.437       82.011       45.970        0.314      337.897       10.183      859.518
12/04/2014  09:53:00       67.953        0.755       36.249       35.667       54.962       31.090     1272.151     3020.841      966.559        0.559        0.263       67.957       34.527        0.258      338.041       10.425      859.506
12/04/2014  09:54:00       92.636       51.718       37.660       30.898       26.927       34.979      954.715      725.070     1223.565        0.779        0.145      106.095       23.892        0.051      337.652        9.772      859.509
12/04/2014  09:55:00       56.629       57.833       44.826       36.372       24.312       28.495     1322.933      591.084      811.972        0.564        0.136       80.941       19.403        0.057      337.762        9.954      859.497
12/04/2014  09:56:00       59.690       63.675       59.463       53.748       40.342       46.180     2888.826     1627.440     2132.602        0.890        0.332       87.278       38.554        0.195      337.712        9.870      859.490
12/04/2014  09:57:00       86.093       54.874       26.190       47.620       40.006       33.008     2267.624     1600.460     1089.516        0.803        0.248      102.094       27.737        0.074      337.775        9.977      859.478
12/04/2014  09:58:00       87.456       99.033       66.518       40.720       29.111       37.977     1658.082      847.467     1442.288        1.291        0.197      132.122       20.058        0.023      337.864       10.125      859.482
12/04/2014  09:59:00      124.790       83.783       32.960       33.006       22.795       30.750     1089.376      519.603      945.543        1.312        0.128      150.307       10.906        0.005      337.683        9.821      859.488
12/04/2014  10:00:00       85.545       49.446       35.642       59.941       35.779       34.483     3592.968     1280.143     1189.100        0.855        0.303       98.807       23.977        0.059      337.748        9.931      859.493
12/04/2014  10:01:00       11.335       54.215       60.202       29.756       35.115       26.799      885.434     1233.086      718.174        0.476        0.142       55.387       26.180        0.223      338.156       10.616      859.506
12/04/2014  10:02:00        6.170       23.779       30.156       24.208       47.157       25.841      586.016     2223.772      667.768        0.249        0.174       24.566       21.365        0.756      338.169       10.638      859.520
12/04/2014  10:03:00       19.908      -13.947       17.028       26.896       41.326       34.338      723.396     1707.851     1179.094        0.224        0.181       24.307       33.673        1.919      338.208       10.702      859.549
12/04/2014  10:04:00        1.420      -12.249       11.388       32.915       20.360       29.071     1083.368      414.536      845.102        0.131        0.117       12.331       11.327        0.844      338.068       10.469      859.570
12/04/2014  10:05:00       14.782       16.332       31.156       17.348       11.672       11.660      300.944      136.225      135.951        0.101        0.029       22.028        6.283        0.081      338.152       10.608      859.582
12/04/2014  10:06:00       -1.382       60.258       39.403       18.679       30.010       30.721      348.887      900.595      943.781        0.369        0.110       60.274       22.844        0.144      337.939       10.251      859.564
12/04/2014  10:07:00       20.596       46.375       -4.100       27.460       39.372       17.170      754.073     1550.193      294.801        0.259        0.130       50.743        6.806        0.018      337.962       10.292      859.560
12/04/2014  10:08:00       17.418       54.971      -10.329       25.978       33.482       19.814      674.844     1121.049      392.600        0.281        0.109       57.664       15.808        0.075      337.943       10.258      859.550
12/04/2014  10:09:00       15.924       72.181       -2.317       23.589       35.383       21.014      556.454     1251.980      441.589        0.386        0.113       73.917       15.862        0.046      337.874       10.143      859.549
12/04/2014  10:10:00        8.133       58.769        5.619       24.726       39.736       24.948      611.376     1578.927      622.424        0.318        0.141       59.329       26.914        0.206      337.948       10.267      859.554
12/04/2014  10:11:00        9.500       29.365       -0.597       26.839       26.890       12.876      720.315      723.077      165.792        0.128        0.080       30.863       10.067        0.106      337.894       10.177      859.550
12/04/2014  10:12:00       33.399       27.614        5.232       35.885       29.741       22.554     1287.719      884.501      508.704        0.229        0.134       43.337        7.978        0.034      338.006       10.365      859.552
12/04/2014  10:13:00       96.458       57.316        2.441       26.836       30.086       22.518      720.169      905.140      507.061        0.736        0.107      112.202       14.298        0.016      337.816       10.046      859.543
12/04/2014  10:14:00       85.106       54.223        6.645       33.126       31.896       27.142     1097.316     1017.379      736.668        0.654        0.143      100.912       15.963        0.025      337.844       10.091      859.522
12/04/2014  10:15:00       86.917       68.651        3.789       17.459       18.408       17.401      304.812      338.860      302.785        0.661        0.047      110.759        2.922        0.001      337.752        9.937      859.502
12/04/2014  10:16:00       50.092       60.066       -3.787       21.973       21.206       15.057      482.810      449.699      226.718        0.365        0.058       78.212        4.414        0.003      337.703        9.858      859.495
12/04/2014  10:17:00       -0.090       16.017        6.778       25.798       20.488       29.480      665.536      419.772      869.076        0.113        0.098       16.017       16.549        1.067      337.882       10.155      859.482
12/04/2014  10:18:00        2.551       13.461       23.762       12.063       29.444       20.856      145.512      866.954      434.975        0.110        0.072       13.700       17.473        1.627      338.043       10.426      859.494
12/04/2014  10:19:00       57.415       28.168       15.532       40.908       26.054       26.448     1673.495      678.785      699.522        0.369        0.153       63.953        7.244        0.013      337.949       10.269      859.504
12/04/2014  10:20:00       54.649       35.805       20.038       26.079       19.511       23.130      680.103      380.693      534.979        0.313        0.080       65.334       12.561        0.037      337.939       10.250      859.505
12/04/2014  10:21:00       11.886       77.347       -7.005       28.940       41.248       22.786      837.550     1701.379      519.207        0.461        0.153       78.255       26.146        0.112      337.813       10.040      859.501
12/04/2014  10:22:00        1.267       84.205       -5.497       13.224       44.394       19.961      174.882     1970.846      398.440        0.483        0.127       84.214       26.251        0.097      337.891       10.171      859.493
12/04/2014  10:23:00      -18.910       85.735       -9.971       17.644       18.274       14.748      311.326      333.933      217.501        0.433        0.043       87.796        8.466        0.009      337.884       10.160      859.487
12/04/2014  10:24:00      -14.075       50.472      -11.136       20.357       26.543       10.930      414.399      704.529      119.472        0.205        0.062       52.398        7.839        0.022      337.821       10.054      859.480
12/04/2014  10:25:00      -17.746       27.790        7.402       29.219       26.428       17.273      853.729      698.445      298.349        0.150        0.093       32.973       17.894        0.294      337.979       10.319      859.470
12/04/2014  10:26:00       -4.146       46.913       -2.127       25.485       25.754       16.897      649.483      663.280      285.524        0.191        0.080       47.096       13.632        0.084      337.855       10.110      859.461
12/04/2014  10:27:00       24.660       39.349       -4.658       20.409       22.826       17.440      416.533      521.043      304.145        0.171        0.062       46.438       16.325        0.124      337.917       10.213      859.452
12/04/2014  10:28:00       28.772       16.038        2.834       24.576       16.719       12.877      603.997      279.509      165.828        0.107        0.052       32.940        7.233        0.048      337.918       10.218      859.448
12/04/2014  10:29:00       29.355       55.786        8.113       30.847       51.451       27.238      951.540     2647.208      741.912        0.419        0.217       63.038       17.426        0.076      337.942       10.257      859.452
12/04/2014  10:30:00      -18.405       24.067       22.413       17.729       26.114       21.850      314.318      681.966      477.401        0.145        0.074       30.297       12.275        0.164      338.162       10.625      859.453
12/04/2014  10:31:00      -37.460       35.706       -4.249       24.275       28.510       19.906      589.258      812.793      396.250        0.225        0.090       51.752       13.151        0.065      337.972       10.308      859.462
12/04/2014  10:32:00      -63.075       31.504      -10.569       20.496       20.091       17.563      420.067      403.661      308.463        0.311        0.057       70.506       13.044        0.034      337.970       10.303      859.479
12/04/2014  10:33:00     -113.989      -17.824       -9.306       40.373       34.139       19.507     1629.984     1165.476      380.531        0.829        0.159      115.375       19.292        0.028      337.903       10.191      859.499
12/04/2014  10:34:00     -174.072      -83.175       -8.132       41.420       28.006       19.940     1715.655      784.320      397.601        2.009        0.145      192.923       14.403        0.006      337.808       10.031      859.510
12/04/2014  10:35:00     -110.749      -71.798       -2.885       55.020       34.299       26.728     3027.241     1176.392      714.397        1.117        0.246      131.986       24.135        0.033      337.831       10.071      859.510
12/04/2014  10:36:00     -152.336      -56.346      -12.683       30.303       30.865       20.780      918.274      952.677      431.815        1.442        0.115      162.423       15.737        0.009      337.818       10.048      859.514
12/04/2014  10:37:00      -51.453      -51.330        9.961       60.332       45.451       26.900     3639.964     2065.808      723.594        0.590        0.321       72.679       27.478        0.143      338.140       10.588      859.495
12/04/2014  10:38:00       17.899      -20.280        5.518       21.712       27.660       21.588      471.395      765.048      466.048        0.123        0.085       27.049       13.773        0.259      338.272       10.810      859.481
12/04/2014  10:39:00       16.423       11.341        4.212       18.697       35.048       15.362      349.564     1228.379      236.002        0.111        0.091       19.958       15.736        0.622      338.547       11.273      859.477
12/04/2014  10:40:00        5.685        8.062        4.136       23.881       27.380       17.091      570.292      749.669      292.117        0.086        0.081        9.865       12.892        1.708      338.520       11.227      859.473
12/04/2014  10:41:00      -27.090      -37.875       -7.470       38.530       69.750       25.343     1484.533     4865.028      642.250        0.461        0.350       46.566       20.663        0.197      338.112       10.541      859.458
12/04/2014  10:42:00       -5.742       39.364       -0.806       29.589       21.247       28.005      875.510      451.421      784.274        0.185        0.106       39.781        7.342        0.034      338.108       10.536      859.460
12/04/2014  10:43:00      -56.183      -15.779       -3.644       36.325       34.330       26.778     1319.524     1178.581      717.041        0.332        0.161       58.356       27.262        0.218      338.168       10.636      859.452
12/04/2014  10:44:00      -50.239      -49.710        7.950       33.812       33.416       25.078     1143.262     1116.622      628.885        0.397        0.144       70.676       19.801        0.078      338.169       10.638      859.456
12/04/2014  10:45:00      -83.262      -60.886       11.909       73.334       34.735       35.299     5377.895     1206.491     1246.025        0.930        0.392      103.149       42.984        0.174      338.010       10.369      859.465
12/04/2014  10:46:00      -81.116      -81.821      -10.520       40.869       37.671       26.334     1670.268     1419.082      693.473        0.858        0.189      115.215       21.855        0.036      337.852       10.106      859.468
12/04/2014  10:47:00      -75.252      -24.933       -8.875       18.716       29.416       16.564      350.283      865.314      274.368        0.393        0.074       79.275       15.341        0.037      337.891       10.171      859.463
12/04/2014  10:48:00      -22.696      -17.741        6.021       16.471       13.406       14.923      271.287      179.731      222.687        0.077        0.034       28.807       10.967        0.145      338.023       10.393      859.449
12/04/2014  10:49:00      -34.133       -8.958        5.091       28.218       18.890       16.416      796.265      356.819      269.496        0.135        0.071       35.289       12.902        0.134      338.186       10.667      859.420
12/04/2014  10:50:00      -49.044      -51.926       -0.829       31.509       16.098       19.384      992.787      259.159      375.735        0.336        0.081       71.426        8.758        0.015      338.029       10.403      859.411
12/04/2014  10:51:00      -47.184      -27.504        4.465       27.030       32.626       16.989      730.613     1064.473      288.637        0.254        0.104       54.615       11.068        0.041      338.144       10.595      859.400
12/04/2014  10:52:00      -21.206        3.035       27.933       18.070       24.274       21.988      326.527      589.228      483.453        0.132        0.070       21.422       18.211        0.723      338.449       11.107      859.387
12/04/2014  10:53:00      -50.582      -55.610        2.960       27.275       42.563       18.521      743.939     1811.643      343.025        0.428        0.145       75.173       15.101        0.040      338.208       10.702      859.377
12/04/2014  10:54:00      -28.735      -38.704       -3.559       29.781       35.158       18.540      886.929     1236.060      343.730        0.240        0.123       48.204       16.654        0.119      338.250       10.774      859.374
12/04/2014  10:55:00      -18.118       -0.095       -8.261       15.612       12.149       14.870      243.743      147.610      221.116        0.050        0.031       18.118        9.788        0.292      338.197       10.684      859.376
12/04/2014  10:56:00      -30.393        6.105        4.886       24.800       11.951       14.191      615.024      142.836      201.384        0.097        0.048       31.000       12.727        0.169      338.336       10.919      859.377
12/04/2014  10:57:00      -31.191       -4.893        9.146       38.334       25.223       20.537     1469.532      636.216      421.754        0.180        0.126       31.572       14.841        0.221      338.348       10.938      859.372
12/04/2014  10:58:00      -51.378      -22.091        5.942       53.781       33.760       23.659     2892.371     1139.754      559.741        0.388        0.230       55.926       22.355        0.160      338.288       10.838      859.357
12/04/2014  10:59:00      -85.896      -49.482       -2.266       53.887       37.934       26.380     2903.840     1438.976      695.896        0.743        0.252       99.129       22.461        0.051      338.173       10.644      859.354
12/04/2014  11:00:00      -87.967      -30.338       -1.134       38.474       23.293       22.709     1480.264      542.543      515.712        0.560        0.127       93.051       21.337        0.053      338.092       10.509      859.353
12/04/2014  11:01:00      -89.628        4.600       -8.194       23.442       26.826       18.718      549.528      719.654      350.353        0.487        0.081       89.746       19.325        0.046      337.896       10.180      859.318
12/04/2014  11:02:00      -16.369        4.169       -5.005       19.009       12.071       15.231      361.353      145.720      231.992        0.052        0.037       16.891       11.626        0.474      338.165       10.630      859.283
12/04/2014  11:03:00        5.323       24.243        4.284       14.673       22.353       15.411      215.306      499.679      237.499        0.079        0.048       24.820       16.113        0.421      338.397       11.020      859.252
12/04/2014  11:04:00      -71.369       22.223        5.149       49.357       21.585       16.679     2436.094      465.933      278.190        0.440        0.159       74.749       19.044        0.065      338.213       10.712      859.223
12/04/2014  11:05:00      -73.315        2.712      -18.133       32.322       10.974       14.582     1044.706      120.428      212.630        0.354        0.069       73.365       19.229        0.069      337.972       10.305      859.206
12/04/2014  11:06:00      -45.115       32.223       -4.061       14.599       23.143       15.452      213.125      535.578      238.761        0.204        0.049       55.441        8.468        0.023      338.110       10.540      859.190
12/04/2014  11:07:00      -28.724      -38.958       -5.742       19.079       45.012       15.281      364.012     2026.069      233.507        0.250        0.131       48.402       12.549        0.067      338.115       10.548      859.185
12/04/2014  11:08:00       14.110       13.548       23.472       20.845       18.600       16.410      434.525      345.976      269.295        0.099        0.052       19.561       10.485        0.287      338.557       11.289      859.195
12/04/2014  11:09:00       14.468       53.224        9.744       22.438       25.488       22.673      503.480      649.618      514.052        0.240        0.083       55.155       17.372        0.099      338.321       10.893      859.208
12/04/2014  11:10:00      -24.803       18.465      -12.095       11.776       12.529       12.429      138.672      156.975      154.479        0.078        0.023       30.921        4.661        0.023      338.127       10.568      859.202
12/04/2014  11:11:00      -40.849      -20.666       -2.533       20.449       30.560       20.545      418.157      933.887      422.116        0.194        0.089       45.779       14.754        0.104      338.261       10.793      859.204
12/04/2014  11:12:00      -82.389      -49.605       -4.966       37.841       37.997       18.354     1431.955     1443.750      336.856        0.624        0.161       96.170       10.415        0.012      338.155       10.613      859.203
12/04/2014  11:13:00      -69.835      -39.997        1.778       47.080       53.137       30.630     2216.555     2823.524      938.211        0.623        0.299       80.478       26.766        0.111      338.313       10.880      859.198
12/04/2014  11:14:00      -36.295     -116.150       -5.099       42.277       36.332       26.904     1787.315     1320.002      723.848        0.933        0.192      121.688       14.436        0.014      338.184       10.662      859.181
12/04/2014  11:15:00      -62.974      -79.206       -3.185       76.704       40.305       27.285     5883.563     1624.499      744.459        0.925        0.413      101.189       22.749        0.051      338.216       10.717      859.173
12/04/2014  11:16:00     -136.982      -59.489       -7.143       61.307       44.319       28.441     3758.555     1964.152      808.897        1.444        0.327      149.342       23.288        0.024      338.090       10.503      859.169
12/04/2014  11:17:00     -169.154      -65.137      -10.315       62.906       49.794       30.356     3957.220     2479.416      921.459        2.016        0.368      181.262       32.152        0.031      338.101       10.523      859.150
12/04/2014  11:18:00     -108.189      -40.638       -8.495       27.252       24.401       19.623      742.680      595.420      385.061        0.758        0.086      115.569        6.907        0.004      338.120       10.555      859.127
12/04/2014  11:19:00      -32.560      -48.344       -9.267       39.741       29.615       19.997     1579.368      877.056      399.894        0.317        0.143       58.287       22.325        0.147      338.237       10.752      859.087
12/04/2014  11:20:00      -29.053      -15.616       14.068       28.650       38.363       21.888      820.821     1471.727      479.100        0.203        0.139       32.984       20.932        0.403      338.351       10.943      859.059
12/04/2014  11:21:00      -22.756       16.277        5.106       27.586       20.098       29.580      760.964      403.947      874.985        0.142        0.102       27.978       18.995        0.461      338.638       11.426      859.048
12/04/2014  11:22:00      -38.834       25.866        6.790       23.729       26.761       17.358      563.067      716.128      301.308        0.190        0.079       46.660       13.098        0.079      338.596       11.356      859.031
12/04/2014  11:23:00      -45.649      -49.446        4.516       32.505       32.030       23.242     1056.605     1025.919      540.205        0.359        0.131       67.296       18.247        0.074      338.413       11.048      859.034
12/04/2014  11:24:00      -12.128       -6.554       -5.641       26.024       10.770       13.844      677.258      115.996      191.666        0.060        0.049       13.785       16.627        1.455      338.413       11.048      859.037
12/04/2014  11:25:00      -44.426        7.603        8.950       29.386       29.244       19.070      863.565      855.202      363.669        0.210        0.104       45.072       14.099        0.098      338.502       11.199      859.037
12/04/2014  11:26:00        1.079       32.557       -1.246       25.297       28.624       23.203      639.962      819.306      538.393        0.153        0.100       32.575       16.459        0.255      338.612       11.382      859.039
12/04/2014  11:27:00      -64.367       28.074        0.475       49.467       40.197       27.909     2446.972     1615.802      778.893        0.489        0.242       70.223       32.088        0.209      338.519       11.225      859.023
12/04/2014  11:28:00     -183.250       10.954      -16.695       79.335       51.361       28.366     6294.075     2637.948      804.647        2.186        0.487      183.578       25.381        0.019      338.239       10.753      859.024
12/04/2014  11:29:00     -192.957       23.783      -20.021       46.252       42.416       26.631     2139.251     1799.144      709.187        2.142        0.232      194.417       25.067        0.017      338.172       10.641      859.009
12/04/2014  11:30:00     -150.027        8.498      -20.586       29.256       28.716       18.837      855.927      824.619      354.844        1.252        0.102      150.268       13.836        0.008      338.188       10.669      859.005
12/04/2014  11:31:00     -114.193       14.234       -7.782       62.375       34.430       25.025     3890.689     1185.455      626.234        0.950        0.285      115.077       26.701        0.054      338.295       10.848      858.983
12/04/2014  11:32:00     -133.747       74.632      -25.035       38.043       35.853       24.198     1447.304     1285.468      585.542        1.370        0.166      153.161       10.687        0.005      338.270       10.807      858.965
12/04/2014  11:33:00     -118.266       27.642      -14.723       52.367       47.700       22.788     2742.290     2275.291      519.301        1.025        0.277      121.453       26.149        0.046      338.338       10.922      858.944
12/04/2014  11:34:00     -139.139        9.460       -7.720       70.969       51.912       28.320     5036.596     2694.834      802.009        1.402        0.427      139.460       32.044        0.053      338.452       11.113      858.926
12/04/2014  11:35:00      -78.220       20.467       -6.421       37.383       27.559       17.694     1397.500      759.505      313.062        0.452        0.124       80.853       14.642        0.033      338.369       10.974      858.896
12/04/2014  11:36:00      -61.521      -18.776      -16.872       30.815       24.109       17.030      949.541      581.229      290.026        0.312        0.091       64.322       12.583        0.038      338.398       11.023      858.872
12/04/2014  11:37:00      -13.247       -7.420       -8.936       24.169       17.213       13.521      584.120      296.301      182.817        0.069        0.053       15.183       13.919        0.840      338.431       11.078      858.857
12/04/2014  11:38:00      -43.542      -32.064       -3.266       32.294       17.711       15.069     1042.872      313.676      227.067        0.226        0.079       54.074        5.968        0.012      338.410       11.042      858.843
12/04/2014  11:39:00     -172.335      -68.892      -16.625       74.874       55.073       33.649     5606.055     3033.066     1132.236        2.224        0.489      185.595       21.570        0.014      338.457       11.119      858.837
12/04/2014  11:40:00      -99.843     -111.934       -0.779       58.288       50.963       32.984     3397.463     2597.254     1087.952        1.479        0.354      149.993       32.020        0.046      338.378       10.988      858.840
12/04/2014  11:41:00     -105.481     -101.821       -8.972       46.414       66.170       16.883     2154.284     4378.509      285.045        1.419        0.341      146.608       14.918        0.010      338.413       11.047      858.845
12/04/2014  11:42:00      -43.222      -49.038       -2.012       24.933       29.291       17.421      621.639      857.992      303.506        0.303        0.089       65.367       12.685        0.038      338.577       11.323      858.848
12/04/2014  11:43:00      -41.247      -35.776       13.082       52.122       32.029       21.586     2716.744     1025.835      465.946        0.368        0.210       54.600       18.784        0.118      338.591       11.346      858.838
12/04/2014  11:44:00      -10.275      -23.587       10.465       39.503       30.675       22.856     1560.518      940.979      522.413        0.190        0.151       25.728       19.188        0.556      338.743       11.601      858.830
12/04/2014  11:45:00      -67.511      -67.635       -3.737       53.702       26.164       23.286     2883.925      684.568      542.231        0.663        0.206       95.562       24.300        0.065      338.441       11.094      858.829
12/04/2014  11:46:00     -114.134      -62.448        3.019       58.974       52.554       23.680     3477.945     2761.909      560.728        1.187        0.340      130.101       26.442        0.041      338.448       11.107      858.817
12/04/2014  11:47:00      -53.601      -74.358       -4.016       30.667       46.716       14.493      940.474     2182.425      210.052        0.587        0.167       91.663       14.706        0.026      338.374       10.982      858.806
12/04/2014  11:48:00      -75.788       40.639       -7.446       34.408       34.206       20.106     1183.920     1170.050      404.239        0.510        0.138       85.996       19.724        0.053      338.472       11.147      858.792
12/04/2014  11:49:00       17.996        7.671       17.258       34.853       41.795       22.225     1214.738     1746.822      493.932        0.207        0.173       19.562       21.555        1.214      338.829       11.747      858.767
12/04/2014  11:50:00      -93.657      -81.584       -3.147       98.004       47.238       22.481     9604.691     2231.422      505.416        1.389        0.617      124.207       27.561        0.049      338.592       11.347      858.752
12/04/2014  11:51:00     -125.158      -88.676        0.523       83.102       51.242       35.870     6905.865     2625.757     1286.648        1.717        0.541      153.388       43.420        0.080      338.547       11.272      858.733
12/04/2014  11:52:00      -95.729      -72.574        5.402       62.526       48.248       28.395     3909.524     2327.883      806.264        1.075        0.352      120.130       32.354        0.073      338.507       11.205      858.710
12/04/2014  11:53:00     -164.028      -75.144       -6.222       38.754       29.901       22.518     1501.851      894.088      507.047        1.775        0.145      180.421       11.983        0.004      338.406       11.035      858.668
12/04/2014  11:54:00     -109.265      -51.335      -10.969       50.771       33.563       25.207     2577.685     1126.465      635.410        0.952        0.217      120.723       28.476        0.056      338.426       11.068      858.633
12/04/2014  11:55:00      -83.583      -62.700      -22.688       35.822       29.196       21.629     1283.188      852.420      467.809        0.702        0.130      104.486       13.445        0.017      338.461       11.128      858.607
12/04/2014  11:56:00      -76.824      -59.346       -1.707       42.418       39.345       25.346     1799.270     1548.025      642.445        0.671        0.199       97.077       22.661        0.054      338.526       11.238      858.604
12/04/2014  11:57:00     -119.403      -70.853      -10.563       57.483       24.033       23.615     3304.281      577.562      557.647        1.191        0.222      138.842       16.261        0.014      338.444       11.098      858.602
12/04/2014  11:58:00      -83.702     -100.272      -14.500       49.105       41.394       22.855     2411.319     1713.469      522.330        1.096        0.232      130.616       17.582        0.018      338.547       11.273      858.600
12/04/2014  11:59:00      -99.844      -69.883       -9.537       29.038       37.930       23.161      843.205     1438.667      536.413        0.888        0.141      121.870       19.063        0.024      338.574       11.319      858.594
12/04/2014  12:00:00      -89.067      -74.244        8.284       52.911       56.193       34.933     2799.619     3157.697     1220.310        1.034        0.359      115.953       34.557        0.089      338.653       11.449      858.591
12/04/2014  12:01:00     -192.993      -80.916       -6.179       58.397       41.965       31.851     3410.263     1761.038     1014.509        2.501        0.309      209.269       33.718        0.026      338.457       11.118      858.591
12/04/2014  12:02:00     -124.535      -25.957       -2.748       46.906       43.963       25.300     2200.180     1932.710      640.077        1.048        0.239      127.211       17.827        0.020      338.485       11.168      858.604
12/04/2014  12:03:00      -73.944        1.564       -0.394       18.531       31.856       14.172      343.407     1014.814      200.848        0.351        0.078       73.960       10.556        0.020      338.537       11.256      858.607
12/04/2014  12:04:00      -80.929      -28.825        0.818       35.438       30.512       24.031     1255.828      931.009      577.492        0.507        0.138       85.909       21.290        0.061      338.678       11.493      858.611
12/04/2014  12:05:00     -104.265      -84.296       -7.655       35.547       44.211       24.610     1263.564     1954.629      605.650        1.093        0.191      134.078       18.762        0.020      338.540       11.260      858.620
12/04/2014  12:06:00     -100.314        4.348       -2.132       32.101       44.343       22.578     1030.461     1966.311      509.755        0.680        0.175      100.408       13.261        0.017      338.598       11.358      858.616
12/04/2014  12:07:00     -111.979       21.620        0.323       51.434       25.707       29.926     2645.410      660.860      895.563        0.860        0.210      114.047       29.085        0.065      338.641       11.430      858.613
12/04/2014  12:08:00      -81.953       14.049       -2.584       53.222       44.462       31.927     2832.630     1976.850     1019.341        0.637        0.291       83.149       34.157        0.169      338.716       11.558      858.609
12/04/2014  12:09:00      -63.446       -6.574        6.471       52.924       37.134       25.631     2800.979     1378.951      656.972        0.447        0.242       63.786       25.664        0.162      338.862       11.802      858.604
12/04/2014  12:10:00      -35.635        5.091       10.516       23.895       17.635       15.270      570.959      310.988      233.167        0.126        0.056       35.997       14.319        0.158      338.890       11.848      858.586
12/04/2014  12:11:00       -9.405       -0.420        3.677       13.778       11.202       16.270      189.836      125.479      264.703        0.034        0.029        9.415        6.476        0.473      339.033       12.089      858.562
12/04/2014  12:12:00      -52.836        5.413      -11.248       47.537       27.810       18.397     2259.749      773.405      338.432        0.316        0.169       53.113       15.493        0.085      338.807       11.710      858.537
12/04/2014  12:13:00     -135.375      -23.886       -3.515       55.930       56.245       26.500     3128.169     3163.530      702.273        1.295        0.350      137.466       27.653        0.040      338.755       11.620      858.525
12/04/2014  12:14:00     -195.449       43.416      -16.617       40.710       36.448       26.418     1657.287     1328.423      697.908        2.202        0.184      200.213       22.875        0.013      338.600       11.359      858.525
12/04/2014  12:15:00     -178.382      -65.547      -14.475       73.317       40.039       33.114     5375.445     1603.120     1096.533        2.220        0.404      190.044       28.342        0.022      338.621       11.396      858.525
12/04/2014  12:16:00     -125.737      -64.011        7.015       93.894       66.242       39.273     8816.070     4387.977     1542.392        1.735        0.737      141.093       48.111        0.116      338.672       11.480      858.527
12/04/2014  12:17:00     -105.811      -63.477        4.673       67.575       53.254       34.565     4566.381     2836.015     1194.762        1.192        0.430      123.391       37.747        0.094      338.613       11.383      858.523
12/04/2014  12:18:00     -173.201      -63.328       -1.539       73.046       72.136       44.578     5335.693     5203.668     1987.181        2.327        0.626      184.416       41.019        0.049      338.672       11.480      858.502
12/04/2014  12:19:00     -195.785      -38.295      -21.136       53.872       35.691       22.084     2902.213     1273.840      487.685        2.245        0.233      199.495       13.788        0.005      338.543       11.264      858.482
12/04/2014  12:20:00      -79.398       -9.295       -8.946       33.821       19.216       15.173     1143.837      369.239      230.226        0.411        0.087       79.940       12.763        0.025      338.592       11.347      858.458
12/04/2014  12:21:00      -81.111      -37.807        1.179       67.900       24.038       18.037     4610.404      577.830      325.319        0.676        0.276       89.489       27.434        0.094      338.739       11.596      858.430
12/04/2014  12:22:00     -132.087      -16.593      -11.848       53.889       38.682       27.713     2904.032     1496.323      767.995        1.151        0.258      133.125       24.021        0.033      338.707       11.540      858.416
12/04/2014  12:23:00     -156.462       -8.679       -8.822       49.430       58.859       30.695     2443.294     3464.404      942.195        1.574        0.342      156.702       28.363        0.033      338.724       11.569      858.394
12/04/2014  12:24:00     -131.961      -21.950      -11.916       39.976       37.309       19.162     1598.107     1391.979      367.172        1.070        0.168      133.774       12.242        0.008      338.790       11.681      858.387
12/04/2014  12:25:00     -113.018      -13.562      -18.771       51.815       49.708       26.228     2684.746     2470.867      687.925        0.958        0.292      113.829       11.958        0.011      338.748       11.610      858.405
12/04/2014  12:26:00     -231.655       11.973      -27.755       71.722       61.857       41.559     5144.058     3826.326     1727.116        3.264        0.535      231.964       38.958        0.028      338.702       11.528      858.419
12/04/2014  12:27:00     -134.909        0.258       -9.088       48.308       52.700       30.405     2333.633     2777.263      924.449        1.216        0.302      134.909       23.577        0.031      338.792       11.684      858.439
12/04/2014  12:28:00     -156.520        4.270       -5.224       50.827       58.180       31.493     2583.372     3384.898      991.783        1.575        0.348      156.579       21.545        0.019      338.845       11.773      858.452
12/04/2014  12:29:00      -66.529      -52.193        9.478       68.609       36.630       29.844     4707.136     1341.777      890.689        0.709        0.347       84.559       31.253        0.137      338.888       11.845      858.457
12/04/2014  12:30:00     -137.030       56.781       -8.100       81.063       68.831       38.605     6571.215     4737.657     1490.353        1.743        0.640      148.328       32.322        0.047      338.802       11.701      858.453
12/04/2014  12:31:00      -85.170       17.319       -7.962      112.192       72.576       40.609    12587.050     5267.235     1649.108        1.356        0.975       86.913       43.414        0.250      338.895       11.858      858.443
12/04/2014  12:32:00     -165.109       -9.556       -9.016       79.092       53.394       32.123     6255.553     2850.925     1031.867        1.878        0.507      165.386       35.813        0.047      338.717       11.557      858.435
12/04/2014  12:33:00      -34.164      -18.333       16.411       50.045       41.282       27.157     2504.541     1704.244      737.516        0.336        0.247       38.772       27.114        0.489      338.989       12.016      858.408
12/04/2014  12:34:00      -52.331      -26.205        2.504       44.796       36.064       23.821     2006.654     1300.595      567.458        0.365        0.194       58.526       19.619        0.112      338.859       11.796      858.391
12/04/2014  12:35:00      -53.722      -27.864       -4.906       41.634       31.870       13.507     1733.358     1015.707      182.444        0.331        0.147       60.518       12.449        0.042      338.852       11.784      858.378
12/04/2014  12:36:00      -61.920      -23.422       -1.216       27.891       28.707       19.721      777.902      824.108      388.934        0.319        0.100       66.201       10.537        0.025      338.829       11.747      858.379
12/04/2014  12:37:00      -91.029      -70.934       -7.485       52.265       48.752       24.598     2731.624     2376.772      605.083        0.954        0.286      115.403       26.314        0.052      338.800       11.698      858.374
12/04/2014  12:38:00     -137.141      -98.418       -1.259       97.580       69.382       47.962     9521.787     4813.902     2300.310        2.256        0.832      168.801       43.123        0.065      338.762       11.632      858.360
12/04/2014  12:39:00     -150.247      -76.063       -2.897       94.981       73.880       48.569     9021.352     5458.183     2358.958        2.260        0.842      168.403       51.685        0.094      338.791       11.680      858.349
12/04/2014  12:40:00      -89.006      -39.129       -0.114       53.442       40.518       30.807     2856.057     1641.689      949.073        0.745        0.272       97.227       35.134        0.131      338.739       11.594      858.349
12/04/2014  12:41:00      -78.861      -38.793        0.487       48.431       48.208       23.814     2345.565     2323.967      567.083        0.648        0.262       87.886       21.371        0.059      338.824       11.738      858.350
12/04/2014  12:42:00      -99.395      -43.456       -3.318       57.559       52.409       30.776     3313.032     2746.706      947.156        0.939        0.350      108.480       30.110        0.077      338.789       11.679      858.354
12/04/2014  12:43:00     -104.884      -43.918       -4.000       58.828       44.272       26.616     3460.676     1960.041      708.402        0.954        0.306      113.708       26.701        0.055      338.825       11.740      858.348
12/04/2014  12:44:00      -97.753      -30.674       -2.682       70.940       42.826       34.418     5032.481     1834.050     1184.570        0.928        0.403      102.453       38.897        0.144      338.897       11.861      858.350
12/04/2014  12:45:00     -245.848      -43.334       -4.434       83.226       62.710       36.642     6926.544     3932.538     1342.619        3.727        0.610      249.638       33.101        0.018      338.806       11.704      858.340
12/04/2014  12:46:00     -225.967      -72.428      -17.096       67.569       46.301       30.766     4565.607     2143.811      946.541        3.213        0.383      237.291       32.436        0.019      338.760       11.627      858.343
12/04/2014  12:47:00      -70.468      -75.859       -1.406       54.971       38.805       29.152     3021.859     1505.818      849.828        0.805        0.269      103.539       28.890        0.078      338.779       11.662      858.335
12/04/2014  12:48:00      -47.871       -0.108        7.074       52.075       27.231       23.848     2711.814      741.525      568.714        0.318        0.201       47.871       31.500        0.433      338.870       11.815      858.317
12/04/2014  12:49:00      -62.248       12.694      -11.623       23.838       25.346       14.349      568.230      642.417      205.880        0.279        0.071       63.529       13.089        0.042      338.800       11.698      858.311
12/04/2014  12:50:00      -79.732       58.702      -21.666       23.423       27.891       16.951      548.653      777.898      287.344        0.594        0.081       99.011        6.566        0.004      338.786       11.674      858.309
12/04/2014  12:51:00     -100.355      113.708      -18.222       35.234       46.856       24.151     1241.401     2195.481      583.257        1.368        0.201      151.660       27.120        0.032      338.863       11.804      858.292
12/04/2014  12:52:00      -58.558       37.178      -21.601       40.505       25.094       10.464     1640.682      629.703      109.488        0.383        0.119       69.364       20.034        0.083      338.779       11.662      858.283
12/04/2014  12:53:00       33.158       17.190       14.783       31.303       35.718       21.329      979.905     1275.766      454.928        0.216        0.136       37.349       18.981        0.258      338.972       11.987      858.269
12/04/2014  12:54:00       -0.356       19.551        0.216       30.851       16.843       18.661      951.781      283.687      348.229        0.098        0.079       19.554       13.324        0.464      339.027       12.077      858.260
12/04/2014  12:55:00      -53.305        5.551       -9.784       27.781       22.954       11.768      771.803      526.881      138.487        0.220        0.072       53.593        8.329        0.024      338.985       12.010      858.277
12/04/2014  12:56:00     -109.135      -16.609        3.914       66.388       47.193       24.508     4407.423     2227.178      600.627        0.972        0.362      110.391       24.368        0.049      339.057       12.130      858.288
12/04/2014  12:57:00     -157.328      -28.495      -11.362       64.234       52.353       34.333     4126.015     2740.846     1178.743        1.687        0.402      159.888       30.334        0.036      338.972       11.985      858.306
12/04/2014  12:58:00     -108.246      -44.875        1.823       80.404       57.998       38.910     6464.823     3363.757     1514.023        1.254        0.567      117.179       44.154        0.142      339.014       12.058      858.311
12/04/2014  12:59:00      -59.370      -34.327       -9.330       51.710       27.964       28.759     2673.927      781.983      827.080        0.454        0.214       68.580        7.899        0.013      338.976       11.994      858.312
12/04/2014  13:00:00      -45.212       -0.428        0.609       47.594       21.896       20.773     2265.230      479.434      431.524        0.261        0.159       45.214       24.491        0.293      339.048       12.116      858.303
12/04/2014  13:01:00     -122.166       44.419      -20.325       28.969       24.818       17.265      839.204      615.955      298.089        0.953        0.088      129.991       11.762        0.008      338.903       11.872      858.301
12/04/2014  13:02:00      -29.558      104.009      -13.846       29.598       41.469       18.881      876.061     1719.699      356.483        0.742        0.148      108.127       14.315        0.018      339.006       12.045      858.292
12/04/2014  13:03:00      -22.257       91.998       -1.727       21.900       39.076       22.508      479.603     1526.952      506.630        0.574        0.126       94.652       22.433        0.056      339.182       12.339      858.284
12/04/2014  13:04:00      -21.837       99.129        7.891       29.976       48.263       34.142      898.545     2329.354     1165.685        0.738        0.220      101.505       28.339        0.078      339.194       12.360      858.284
12/04/2014  13:05:00       -9.790      101.668       -3.458       34.454       55.342       26.219     1187.066     3062.713      687.452        0.769        0.247      102.138       29.680        0.084      339.117       12.229      858.274
12/04/2014  13:06:00      -17.339      167.079      -20.606       21.637       33.884       16.516      468.177     1148.132      272.774        1.526        0.094      167.976       11.467        0.005      339.034       12.090      858.266
12/04/2014  13:07:00      -27.296      138.795      -22.030       34.635       59.595       27.137     1199.585     3551.602      736.409        1.299        0.274      141.454       15.656        0.012      339.024       12.074      858.262
12/04/2014  13:08:00       13.022       63.532       -8.341       21.622       19.336       17.753      467.491      373.874      315.186        0.272        0.058       64.853       12.611        0.038      339.022       12.071      858.264
12/04/2014  13:09:00       35.957       30.162        4.890       25.199       13.024       13.549      635.014      169.616      183.575        0.161        0.049       46.933        6.798        0.021      339.033       12.090      858.267
12/04/2014  13:10:00       41.529       43.627       14.464       28.049       23.227       22.552      786.770      539.479      508.585        0.284        0.092       60.233       15.162        0.063      339.234       12.428      858.273
12/04/2014  13:11:00        1.830        4.548       17.587       13.016       22.872       15.747      169.413      523.133      247.968        0.064        0.047        4.903       11.705        5.700      339.432       12.761      858.282
12/04/2014  13:12:00      -19.598       57.939        6.213       26.240       35.972       28.053      688.537     1293.978      786.973        0.327        0.138       61.164       22.813        0.139      339.278       12.502      858.286
12/04/2014  13:13:00      -64.944       28.171       -8.354       30.367       25.125       17.029      922.171      631.284      289.990        0.346        0.092       70.790        6.420        0.008      339.241       12.440      858.292
12/04/2014  13:14:00      -39.999       63.370       -9.143       27.576       33.545       25.997      760.438     1125.297      675.863        0.413        0.128       74.938       17.580        0.055      339.288       12.518      858.280
12/04/2014  13:15:00      -57.484        2.550      -11.723       25.785       27.277       18.834      664.881      744.013      354.729        0.261        0.088       57.540       14.117        0.060      339.252       12.459      858.275
12/04/2014  13:16:00       -2.754        9.225       -2.584       13.558       24.137       17.481      183.832      582.595      305.586        0.059        0.054        9.627       16.824        3.054      339.322       12.577      858.265
12/04/2014  13:17:00      -62.766       52.810      -11.092       29.841       49.731       25.899      890.483     2473.215      670.771        0.544        0.202       82.027       18.628        0.052      339.359       12.638      858.258
12/04/2014  13:18:00      -63.791      120.125      -12.591       32.611       42.167       26.385     1063.452     1778.052      696.155        1.110        0.177      136.012       25.762        0.036      339.376       12.666      858.253
12/04/2014  13:19:00      -31.990      112.305      -12.184       32.202       39.434       24.101     1036.988     1555.071      580.875        0.848        0.159      116.772       12.468        0.011      339.358       12.636      858.240
12/04/2014  13:20:00      -23.409       95.658      -12.645       32.896       53.161       26.226     1082.124     2826.141      687.804        0.723        0.230       98.480       25.400        0.067      339.449       12.792      858.225
12/04/2014  13:21:00      -46.966       77.720      -17.074       36.320       56.022       22.985     1319.135     3138.496      528.333        0.676        0.249       90.808       16.579        0.033      339.396       12.702      858.215
12/04/2014  13:22:00      -82.086      -13.552       -1.874       45.633       44.954       26.079     2082.411     2020.904      680.100        0.585        0.239       83.197       14.296        0.030      339.366       12.651      858.189
12/04/2014  13:23:00        9.272       86.413       -9.064       29.285       70.283       24.742      857.599     4939.657      612.166        0.702        0.320       86.909       34.901        0.161      339.422       12.744      858.180
12/04/2014  13:24:00      -26.467       96.450      -10.943       28.221       40.474       18.839      796.403     1638.182      354.918        0.646        0.139      100.016        7.768        0.006      339.428       12.755      858.178
12/04/2014  13:25:00      -20.165       69.502        8.304       31.341       38.326       23.970      982.268     1468.911      574.563        0.417        0.151       72.369       22.113        0.093      339.629       13.094      858.185
12/04/2014  13:26:00      -43.685       82.496      -12.176       34.232       45.140       23.495     1171.849     2037.642      551.996        0.631        0.188       93.348       15.735        0.028      339.488       12.856      858.185
12/04/2014  13:27:00     -107.880       51.954      -14.098       54.342       39.498       24.163     2953.051     1560.125      583.871        0.982        0.255      119.738       25.003        0.044      339.351       12.625      858.179
12/04/2014  13:28:00     -106.085       40.335       -9.971       47.919       54.273       32.496     2296.268     2945.531     1055.960        0.964        0.315      113.494       27.384        0.058      339.428       12.754      858.177
12/04/2014  13:29:00     -144.941       28.827      -27.761       35.842       24.423       23.188     1284.657      596.473      537.692        1.251        0.121      147.779       19.516        0.017      339.185       12.345      858.193
12/04/2014  13:30:00      -92.835       27.736       -9.148       31.696       30.487       21.321     1004.638      929.444      454.574        0.593        0.119       96.890       13.816        0.020      339.255       12.462      858.189
12/04/2014  13:31:00      -74.011       24.866      -15.689       29.657       31.508       19.614      879.566      992.767      384.709        0.430        0.113       78.077       26.280        0.113      339.131       12.253      858.171
12/04/2014  13:32:00        9.734       14.706      -16.112       26.405       18.311       18.581      697.250      335.292      345.243        0.097        0.069       17.636       20.217        1.314      339.424       12.748      858.163
12/04/2014  13:33:00      -60.791       52.396      -15.128       31.067       43.272       20.041      965.162     1872.455      401.661        0.495        0.162       80.255       20.700        0.067      339.379       12.671      858.163
12/04/2014  13:34:00      -45.818      -25.921       -7.356       18.039       16.153       11.290      325.388      260.925      127.470        0.177        0.036       52.642        7.520        0.020      339.306       12.548      858.158
12/04/2014  13:35:00       -0.821      -13.837       14.053       10.690       13.182       10.373      114.271      173.777      107.599        0.039        0.020       13.861        8.025        0.335      339.905       13.560      858.153
12/04/2014  13:36:00      -15.023       -3.975        0.072       30.552       19.773       20.384      933.451      390.990      415.504        0.099        0.087       15.540       14.368        0.855      339.755       13.308      858.163
12/04/2014  13:37:00      -49.710       -6.224        1.335       31.051       29.039       28.305      964.167      843.288      801.159        0.256        0.130       50.098       19.171        0.146      339.720       13.248      858.183
12/04/2014  13:38:00      -14.834       -0.998        0.316       15.006       10.766       15.374      225.184      115.900      236.367        0.040        0.029       14.867        8.500        0.327      339.694       13.204      858.194
12/04/2014  13:39:00      -31.641       -6.425        7.483       28.465       27.727       17.026      810.253      768.760      289.868        0.148        0.093       32.286       15.436        0.229      339.601       13.045      858.180
12/04/2014  13:40:00        1.935       -8.673       17.267       21.117       28.035       14.480      445.918      785.982      209.671        0.091        0.072        8.886       13.170        2.196      339.721       13.250      858.174
12/04/2014  13:41:00      -79.132      -41.210       -0.709       38.834       36.953       20.216     1508.117     1365.494      408.704        0.562        0.164       89.219       14.926        0.028      339.607       13.057      858.165
12/04/2014  13:42:00     -109.648      -56.197       10.508       63.625       45.944       26.317     4048.193     2110.839      692.583        1.107        0.343      123.210       21.116        0.029      339.580       13.010      858.161
12/04/2014  13:43:00     -169.583      -41.024       -9.022       22.730       29.717       17.241      516.666      883.085      297.237        1.611        0.085      174.475       10.309        0.003      339.320       12.572      858.165
12/04/2014  13:44:00     -109.524      -54.610       -8.336       45.784       26.538       17.352     2096.163      704.285      301.093        0.907        0.155      122.384       20.403        0.028      339.415       12.732      858.166
12/04/2014  13:45:00      -11.971      -31.291        2.717       52.687       23.937       20.878     2775.940      572.957      435.903        0.246        0.189       33.502       18.211        0.295      339.717       13.241      858.165
12/04/2014  13:46:00      -12.528      -16.110      -13.927       24.022       30.354       17.887      577.075      921.350      319.933        0.121        0.091       20.408       10.839        0.282      339.677       13.175      858.147
12/04/2014  13:47:00       11.611       20.833        0.531       25.405       17.800       13.449      645.427      316.839      180.879        0.086        0.057       23.850        9.851        0.171      339.679       13.177      858.139
12/04/2014  13:48:00       53.327       58.113        1.913       62.163       46.145       42.823     3864.229     2129.349     1833.770        0.702        0.391       78.873       29.253        0.138      339.535       12.935      858.133
12/04/2014  13:49:00       68.283       62.682       18.772       48.731       39.518       36.725     2374.716     1561.658     1348.724        0.711        0.264       92.691       28.395        0.094      339.480       12.842      858.128
12/04/2014  13:50:00       50.244       78.241        3.801       37.426       40.994       39.173     1400.677     1680.513     1534.497        0.664        0.231       92.984       33.488        0.130      339.477       12.837      858.141
12/04/2014  13:51:00       61.796       51.637        0.398       23.873       24.954       20.538      569.919      622.703      421.815        0.405        0.081       80.530       11.867        0.022      339.421       12.744      858.133
12/04/2014  13:52:00       39.250       45.269       20.739       30.378       18.830       21.606      922.814      354.569      466.802        0.288        0.087       59.915       12.610        0.044      339.454       12.799      858.135
12/04/2014  13:53:00       77.503       45.471        0.160       32.415       24.792       25.118     1050.743      614.621      630.890        0.518        0.115       89.857       12.489        0.019      339.418       12.737      858.132
12/04/2014  13:54:00       34.550       28.529       14.209       33.574       17.003       16.184     1127.206      289.089      261.918        0.194        0.084       44.807       12.659        0.080      339.371       12.659      858.119
12/04/2014  13:55:00       15.796      118.353      -10.445       34.107       71.885       33.453     1163.272     5167.477     1119.112        1.091        0.372      119.402       38.691        0.105      339.415       12.732      858.130
12/04/2014  13:56:00       50.466       80.758       -4.267       31.185       43.749       28.510      972.480     1913.960      812.820        0.639        0.185       95.229       20.783        0.048      339.388       12.687      858.137
12/04/2014  13:57:00       19.570       56.275        1.972       53.331       37.191       26.510     2844.145     1383.161      702.778        0.424        0.247       59.580       30.186        0.257      339.470       12.825      858.132
12/04/2014  13:58:00      -55.501       97.493      -14.159       26.209       55.713       28.215      686.905     3103.918      796.069        0.869        0.229      112.184       31.736        0.080      339.510       12.894      858.149
12/04/2014  13:59:00      -32.911       72.651       -3.787       21.141       43.063       20.509      446.943     1854.440      420.612        0.455        0.136       79.758       17.849        0.050      339.625       13.087      858.158
12/04/2014  14:00:00      -25.258       51.888       -3.760       52.359       49.305       22.948     2741.459     2430.935      526.612        0.452        0.285       57.708       21.750        0.142      339.484       12.850      858.159
12/04/2014  14:01:00     -128.321      -29.613      -16.163       64.039       53.515       26.692     4101.002     2863.889      712.487        1.264        0.384      131.694       27.900        0.045      339.443       12.778      858.164
12/04/2014  14:02:00      -69.116       94.945      -14.430       32.459       68.651       26.490     1053.586     4712.929      701.741        1.023        0.323      117.438       19.788        0.028      339.444       12.779      858.187
12/04/2014  14:03:00       -2.136      110.379      -13.536       28.156       35.572       19.991      792.749     1265.343      399.642        0.741        0.123      110.400       18.902        0.029      339.403       12.712      858.194
12/04/2014  14:04:00      -53.159       57.331       -9.834       41.364       46.805       28.813     1710.993     2190.709      830.215        0.547        0.237       78.184       30.291        0.150      339.491       12.861      858.223
12/04/2014  14:05:00       -1.208       65.877        7.621       30.393       56.891       28.049      923.719     3236.543      786.765        0.467        0.247       65.888       34.103        0.268      339.524       12.915      858.240
12/04/2014  14:06:00       -7.573      106.765        0.901      103.286       87.224       53.986    10667.953     7607.940     2914.541        1.632        1.060      107.033       54.815        0.262      339.509       12.890      858.206
12/04/2014  14:07:00     -348.877       29.872      -19.294      159.739      109.319       60.925    25516.556    11950.651     3711.810        8.207        2.059      350.153       72.318        0.043      339.539       12.938      858.203
12/04/2014  14:08:00     -153.988     -112.122        8.397      117.902      103.322       57.815    13900.939    10675.380     3342.623        3.213        1.396      190.482       67.789        0.127      339.597       13.036      858.262
12/04/2014  14:09:00     -123.857      -70.809        2.633      136.788       80.152       38.649    18711.051     6424.400     1493.748        2.349        1.331      142.670       49.138        0.119      339.517       12.904      858.287
12/04/2014  14:10:00      -45.964      -51.318        3.312       73.013       66.148       46.472     5330.947     4375.553     2159.668        0.831        0.593       68.893       39.995        0.337      339.652       13.134      858.287
12/04/2014  14:11:00      -70.992      -38.490        8.947       93.340       68.537       46.553     8712.332     4697.363     2167.136        1.109        0.779       80.755       52.095        0.416      339.616       13.071      858.292
12/04/2014  14:12:00     -167.664     -120.051      -10.478      103.816       60.614       48.630    10777.707     3674.017     2364.830        2.972        0.841      206.212       51.727        0.063      339.514       12.896      858.302
12/04/2014  14:13:00     -101.350      -32.703       -8.130       53.660       56.196       40.370     2879.358     3158.016     1629.764        0.954        0.383      106.496       31.712        0.089      339.525       12.916      858.298
12/04/2014  14:14:00     -219.091      -42.376      -15.445       91.935       71.714       35.715     8452.076     5142.882     1275.567        3.245        0.744      223.151       40.232        0.033      339.444       12.778      858.313
12/04/2014  14:15:00     -196.882      -72.290       -0.127      134.100       75.906       50.699    17982.721     5761.746     2570.385        3.515        1.316      209.734       65.620        0.098      339.466       12.814      858.333
12/04/2014  14:16:00     -145.060      -36.609        0.198       90.858       66.964       42.666     8255.184     4484.160     1820.424        1.847        0.728      149.608       47.220        0.100      339.500       12.875      858.342
12/04/2014  14:17:00     -155.257      -88.087        0.512      176.879       85.856       48.784    31286.036     7371.255     2379.862        3.644        2.052      178.505       71.691        0.161      339.504       12.882      858.367
12/04/2014  14:18:00     -177.255       -7.172        0.041      101.236       81.845       48.334    10248.777     6698.596     2336.128        2.537        0.964      177.400       48.521        0.075      339.466       12.816      858.369
12/04/2014  14:19:00     -201.483        5.028       -4.831       85.989       82.176       51.601     7394.058     6752.875     2662.647        2.872        0.840      201.545       41.689        0.043      339.526       12.917      858.388
12/04/2014  14:20:00     -390.478      -94.871        0.393      137.641      127.860       75.734    18945.115    16348.075     5735.646       10.124        2.051      401.838       67.525        0.028      339.372       12.656      858.404
12/04/2014  14:21:00     -314.561     -160.842        9.360      146.195      142.605       75.094    21373.037    20336.290     5639.129        8.612        2.367      353.297       62.813        0.032      339.329       12.583      858.451
12/04/2014  14:22:00     -231.852        8.031      -20.930      103.840      116.338       66.767    10782.775    13534.445     4457.801        4.151        1.439      231.991       58.397        0.063      339.389       12.685      858.475
12/04/2014  14:23:00     -240.974      -95.812        1.738      159.200      111.506       69.211    25344.672    12433.498     4790.172        5.490        2.128      259.323       83.338        0.103      339.368       12.650      858.497
12/04/2014  14:24:00     -170.852      -29.207       21.257      145.178      102.485       69.611    21076.650    10503.141     4845.628        3.345        1.821      173.330       79.855        0.212      339.339       12.601      858.491
12/04/2014  14:25:00     -220.071      -81.768       -1.335      156.559      143.017       76.599    24510.663    20453.910     5867.469        5.297        2.542      234.771       80.447        0.117      339.275       12.495      858.515
12/04/2014  14:26:00     -209.265      -84.267       19.055      185.766      129.977       74.283    34508.845    16894.044     5517.998        5.408        2.846      225.595      100.698        0.199      339.268       12.482      858.520
12/04/2014  14:27:00     -184.046       21.709       13.273      211.189       78.733       77.107    44600.689     6198.922     5945.532        4.562        2.837      185.322       99.754        0.290      339.289       12.519      858.544
12/04/2014  14:28:00     -147.014      -39.915        0.705      131.936      142.080       53.709    17406.998    20186.686     2884.670        3.183        2.024      152.336       57.562        0.143      339.256       12.465      858.545
12/04/2014  14:29:00     -461.599      -86.528      -13.793      162.777      152.552       80.244    26496.513    23272.081     6439.100       13.847        2.810      469.639       77.908        0.028      339.069       12.149      858.528
12/04/2014  14:30:00     -267.497       -7.658       -1.528      164.689      126.351       71.053    27122.612    15964.541     5048.503        5.987        2.407      267.606       73.278        0.075      339.121       12.236      858.560
12/04/2014  14:31:00     -244.898     -113.959       -9.539      154.317      120.768       68.195    23813.634    14584.896     4650.552        5.804        2.152      270.114       76.617        0.080      339.062       12.137      858.588
12/04/2014  14:32:00     -261.591        0.137      -13.605      232.480      110.459       73.569    54046.943    12201.265     5412.434        7.012        3.583      261.591      103.091        0.155      339.065       12.142      858.596
12/04/2014  14:33:00     -321.397     -189.508       -2.849      183.143      170.823       94.762    33541.497    29180.607     8979.801       10.545        3.585      373.108      109.858        0.087      338.955       11.955      858.579
12/04/2014  14:34:00     -421.987      -76.811      -12.377      155.042      183.365       82.705    24038.083    33622.778     6840.079       12.430        3.225      428.921       66.452        0.024      338.930       11.913      858.556
12/04/2014  14:35:00     -465.280     -137.434      -21.274      169.366      128.662       67.627    28684.814    16553.970     4573.344       14.281        2.491      485.153       78.245        0.026      338.936       11.922      858.547
12/04/2014  14:36:00     -378.639      -79.488      -35.225      163.205      123.961       64.532    26635.822    15366.312     4164.423        9.854        2.308      386.893       72.909        0.036      338.998       12.028      858.526
12/04/2014  14:37:00     -315.622      -70.280      -19.714      167.512      140.228       68.163    28060.205    19663.972     4646.175        7.865        2.619      323.352       68.918        0.045      339.031       12.084      858.543
12/04/2014  14:38:00     -381.081     -112.504      -20.608      162.006      132.062       69.957    26245.831    17440.257     4893.966       10.343        2.429      397.341       77.400        0.038      339.008       12.045      858.560
12/04/2014  14:39:00     -329.018      -70.788       -4.628      187.226      124.228       74.292    35053.466    15432.658     5519.252        8.463        2.800      336.547       81.490        0.059      339.018       12.062      858.556
12/04/2014  14:40:00     -359.465      -31.560      -29.629      199.375      128.977       77.102    39750.244    16635.134     5944.712        9.670        3.117      360.848       87.127        0.058      338.999       12.029      858.564
12/04/2014  14:41:00     -233.438     -110.522       -1.172      165.454      118.334       68.849    27375.028    14002.875     4740.184        5.640        2.306      258.280       74.146        0.082      339.104       12.205      858.621
12/04/2014  14:42:00     -185.998      -75.593        8.230      173.010       93.996       55.889    29932.361     8835.193     3123.632        4.113        2.095      200.772       67.295        0.112      339.207       12.382      858.617
12/04/2014  14:43:00     -282.061      -17.052      -10.707      111.517      117.032       55.069    12435.966    13696.409     3032.586        5.456        1.458      282.576       46.866        0.028      339.154       12.289      858.620
12/04/2014  14:44:00     -142.633     -177.653       -3.776      120.694      119.978       58.932    14567.029    14394.775     3473.038        4.217        1.622      227.826       65.911        0.084      339.168       12.316      858.615
12/04/2014  14:45:00     -263.074     -136.733      -19.526       99.982       98.812       57.894     9996.306     9763.825     3351.748        5.569        1.156      296.486       42.908        0.021      339.206       12.377      858.589
12/04/2014  14:46:00     -297.749      -10.446      -10.045      220.082      114.019       77.579    48436.131    13000.224     6018.474        7.815        3.373      297.932       88.476        0.088      339.244       12.441      858.575
12/04/2014  14:47:00     -414.910      -16.048      -16.164      177.595      144.357       72.779    31540.122    20838.805     5296.798       11.516        2.884      415.220       64.246        0.024      339.240       12.434      858.538
12/04/2014  14:48:00     -427.271       -3.754      -23.442      134.828      123.041       77.418    18178.689    15139.078     5993.518       11.121        1.966      427.288       73.328        0.029      339.251       12.455      858.546
12/04/2014  14:49:00     -330.104      -41.381       -9.028      142.692      134.116       80.530    20360.895    17987.086     6485.123        7.779        2.242      332.688       77.735        0.055      339.258       12.464      858.548
12/04/2014  14:50:00     -470.079     -231.460      -30.409      146.020      125.467       64.265    21321.725    15741.914     4129.981       15.833        2.060      523.974       55.295        0.011      339.121       12.236      858.591
12/04/2014  14:51:00     -367.207     -245.852      -19.974      173.911      146.660       89.329    30245.127    21509.055     7979.641       12.770        2.987      441.909       92.593        0.044      339.109       12.215      858.644
12/04/2014  14:52:00     -199.115      -82.210      -12.918      121.223      135.782       60.188    14695.040    18436.632     3622.647        4.166        1.838      215.418       41.009        0.036      339.293       12.523      858.645
12/04/2014  14:53:00     -202.872      -76.826       18.392      221.314      153.944       78.277    48980.092    23698.688     6127.342        6.309        3.940      216.932      103.662        0.228      339.319       12.568      858.661
12/04/2014  14:54:00     -443.744     -128.698      -24.040      163.445      111.429       70.222    26714.403    12416.478     4931.096       12.905        2.203      462.031       73.209        0.025      339.027       12.077      858.684
12/04/2014  14:55:00     -312.395      -88.955       -5.953      169.150       88.207       62.175    28611.862     7780.455     3865.707        7.289        2.013      324.813       63.561        0.038      339.018       12.062      858.705
12/04/2014  14:56:00     -225.573      -46.247       -1.793      114.013      106.129       63.251    12999.008    11263.322     4000.629        4.064        1.413      230.265       57.645        0.063      339.125       12.242      858.707
12/04/2014  14:57:00     -305.341      -45.828      -26.505      112.895      112.369       56.519    12745.299    12626.800     3194.349        6.230        1.428      308.761       47.707        0.024      339.109       12.213      858.740
12/04/2014  14:58:00     -214.275     -121.542       -0.973      171.967      157.702       65.713    29572.628    24869.861     4318.144        5.971        2.938      246.346       82.871        0.113      339.156       12.296      858.735
12/04/2014  14:59:00     -249.878      -32.137       -2.109      133.571      140.216       57.058    17841.192    19660.413     3255.655        5.211        2.038      251.936       60.911        0.058      339.068       12.146      858.780
12/04/2014  15:00:00     -331.765      -80.968      -11.935      115.433      107.481       57.984    13324.879    11552.235     3362.123        7.250        1.412      341.503       60.526        0.031      339.040       12.098      858.802
12/04/2014  15:01:00     -246.020        0.026      -13.911       96.892       96.493       53.079     9387.995     9310.979     2817.334        4.111        1.076      246.020       55.787        0.051      339.044       12.104      858.814
12/04/2014  15:02:00     -270.492      -22.638      -14.589      101.982       73.084       35.962    10400.421     5341.207     1293.240        4.546        0.852      271.438       40.113        0.022      339.049       12.114      858.819
12/04/2014  15:03:00     -322.884      -69.021      -17.504       95.720       75.982       42.547     9162.331     5773.206     1810.218        6.303        0.837      330.179       41.614        0.016      339.021       12.066      858.831
12/04/2014  15:04:00     -193.788      -92.131       -0.791      115.582       76.613       51.527    13359.180     5869.572     2655.047        3.396        1.094      214.574       52.230        0.059      339.048       12.112      858.841
12/04/2014  15:05:00     -404.922      -17.916      -29.595      185.719      126.549       59.903    34491.719    16014.540     3588.387       10.962        2.705      405.319       72.579        0.032      338.993       12.018      858.843
12/04/2014  15:06:00     -252.660      -92.350        2.521      123.522       90.936       56.092    15257.808     8269.269     3146.313        4.952        1.334      269.009       59.034        0.048      339.016       12.058      858.851
12/04/2014  15:07:00     -265.133      -65.211        1.638      105.603      112.616       54.472    11151.984    12682.349     2967.221        5.067        1.340      273.035       43.657        0.026      339.024       12.071      858.854
12/04/2014  15:08:00     -484.987      -43.294      -43.838      146.322       98.365       68.833    21410.009     9675.697     4738.021       13.741        1.791      486.916       73.642        0.023      338.938       11.926      858.865
12/04/2014  15:09:00     -208.915       -7.245      -21.274      101.965       85.679       51.065    10396.928     7340.809     2607.632        3.224        1.017      209.041       48.299        0.053      338.991       12.017      858.852
12/04/2014  15:10:00     -258.318      -13.707       -7.968      102.862       64.418       50.252    10580.513     4149.732     2525.294        4.211        0.863      258.682       54.936        0.045      338.991       12.017      858.873
12/04/2014  15:11:00     -146.294      -47.114       -1.584      115.437       86.626       51.434    13325.610     7504.020     2645.467        2.354        1.174      153.693       53.341        0.120      339.023       12.071      858.890
12/04/2014  15:12:00     -386.924      -77.601      -28.054      107.217      126.082       54.898    11495.409    15896.740     3013.815        9.346        1.520      394.629       52.506        0.018      338.914       11.887      858.892
12/04/2014  15:13:00     -334.947      -66.148       -8.184      140.477       89.782       53.323    19733.914     8060.804     2843.290        7.363        1.532      341.416       58.345        0.029      338.917       11.891      858.902
12/04/2014  15:14:00     -230.259      -59.057      -18.652       81.831       67.047       51.782     6696.316     4495.290     2681.336        3.536        0.694      237.712       37.714        0.025      338.950       11.947      858.917
12/04/2014  15:15:00     -235.903     -104.021        1.566       85.779       85.364       53.017     7357.957     7286.941     2810.754        4.196        0.873      257.819       45.335        0.031      338.940       11.930      858.925
12/04/2014  15:16:00     -218.157       10.403      -16.043       81.162       92.522       46.652     6587.217     8560.237     2176.446        3.264        0.866      218.405       41.526        0.036      338.949       11.944      858.928
12/04/2014  15:17:00     -305.493      -48.220      -17.928       75.892      109.636       46.590     5759.558    12019.983     2170.590        5.796        0.998      309.275       41.028        0.018      338.935       11.922      858.938
12/04/2014  15:18:00     -161.570      -30.906       -1.965      145.658      113.666       57.585    21216.162    12920.065     3316.086        3.225        1.873      164.500       62.596        0.145      338.968       11.978      858.949
12/04/2014  15:19:00     -283.779      -20.550      -23.352      119.050       87.673       48.024    14172.853     7686.510     2306.297        5.283        1.208      284.522       41.540        0.021      338.954       11.954      858.964
12/04/2014  15:20:00     -310.646      -59.601      -16.750      120.845      105.246       54.965    14603.594    11076.716     3021.171        6.451        1.435      316.312       61.917        0.038      338.950       11.948      858.967
12/04/2014  15:21:00     -289.365      -24.801       -9.678      141.904       90.400       66.589    20136.692     8172.128     4434.068        5.859        1.637      290.425       71.841        0.061      338.965       11.971      858.964
12/04/2014  15:22:00     -233.749      -22.459      -13.017      141.928       94.657       52.560    20143.554     8959.901     2762.599        4.358        1.593      234.826       62.138        0.070      339.014       12.055      858.979
12/04/2014  15:23:00     -207.936     -114.106      -11.109      126.705       96.362       60.929    16054.141     9285.577     3712.318        4.271        1.453      237.187       54.092        0.052      339.031       12.084      858.994
12/04/2014  15:24:00     -232.894     -117.201      -17.677      153.169      122.504       68.571    23460.654    15007.330     4701.920        5.572        2.158      260.722       72.293        0.077      339.048       12.112      858.983
12/04/2014  15:25:00     -158.134      -40.185       -2.126       89.659       88.785       61.210     8038.812     7882.688     3746.624        2.314        0.983      163.160       60.781        0.139      339.132       12.254      858.980
12/04/2014  15:26:00     -117.036       13.212        9.401      106.236       74.727       42.894    11286.075     5584.066     1839.860        1.633        0.936      117.780       34.803        0.087      339.169       12.317      858.994
12/04/2014  15:27:00     -330.238      -22.347      -22.287      224.338      167.255       60.240    50327.690    27974.104     3628.820        9.598        4.097      330.993       67.411        0.041      339.124       12.241      858.989
12/04/2014  15:28:00     -496.754     -104.588      -33.801      162.695      189.058       67.949    26469.727    35743.100     4617.007       16.282        3.341      507.645       74.601        0.022      339.064       12.138      858.984
12/04/2014  15:29:00     -463.957      -64.037      -15.789      170.944      165.811       80.230    29221.823    27493.285     6436.805       14.137        3.158      468.355       77.659        0.027      339.034       12.089      858.989
12/04/2014  15:30:00     -408.492     -115.518       -7.083      192.066      148.258       80.505    36889.260    21980.583     6481.088       12.279        3.268      424.512       90.415        0.045      339.029       12.081      858.983
12/04/2014  15:31:00     -376.875     -136.800      -14.837      179.082      127.582       79.053    32070.465    16277.076     6249.412       10.777        2.730      400.935       92.628        0.053      339.019       12.062      859.009
12/04/2014  15:32:00     -328.389     -139.726      -16.634      150.610      109.142       69.400    22683.343    11912.041     4816.356        8.352        1.971      356.879       60.215        0.028      339.005       12.040      859.002
12/04/2014  15:33:00     -283.961      -91.994       -4.248      136.019      104.479       59.161    18501.280    10915.947     3500.045        6.101        1.646      298.491       64.766        0.047      339.042       12.102      859.007
12/04/2014  15:34:00     -301.744      -36.172      -30.390      150.915      131.717       61.104    22775.345    17349.385     3733.697        6.856        2.193      303.905       66.244        0.048      339.030       12.081      859.005
12/04/2014  15:35:00     -272.849        7.585        0.104      141.986       95.577       64.991    20160.052     9134.951     4223.786        5.400        1.676      272.954       69.069        0.064      339.058       12.129      859.014
12/04/2014  15:36:00     -276.775      -71.616       -9.938      112.451      110.649       59.447    12645.131    12243.136     3533.932        5.512        1.421      285.890       53.080        0.034      339.041       12.100      859.021
12/04/2014  15:37:00     -206.574     -172.649      -14.953      120.229      112.939       63.580    14454.919    12755.263     4042.371        5.197        1.563      269.222       52.692        0.038      339.099       12.197      859.031
12/04/2014  15:38:00     -249.330      -39.621      -18.673      127.099      130.058       68.621    16154.096    16915.034     4708.802        5.092        1.889      252.458       58.192        0.053      339.038       12.096      859.039
12/04/2014  15:39:00     -282.402      -71.120      -12.591      136.098      104.903       61.835    18522.536    11004.539     3823.613        5.915        1.668      291.220       61.114        0.044      339.038       12.096      859.042
12/04/2014  15:40:00     -238.227      -40.989       -5.249      165.132      132.797       61.941    27268.483    17635.099     3836.627        5.359        2.437      241.728       79.856        0.109      339.016       12.059      859.047
12/04/2014  15:41:00     -496.413      -25.462      -42.211      185.695      152.260       81.793    34482.466    23183.158     6690.135       15.659        3.218      497.065       88.368        0.032      338.902       11.866      859.048
12/04/2014  15:42:00     -276.476      -62.488      -10.772      130.480      113.287       63.116    17024.910    12833.929     3983.686        5.714        1.692      283.450       66.291        0.055      338.930       11.912      859.064
12/04/2014  15:43:00     -223.487       -9.775        1.865      135.275       90.039       60.398    18299.219     8107.041     3647.938        4.004        1.503      223.700       64.292        0.083      338.939       11.928      859.082
12/04/2014  15:44:00     -157.728      -35.847       -0.614      118.702      112.803       60.608    14090.140    12724.564     3673.282        2.832        1.524      161.751       60.955        0.142      338.958       11.962      859.087
12/04/2014  15:45:00     -271.465      -92.922      -18.432      202.831      122.237       81.025    41140.587    14941.832     6565.069        7.264        3.132      286.928       92.117        0.103      338.885       11.839      859.082
12/04/2014  15:46:00     -269.575      -85.386       -9.939      155.618      132.530       62.351    24216.825    17564.221     3887.691        6.286        2.283      282.774       66.887        0.056      338.877       11.826      859.105
12/04/2014  15:47:00     -401.364      -77.721      -37.492      163.714      111.944       63.270    26802.430    12531.446     4003.119       10.593        2.167      408.820       58.169        0.020      338.867       11.807      859.105
12/04/2014  15:48:00     -300.787     -126.181      -12.666      194.283      131.746       93.674    37746.018    17356.946     8774.831        8.520        3.194      326.181      107.884        0.109      338.891       11.848      859.098
12/04/2014  15:49:00     -263.905      -88.954        1.930      144.124      119.514       66.453    20771.602    14283.486     4416.022        5.851        1.974      278.493       75.569        0.074      338.885       11.836      859.126
12/04/2014  15:50:00     -164.506      -39.261        6.255       98.287      105.570       58.638     9660.328    11145.041     3438.432        2.644        1.212      169.126       53.530        0.100      338.911       11.882      859.140
12/04/2014  15:51:00     -178.853       -7.050        5.213      126.438       89.004       63.317    15986.543     7921.749     4009.030        2.999        1.396      178.992       59.199        0.109      338.902       11.866      859.167
12/04/2014  15:52:00     -266.881      -49.829      -14.860      137.107      113.514       64.752    18798.223    12885.457     4192.799        5.490        1.794      271.493       71.755        0.070      338.842       11.765      859.192
12/04/2014  15:53:00     -242.394      -50.527       -0.301      141.972       83.076       64.609    20156.178     6901.585     4174.355        4.626        1.562      247.604       76.448        0.095      338.851       11.780      859.203
12/04/2014  15:54:00     -234.196      -40.011       -0.749      158.170      124.512       59.750    25017.766    15503.224     3570.121        5.026        2.205      237.589       73.679        0.096      338.861       11.798      859.200
12/04/2014  15:55:00     -369.591      -40.399      -25.082      137.120      106.777       66.725    18801.856    11401.232     4452.209        8.675        1.733      371.792       73.964        0.040      338.796       11.687      859.214
12/04/2014  15:56:00     -309.757      -52.114       -6.469      115.182      122.212       66.368    13266.923    14935.858     4404.695        6.565        1.630      314.110       70.246        0.050      338.788       11.674      859.233
12/04/2014  15:57:00     -153.110      -17.907       -3.894      141.821       85.143       54.196    20113.186     7249.369     2937.245        2.703        1.515      154.153       60.171        0.152      338.796       11.689      859.248
12/04/2014  15:58:00     -293.134      -25.956      -28.148       94.784      111.509       52.749     8984.055    12434.277     2782.433        5.579        1.210      294.281       56.713        0.037      338.762       11.631      859.256
12/04/2014  15:59:00     -270.441      -25.324      -15.512      106.191       86.689       52.260    11276.473     7514.905     2731.071        4.777        1.076      271.624       48.325        0.032      338.731       11.579      859.250
12/04/2014  16:00:00     -307.867       15.830      -20.432      146.012      106.531       61.609    21319.510    11348.816     3795.690        6.595        1.823      308.274       61.408        0.040      338.701       11.528      859.255
12/04/2014  16:01:00     -294.673      -70.920      -14.503      131.869       89.408       58.310    17389.518     7993.735     3400.114        6.042        1.439      303.087       64.150        0.045      338.692       11.511      859.280
12/04/2014  16:02:00     -333.200     -103.487      -14.116      159.293      117.015       71.696    25374.366    13692.550     5140.363        8.306        2.210      348.901       88.667        0.065      338.686       11.502      859.308
12/04/2014  16:03:00     -263.390      -54.265      -20.256      105.850       84.228       51.573    11204.257     7094.281     2659.761        4.684        1.048      268.922       47.285        0.031      338.686       11.503      859.312
12/04/2014  16:04:00     -252.413      -36.321      -10.138      132.617       94.334       55.718    17587.211     8898.870     3104.472        4.736        1.480      255.013       62.012        0.059      338.643       11.430      859.316
12/04/2014  16:05:00     -216.851      -30.048        9.263      127.292       95.623       60.083    16203.308     9143.704     3609.949        3.848        1.448      218.923       50.830        0.054      338.622       11.397      859.314
12/04/2014  16:06:00     -420.763      -32.881      -20.906      115.913       78.312       53.262    13435.841     6132.808     2836.848       10.048        1.120      422.046       48.768        0.013      338.607       11.369      859.326
12/04/2014  16:07:00     -298.781     -152.793      -14.534      123.978      104.796       57.734    15370.555    10982.224     3333.239        7.125        1.484      335.583       27.325        0.007      338.595       11.350      859.334
12/04/2014  16:08:00     -386.685      -23.048      -23.764      135.282       91.709       58.741    18301.211     8410.538     3450.544        9.039        1.508      387.372       69.327        0.032      338.583       11.330      859.363
12/04/2014  16:09:00     -161.732      -46.941       11.564      165.789      109.230       56.822    27485.957    11931.160     3228.743        3.556        2.132      168.406       77.403        0.211      338.581       11.327      859.361
12/04/2014  16:10:00     -263.657      -57.887       -8.523      134.655       94.035       55.444    18132.099     8842.496     3074.040        5.149        1.502      269.937       51.942        0.037      338.576       11.318      859.387
12/04/2014  16:11:00     -277.001      -72.169      -12.808      101.821       97.793       48.986    10367.542     9563.513     2399.655        5.221        1.117      286.248       49.388        0.030      338.557       11.286      859.388
12/04/2014  16:12:00     -326.489        0.218      -11.264      129.596       99.208       59.836    16795.030     9842.150     3580.380        6.846        1.511      326.489       60.122        0.034      338.553       11.279      859.390
12/04/2014  16:13:00     -335.187      -48.905      -24.967      113.438      106.515       50.996    12868.244    11345.435     2600.641        7.108        1.341      338.736       49.584        0.021      338.553       11.279      859.393
12/04/2014  16:14:00     -316.859      -38.871      -11.319      162.683      153.736       60.026    26465.709    23634.708     3603.136        7.786        2.685      319.234       70.649        0.049      338.541       11.259      859.380
12/04/2014  16:15:00     -357.670      -43.716      -16.327      107.594      107.554       64.087    11576.505    11567.953     4107.091        7.867        1.363      360.332       54.027        0.022      338.532       11.244      859.370
12/04/2014  16:16:00     -364.198      -52.482      -28.613      174.759      125.814       66.993    30540.595    15829.095     4488.017        9.353        2.543      367.960       73.734        0.040      338.522       11.228      859.356
12/04/2014  16:17:00     -317.096      -10.901      -16.318      115.937      114.362       65.193    13441.327    13078.735     4250.063        6.585        1.539      317.284       64.297        0.041      338.512       11.210      859.369
12/04/2014  16:18:00     -355.301      -56.481      -33.297      117.649      112.298       50.484    13841.202    12610.775     2548.616        7.976        1.450      359.763       39.639        0.012      338.510       11.204      859.374
12/04/2014  16:19:00     -322.131      -30.691      -16.197      146.737      157.220       72.691    21531.827    24717.985     5284.040        7.824        2.577      323.590       77.314        0.057      338.515       11.216      859.391
12/04/2014  16:20:00     -251.509       -6.745      -12.350       99.779       76.698       53.090     9955.886     5882.587     2818.587        4.105        0.933      251.599       49.152        0.038      338.510       11.206      859.428
12/04/2014  16:21:00     -255.148      -31.737      -30.936      138.781       91.520       47.356    19260.034     8375.897     2242.603        4.847        1.494      257.115       53.184        0.043      338.510       11.208      859.452
12/04/2014  16:22:00     -258.900      -85.307      -13.759      123.936      123.299       67.968    15360.066    15202.699     4619.710        5.483        1.759      272.592       68.687        0.063      338.508       11.204      859.458
12/04/2014  16:23:00     -364.560       10.968      -27.719       82.504       94.123       49.270     6806.845     8859.102     2427.563        7.594        0.905      364.725       48.749        0.018      338.505       11.199      859.467
12/04/2014  16:24:00     -317.033      -83.728      -21.139      153.442      116.294       63.537    23544.368    13524.238     4036.927        7.453        2.055      327.903       70.394        0.046      338.505       11.200      859.449
12/04/2014  16:25:00     -231.175      -32.498       -9.595      111.398       82.452       47.166    12409.421     6798.314     2224.609        3.801        1.072      233.448       51.808        0.049      338.482       11.159      859.452
12/04/2014  16:26:00     -341.290     -101.193       -9.922      122.912      106.270       66.356    15107.345    11293.311     4403.098        7.880        1.540      355.976       67.196        0.036      338.484       11.164      859.463
12/04/2014  16:27:00     -298.030      -61.158       -2.444      127.684       92.807       48.931    16303.210     8613.050     2394.256        5.993        1.366      304.240       49.899        0.027      338.488       11.171      859.466
12/04/2014  16:28:00     -364.060     -102.276      -11.371      131.634      107.952       63.842    17327.415    11653.670     4075.864        8.809        1.653      378.154       60.415        0.026      338.482       11.160      859.480
12/04/2014  16:29:00     -314.899      -42.434        3.304      141.786      111.734       75.053    20103.143    12484.569     5632.931        6.959        1.911      317.745       77.153        0.059      338.463       11.128      859.484
12/04/2014  16:30:00     -345.228      -52.187      -16.392      108.502       93.884       49.177    11772.594     8814.118     2418.417        7.259        1.150      349.150       48.284        0.019      338.462       11.124      859.504
12/04/2014  16:31:00     -105.527       -1.531       13.562      116.334       70.694       45.674    13533.640     4997.666     2086.099        1.597        1.031      105.538       46.163        0.191      338.433       11.080      859.506
12/04/2014  16:32:00     -233.617      -72.367       -2.035      113.093      104.082       57.371    12790.106    10833.063     3291.457        4.336        1.346      244.568       46.519        0.036      338.446       11.100      859.486
12/04/2014  16:33:00     -298.145     -116.044      -14.947      112.998       98.456       50.726    12768.523     9693.663     2573.119        6.380        1.252      319.932       50.681        0.025      338.437       11.084      859.495
12/04/2014  16:34:00     -241.996      -32.154       -2.978      140.237       99.136       59.288    19666.437     9827.878     3515.027        4.630        1.650      244.123       53.207        0.048      338.433       11.079      859.483
12/04/2014  16:35:00     -311.809     -137.144      -18.282      120.038      156.055       56.559    14409.044    24353.185     3198.968        7.916        2.098      340.637       54.321        0.025      338.436       11.081      859.510
12/04/2014  16:36:00     -287.531      -22.566       -9.037      156.801       94.185       67.488    24586.466     8870.774     4554.662        6.063        1.901      288.415       70.679        0.060      338.431       11.076      859.536
12/04/2014  16:37:00     -301.939     -100.433      -16.778      128.225      123.668       69.053    16441.547    15293.819     4768.363        6.901        1.825      318.204       66.793        0.044      338.452       11.108      859.563
12/04/2014  16:38:00     -222.498      -21.997      -15.188      132.266      124.413       62.326    17494.397    15478.517     3884.558        4.353        1.843      223.583       60.819        0.074      338.440       11.090      859.583
12/04/2014  16:39:00     -159.909      -51.121        2.285      156.150       88.963       67.832    24382.857     7914.446     4601.181        3.254        1.845      167.881       84.568        0.254      338.425       11.064      859.571
12/04/2014  16:40:00     -249.927      -22.640      -19.851      126.390       79.505       47.533    15974.388     6320.999     2259.343        4.396        1.228      250.951       53.090        0.045      338.415       11.048      859.574
12/04/2014  16:41:00     -307.557      -54.513      -17.756      101.763       99.899       49.885    10355.644     9979.901     2488.496        6.035        1.141      312.351       54.801        0.031      338.397       11.017      859.561
12/04/2014  16:42:00     -221.510      -43.960       -3.183      110.680       85.119       56.749    12250.073     7245.293     3220.467        3.686        1.136      225.830       55.819        0.061      338.365       10.963      859.544
12/04/2014  16:43:00     -341.552      -77.512      -17.794      108.696       99.244       60.682    11814.858     9849.424     3682.347        7.416        1.267      350.237       56.583        0.026      338.397       11.016      859.530
12/04/2014  16:44:00     -143.877       -4.430       -3.601       74.028       73.028       44.646     5480.099     5333.042     1993.255        1.677        0.640      143.945       35.416        0.061      338.346       10.935      859.504
12/04/2014  16:45:00     -289.379      -51.014      -27.085       89.730       71.566       42.375     8051.436     5121.679     1795.602        5.102        0.748      293.841       46.875        0.025      338.355       10.948      859.496
12/04/2014  16:46:00     -338.699      -99.046      -17.021      114.573      101.206       47.772    13126.872    10242.737     2282.156        7.523        1.283      352.884       47.539        0.018      338.350       10.938      859.477
12/04/2014  16:47:00     -258.540      -27.135       -7.862      106.987       74.952       56.242    11446.159     5617.822     3163.164        4.393        1.011      259.960       50.908        0.038      338.333       10.909      859.509
12/04/2014  16:48:00     -171.437      -15.661       -0.159       86.742       69.883       49.403     7524.224     4883.576     2440.624        2.224        0.742      172.151       49.865        0.084      338.345       10.932      859.533
12/04/2014  16:49:00     -211.989      -64.260       -2.420       96.853       90.413       46.435     9380.480     8174.492     2156.175        3.439        0.986      221.515       45.663        0.042      338.306       10.865      859.518
12/04/2014  16:50:00     -266.457      -28.031      -11.055      127.395       81.690       48.499    16229.404     6673.295     2352.115        4.858        1.263      267.928       48.949        0.033      338.308       10.869      859.524
12/04/2014  16:51:00     -131.249      -12.433        4.009      104.241       92.449       50.680    10866.139     8546.846     2568.428        1.968        1.099      131.836       55.012        0.174      338.313       10.879      859.518
12/04/2014  16:52:00     -304.286      -96.806      -19.714      173.848      150.150       61.602    30223.107    22545.074     3794.792        7.945        2.828      319.314       78.412        0.060      338.313       10.876      859.515
12/04/2014  16:53:00     -216.475      -67.053       -9.519      127.006       88.766       56.916    16130.418     7879.474     3239.421        3.934        1.362      226.622       66.975        0.087      338.310       10.873      859.543
12/04/2014  16:54:00     -180.610      -28.527      -23.413       85.237       63.209       40.872     7265.416     3995.378     1670.492        2.345        0.647      182.849       33.316        0.033      338.332       10.909      859.551
12/04/2014  16:55:00     -338.986      -12.442      -26.764      135.209      119.628       64.967    18281.377    14310.868     4220.651        7.629        1.841      339.214       54.495        0.026      338.345       10.931      859.548
12/04/2014  16:56:00     -271.106        1.588      -26.843      140.761       89.304       62.203    19813.611     7975.160     3869.165        5.293        1.583      271.111       64.325        0.056      338.353       10.944      859.551
12/04/2014  16:57:00     -228.368      -42.893      -11.746      104.397       99.752       60.362    10898.671     9950.408     3643.585        3.931        1.225      232.361       56.563        0.059      338.335       10.915      859.543
12/04/2014  16:58:00     -236.927      -42.363       -7.198      119.289      100.371       65.528    14229.860    10074.260     4293.938        4.328        1.430      240.685       63.883        0.070      338.333       10.912      859.535
12/04/2014  16:59:00     -250.969      -41.523        1.012      127.118      122.653       67.418    16159.063    15043.652     4545.178        5.022        1.787      254.381       68.380        0.072      338.351       10.940      859.550
12/04/2014  17:00:00     -254.755      -57.014       -8.091      145.730      133.336       56.546    21237.320    17778.567     3197.430        5.521        2.111      261.057       60.809        0.054      338.380       10.989      859.565
12/04/2014  17:01:00     -329.805        1.333      -10.155      156.511      109.724       71.037    24495.579    12039.294     5046.319        7.522        2.079      329.807       79.255        0.058      338.382       10.991      859.573
12/04/2014  17:02:00     -263.852     -115.440        0.425      136.515      119.326       66.191    18636.477    14238.588     4381.289        6.009        1.863      288.000       68.883        0.057      338.347       10.934      859.584
12/04/2014  17:03:00     -249.769     -105.116       -7.363      123.547      105.239       59.288    15263.857    11075.328     3515.043        5.167        1.493      270.987       65.138        0.058      338.350       10.938      859.593
12/04/2014  17:04:00     -266.165     -126.322      -14.260      121.360       93.203       57.806    14728.132     8686.769     3341.511        5.688        1.338      294.620       56.477        0.037      338.343       10.929      859.597
12/04/2014  17:05:00     -202.082     -167.373       -1.505       95.072       93.421       60.413     9038.726     8727.405     3649.759        4.513        1.071      262.395       49.254        0.035      338.333       10.910      859.598
12/04/2014  17:06:00      -42.259      -10.221       19.788       87.325       97.515       52.120     7625.638     9509.185     2716.510        1.106        0.993       43.477       42.412        0.952      338.345       10.933      859.611
12/04/2014  17:07:00     -193.813      -60.909       -2.115       82.267       52.577       42.015     6767.850     2764.321     1765.274        2.629        0.565      203.159       41.108        0.041      338.284       10.829      859.593
12/04/2014  17:08:00     -162.547     -103.837        2.497      116.017       59.826       48.266    13460.037     3579.125     2329.622        2.829        0.968      192.882       50.184        0.068      338.302       10.859      859.580
12/04/2014  17:09:00     -248.693      -63.894       -0.668      153.975      126.722       63.557    23708.379    16058.495     4039.491        5.486        2.190      256.769       65.232        0.065      338.326       10.900      859.579
12/04/2014  17:10:00     -165.040      -54.503        1.836      112.018      120.558       50.630    12547.947    14534.223     2563.386        2.992        1.482      173.806       50.123        0.083      338.358       10.954      859.574
12/04/2014  17:11:00     -134.140     -127.072       -5.933      116.306       87.917       54.535    13527.173     7729.482     2974.083        2.920        1.212      184.772       51.194        0.077      338.310       10.872      859.558
12/04/2014  17:12:00     -156.200      -50.137        1.285      123.703       75.329       54.940    15302.553     5674.503     3018.454        2.545        1.200      164.050       63.535        0.150      338.289       10.837      859.585
12/04/2014  17:13:00     -123.935      -70.743        6.728       89.008       73.804       43.178     7922.443     5447.045     1864.315        1.782        0.762      142.704       36.488        0.065      338.284       10.831      859.618
12/04/2014  17:14:00     -185.768      -62.428        0.078       70.860       92.191       47.151     5021.084     8499.200     2223.247        2.707        0.787      195.977       36.661        0.035      338.306       10.865      859.646
12/04/2014  17:15:00     -157.941      -73.789       -9.437       71.303       58.454       37.544     5084.184     3416.869     1409.582        2.019        0.496      174.328       34.341        0.039      338.271       10.808      859.687
12/04/2014  17:16:00      -56.672      -87.451       12.060       92.407       56.794       49.145     8539.056     3225.564     2415.190        1.259        0.709      104.208       47.385        0.207      338.259       10.789      859.732
12/04/2014  17:17:00     -177.695      -40.148       -2.919      107.295       84.704       42.864    11512.188     7174.701     1837.338        2.686        1.026      182.175       45.210        0.062      338.276       10.816      859.761
12/04/2014  17:18:00     -200.748      -44.611       -4.709       99.894       92.627       50.292     9978.752     8579.798     2529.291        3.170        1.054      205.645       52.102        0.064      338.271       10.806      859.777
12/04/2014  17:19:00     -233.931      -57.652      -11.931      109.163       77.881       47.931    11916.621     6065.411     2297.410        3.923        1.014      240.931       40.914        0.029      338.258       10.784      859.803
12/04/2014  17:20:00     -168.154     -117.196      -11.905       87.063       67.528       44.141     7579.989     4560.013     1948.402        2.812        0.704      204.965       46.797        0.052      338.274       10.812      859.824
12/04/2014  17:21:00     -108.768      -91.255      -15.423       94.285       63.874       46.885     8889.738     4079.915     2198.163        1.778        0.758      141.978       44.816        0.100      338.249       10.771      859.843
12/04/2014  17:22:00     -123.149      -30.794        4.493      109.582       56.506       41.420    12008.150     3192.927     1715.615        1.652        0.846      126.940       44.751        0.124      338.205       10.696      859.883
12/04/2014  17:23:00     -121.446      -52.746       -2.537       89.912       94.503       44.426     8084.231     8930.897     1973.676        1.826        0.949      132.406       46.113        0.121      338.232       10.743      859.889
12/04/2014  17:24:00      -18.543      -28.553       28.644       68.413       46.493       40.253     4680.332     2161.555     1620.337        0.522        0.423       34.046       45.468        1.784      338.204       10.697      859.915
12/04/2014  17:25:00      -18.126      -69.164        8.440       51.498       79.582       31.693     2652.051     6333.288     1004.441        0.758        0.499       71.500       40.442        0.320      338.197       10.684      859.915
12/04/2014  17:26:00     -178.277      -45.837       -0.723      108.521       70.080       43.809    11776.723     4911.263     1919.253        2.624        0.930      184.076       59.397        0.104      338.223       10.726      859.917
12/04/2014  17:27:00     -266.327       26.335      -36.217       94.223       74.463       35.497     8877.961     5544.752     1260.034        4.431        0.784      267.626       45.238        0.029      338.246       10.764      859.912
12/04/2014  17:28:00       -7.291      -75.543       -5.350       44.120       58.139       30.939     1946.541     3380.120      957.194        0.603        0.314       75.894       16.475        0.047      338.261       10.792      859.906
12/04/2014  17:29:00      -27.130      -34.652       -2.615       45.661       47.635       19.570     2084.910     2269.057      383.004        0.334        0.237       44.009       19.720        0.201      338.224       10.727      859.907
12/04/2014  17:30:00      -67.742      -22.697       -0.816       90.108       36.872       30.060     8119.419     1359.576      903.581        0.774        0.519       71.443       32.473        0.207      338.216       10.716      859.931
12/04/2014  17:31:00      -17.164       16.251       15.831       32.626       43.414       32.492     1064.451     1884.797     1055.752        0.241        0.200       23.637       31.378        1.762      338.179       10.655      859.938
12/04/2014  17:32:00        8.357      -39.152        0.125       23.511       39.456       24.327      552.749     1556.812      591.816        0.215        0.135       40.034       25.089        0.393      338.295       10.849      859.958
12/04/2014  17:33:00       31.196       30.572       34.958       29.242       41.414       23.142      855.091     1715.152      535.537        0.312        0.155       43.679       27.104        0.385      338.202       10.693      859.969
12/04/2014  17:34:00       17.914       41.370       48.526       34.736       28.927       25.472     1206.590      836.771      648.836        0.354        0.135       45.082       15.310        0.115      338.078       10.485      859.974
12/04/2014  17:35:00      110.988       76.288       22.202       47.541       26.545       30.066     2260.187      704.614      903.946        1.125        0.193      134.678       15.471        0.013      338.028       10.402      859.990
12/04/2014  17:36:00      101.149       57.185       10.286       40.983       38.744       32.225     1679.645     1501.104     1038.445        0.891        0.211      116.195       25.689        0.049      337.987       10.331      859.993
12/04/2014  17:37:00      124.485       45.046       20.052       34.760       30.094       27.489     1208.262      905.643      755.664        1.040        0.143      132.384        7.268        0.003      337.973       10.308      860.021
12/04/2014  17:38:00      117.393       50.104       17.442       51.375       49.550       39.604     2639.431     2455.229     1568.450        1.163        0.333      127.639       32.234        0.064      337.914       10.209      860.035
12/04/2014  17:39:00      109.102       56.897        9.604       50.406       35.734       27.268     2540.806     1276.946      743.569        0.990        0.228      123.047       13.913        0.013      337.898       10.183      860.058
12/04/2014  17:40:00      109.866       38.538        4.405       54.648       45.782       31.613     2986.361     2095.967      999.380        0.983        0.304      116.430       21.386        0.034      337.912       10.205      860.072
12/04/2014  17:41:00       92.002       19.777       12.599       42.609       32.150       28.862     1815.498     1033.595      832.993        0.635        0.184       94.103       20.814        0.049      337.890       10.169      860.095
12/04/2014  17:42:00      153.617       71.764       29.732       46.577       36.423       36.664     2169.371     1326.604     1344.222        1.724        0.242      169.553       26.229        0.024      338.023       10.393      860.095
12/04/2014  17:43:00       61.990       50.666       69.468       44.677       38.697       32.704     1995.998     1497.436     1069.529        0.790        0.228       80.061       24.461        0.093      338.064       10.461      860.111
12/04/2014  17:44:00       91.803       49.392       48.300       51.839       39.253       37.034     2687.292     1540.790     1371.544        0.940        0.280      104.246       26.612        0.065      338.029       10.402      860.129
12/04/2014  17:45:00       18.244       36.540       46.292       39.361       35.301       22.387     1549.295     1246.188      501.197        0.355        0.165       40.841       20.480        0.251      338.019       10.388      860.145
12/04/2014  17:46:00       42.938       57.951       46.330       37.473       20.114       25.012     1404.246      404.572      625.576        0.489        0.122       72.125       24.537        0.116      338.057       10.450      860.152
12/04/2014  17:47:00       53.513       53.625       38.800       24.685       22.025       10.146      609.364      485.079      102.942        0.422        0.060       75.759        8.338        0.012      338.080       10.488      860.146
12/04/2014  17:48:00       55.015       44.296       30.499       41.717       25.311       21.142     1740.316      640.671      446.983        0.437        0.141       70.632       23.782        0.113      337.985       10.331      860.142
12/04/2014  17:49:00       56.087       43.858       34.766       24.236       21.126       26.731      587.386      446.295      714.560        0.401        0.087       71.199       13.046        0.034      337.923       10.224      860.140
12/04/2014  17:50:00       96.214       27.579        1.201       28.156       24.610       21.684      792.735      605.667      470.201        0.594        0.093      100.088       15.322        0.023      337.983       10.327      860.125
12/04/2014  17:51:00      118.106       86.567       13.567       46.635       35.445       31.626     2174.791     1256.378     1000.218        1.303        0.222      146.434       19.907        0.018      338.003       10.361      860.116
12/04/2014  17:52:00      117.467       54.416       23.938       34.372       30.464       27.528     1181.438      928.068      757.791        1.010        0.143      129.458       12.052        0.009      337.924       10.227      860.097
12/04/2014  17:53:00       69.036       59.845       41.477       40.749       33.319       30.700     1660.510     1110.144      942.513        0.689        0.186       91.364       23.594        0.067      337.911       10.205      860.091
12/04/2014  17:54:00       17.031       20.715        8.669       20.894       14.041       13.657      436.573      197.143      186.509        0.081        0.041       26.817       10.064        0.141      337.851       10.104      860.106
12/04/2014  17:55:00        2.873       45.573       -8.796       15.208       21.245        6.803      231.292      451.359       46.275        0.145        0.036       45.663        5.573        0.015      337.909       10.201      860.124
12/04/2014  17:56:00        6.904      103.909      -11.699       20.454       24.763       21.065      418.367      613.183      443.737        0.623        0.074      104.138       15.400        0.022      337.909       10.202      860.125
12/04/2014  17:57:00       70.145       73.712        0.391       51.458       45.618       27.952     2647.962     2080.965      781.336        0.793        0.276      101.754       24.972        0.060      337.868       10.133      860.098
12/04/2014  17:58:00       93.784       39.742        7.835       43.039       32.424       21.297     1852.380     1051.311      453.573        0.690        0.168      101.858       16.017        0.025      337.899       10.186      860.099
12/04/2014  17:59:00       -3.392      -15.412      -11.137       59.135       31.527       18.601     3496.989      993.982      346.007        0.260        0.242       15.780       13.313        0.712      337.876       10.146      860.124
12/04/2014  18:00:00      -70.842      -12.414      -14.192       14.996       20.309        9.798      224.873      412.471       96.010        0.305        0.037       71.921        5.487        0.006      337.658        9.781      860.142
12/04/2014  18:01:00      -65.165      -45.548       -8.530       26.684       19.034       12.582      712.059      362.310      158.309        0.381        0.062       79.505        8.034        0.010      337.787        9.997      860.150
12/04/2014  18:02:00      -17.488      -34.770        2.382       19.220       16.167       14.004      369.396      261.367      196.125        0.117        0.041       38.921        5.614        0.021      337.816       10.044      860.148
12/04/2014  18:03:00      -55.778      -20.554       -5.060       19.293       10.198       10.087      372.208      104.006      101.740        0.207        0.029       59.445       10.436        0.031      337.995       10.344      860.138
12/04/2014  18:04:00      -74.969        9.226       -2.595       25.002       20.416       15.031      625.101      416.807      225.944        0.349        0.063       75.534       13.212        0.031      337.915       10.212      860.132
12/04/2014  18:05:00      -59.121      -22.495       -2.366       42.692       23.929       14.077     1822.603      572.616      198.151        0.330        0.130       63.256       15.662        0.061      337.890       10.169      860.126
12/04/2014  18:06:00      -31.933      -30.046        6.165       34.226       29.450       19.731     1171.443      867.282      389.295        0.219        0.121       43.846       14.799        0.114      337.958       10.284      860.128
12/04/2014  18:07:00      -70.883     -101.456       -2.385       39.984       48.840       22.246     1598.700     2385.350      494.896        0.990        0.224      123.765       27.113        0.048      338.015       10.378      860.122
12/04/2014  18:08:00      -57.486      -57.663       -0.846       39.172       37.444       25.959     1534.453     1402.050      673.863        0.512        0.181       81.423       23.169        0.081      337.938       10.252      860.113
12/04/2014  18:09:00      -52.468      -53.136        1.726       29.911       31.231       15.534      894.644      975.373      241.293        0.384        0.106       74.674       16.600        0.049      337.987       10.333      860.102
12/04/2014  18:10:00      -33.233      -42.324        2.688       29.308       26.554       18.226      858.969      705.136      332.182        0.240        0.095       53.813       17.079        0.101      338.025       10.397      860.103
12/04/2014  18:11:00      -85.914      -58.581       -1.507       38.875       23.127       17.758     1511.255      534.853      315.338        0.659        0.118      103.985       11.588        0.012      338.030       10.406      860.109
12/04/2014  18:12:00      -86.272      -49.900       -2.179       36.436       25.711       16.311     1327.614      661.031      266.062        0.610        0.113       99.664       13.382        0.018      338.017       10.385      860.114
12/04/2014  18:13:00     -147.557      -91.197        1.934       65.526       56.227       30.980     4293.655     3161.518      959.776        1.925        0.421      173.465       32.462        0.035      338.024       10.395      860.123
12/04/2014  18:14:00      -92.188     -127.982       -0.703       51.563       75.678       28.214     2658.702     5727.185      796.005        1.703        0.459      157.728       25.263        0.026      338.019       10.385      860.134
12/04/2014  18:15:00      -71.612     -163.784        2.743       35.179       58.252       28.669     1237.536     3393.321      821.930        1.871        0.273      178.756       26.506        0.022      337.975       10.312      860.146
12/04/2014  18:16:00      -55.710     -154.676        9.646       39.720       60.939       26.893     1577.648     3713.544      723.247        1.657        0.301      164.403       20.743        0.016      337.933       10.241      860.156
12/04/2014  18:17:00      -35.336      -85.146       20.267       46.645       72.825       32.801     2175.768     5303.442     1075.929        0.873        0.428       92.187       29.520        0.103      337.935       10.246      860.159
12/04/2014  18:18:00      -65.871      -63.496       -3.350       54.214       47.233       26.296     2939.153     2230.955      691.470        0.712        0.293       91.492       17.748        0.038      337.942       10.257      860.158
12/04/2014  18:19:00      -53.152      -42.677        4.998       47.785       34.601       25.310     2283.435     1197.225      640.615        0.440        0.206       68.165       19.722        0.084      337.902       10.190      860.169
12/04/2014  18:20:00      -67.036      -37.819        7.075       40.310       29.384       20.692     1624.931      863.402      428.147        0.444        0.146       76.968       23.273        0.091      337.877       10.148      860.171
12/04/2014  18:21:00      -42.031      -36.214       -1.928       29.471       32.495       17.632      868.548     1055.931      310.897        0.266        0.112       55.480       21.828        0.155      337.867       10.132      860.167
12/04/2014  18:22:00       -0.146        1.499        5.621       18.647       11.198       12.571      347.694      125.405      158.032        0.033        0.032        1.506       11.452       57.814      337.814       10.042      860.157
12/04/2014  18:23:00      -55.024      -22.909        4.715       27.835       24.255       16.292      774.803      588.298      265.424        0.260        0.081       59.602       13.885        0.054      337.886       10.163      860.188
12/04/2014  18:24:00     -123.842      -24.176       -2.748       36.533       28.925       16.686     1334.655      836.671      278.431        0.919        0.122      126.180       15.930        0.016      337.838       10.080      860.217
12/04/2014  18:25:00     -104.324       27.948       -6.532       71.007       42.528       28.743     5042.034     1808.672      826.175        0.969        0.384      108.003       36.416        0.114      338.068       10.469      860.231
12/04/2014  18:26:00      -18.075       22.388       16.819       22.242       25.180       22.336      494.710      634.024      498.888        0.137        0.081       28.774       17.478        0.369      337.899       10.184      860.254
12/04/2014  18:27:00       -6.790       28.823       47.578       17.249       32.457       32.503      297.530     1053.478     1056.443        0.277        0.120       29.612       24.365        0.677      337.756        9.945      860.263
12/04/2014  18:28:00       -5.221       27.898       40.732       20.175       26.201       16.787      407.047      686.474      281.811        0.192        0.069       28.382       10.979        0.150      337.802       10.023      860.267
12/04/2014  18:29:00       -1.851        5.651       29.272       21.479       14.796       11.493      461.349      218.924      132.094        0.085        0.041        5.946        7.422        1.558      337.756        9.944      860.279
12/04/2014  18:30:00       54.782      -11.141       21.105       40.094       54.213       33.630     1607.555     2939.038     1130.979        0.462        0.284       55.904       38.430        0.473      337.750        9.935      860.283
12/04/2014  18:31:00       85.588      -81.739      -12.108       23.556       20.539       16.515      554.864      421.862      272.739        0.770        0.062      118.350       12.465        0.011      337.810       10.036      860.282
12/04/2014  18:32:00       10.782       29.314       33.773       20.182       34.038       20.541      407.295     1158.618      421.914        0.205        0.099       31.234       13.571        0.189      337.738        9.915      860.290
12/04/2014  18:33:00        1.729      -16.606        7.741       11.023       22.985       17.008      121.511      528.316      289.265        0.064        0.047       16.696       14.883        0.795      337.784        9.992      860.306
12/04/2014  18:34:00      -12.976       33.630       -6.711       14.863       27.020        9.445      220.917      730.100       89.205        0.119        0.052       36.046        9.763        0.073      337.706        9.861      860.315
12/04/2014  18:35:00        7.961       50.596       -0.646       20.133       15.082       11.604      405.347      227.470      134.656        0.170        0.038       51.219        5.942        0.013      337.650        9.766      860.324
12/04/2014  18:36:00       26.253       35.344        7.679       19.095       16.227       15.051      364.602      263.303      226.534        0.143        0.043       44.028       13.055        0.088      337.651        9.770      860.325
12/04/2014  18:37:00       36.204       24.846        5.204       24.009       13.658       15.647      576.421      186.541      244.816        0.148        0.050       43.910        9.695        0.049      337.603        9.689      860.313
12/04/2014  18:38:00       43.591       16.642       11.133       30.203       23.968       21.927      912.219      574.483      480.772        0.213        0.098       46.660       17.707        0.144      337.577        9.644      860.300
12/04/2014  18:39:00       53.613       20.995       31.102       33.821       29.195       25.507     1143.864      852.351      650.594        0.346        0.132       57.577       18.802        0.107      337.640        9.750      860.294
12/04/2014  18:40:00       47.360        5.045       12.204       28.720       17.701       19.989      824.860      313.314      399.550        0.198        0.077       47.628        6.302        0.018      337.655        9.776      860.305
12/04/2014  18:41:00       45.585       21.492        5.883       24.173       14.442       14.484      584.316      208.583      209.792        0.179        0.050       50.397       13.646        0.073      337.603        9.687      860.314
12/04/2014  18:42:00       31.074       24.098       16.490       20.462       18.736       15.095      418.681      351.044      227.868        0.141        0.050       39.323       10.378        0.070      337.551        9.600      860.319
12/04/2014  18:43:00       56.089       26.453       10.110       17.849       14.034       11.824      318.581      196.940      139.812        0.230        0.033       62.014       10.240        0.027      337.659        9.783      860.322
12/04/2014  18:44:00       45.601       34.061        7.333       11.774       11.648        9.925      138.620      135.681       98.501        0.183        0.019       56.918        7.655        0.018      337.646        9.761      860.323
12/04/2014  18:45:00       59.775       24.646        8.363       14.222       14.103       14.266      202.256      198.905      203.523        0.243        0.030       64.657        6.384        0.010      337.768        9.964      860.322
12/04/2014  18:46:00       33.791       21.281        3.586       12.661       12.325       12.907      160.296      151.893      166.598        0.104        0.024       39.934        3.471        0.008      337.783        9.990      860.328
12/04/2014  18:47:00        2.468       -8.028       13.256       12.888       15.191       11.622      166.113      230.767      135.069        0.039        0.027        8.399        7.104        0.715      337.730        9.902      860.335
12/04/2014  18:48:00        8.518        7.442        4.395       11.276        9.098       11.081      127.142       82.771      122.794        0.024        0.017       11.312        4.924        0.189      337.764        9.957      860.341
12/04/2014  18:49:00      -10.414        6.885       16.253       30.498       23.057       17.154      930.123      531.613      294.268        0.109        0.088       12.484       16.391        1.724      337.736        9.912      860.344
12/04/2014  18:50:00      -28.571      -19.192        0.111       15.785       12.300       10.798      249.160      151.290      116.597        0.085        0.026       34.418        5.681        0.027      337.667        9.795      860.347
12/04/2014  18:51:00        6.452      -10.723       -2.711       12.295       22.052       17.968      151.178      486.270      322.841        0.056        0.048       12.514       12.761        1.040      337.675        9.811      860.345
12/04/2014  18:52:00        4.402       26.308       44.056       23.770       23.911       25.767      565.004      571.728      663.918        0.223        0.090       26.673       22.004        0.681      337.726        9.894      860.342
12/04/2014  18:53:00       -7.296       14.348       58.414       14.262       26.406       14.411      203.395      697.298      207.683        0.239        0.055       16.097       15.087        0.878      337.786        9.995      860.340
12/04/2014  18:54:00       24.054      -71.355       15.558       38.747       46.751       33.942     1501.329     2185.686     1152.063        0.537        0.242       75.300       33.689        0.200      337.848       10.100      860.342
12/04/2014  18:55:00       27.394      -66.657       -9.052       35.552       36.094       20.977     1263.927     1302.788      440.042        0.414        0.150       72.067       12.208        0.029      337.833       10.074      860.343
12/04/2014  18:56:00      -16.537      -15.222       16.288       19.241       18.280       17.766      370.234      334.161      315.648        0.090        0.051       22.476       14.033        0.390      337.718        9.882      860.338
12/04/2014  18:57:00      -30.488      -22.290        1.084       15.343       23.717       13.011      235.404      562.499      169.294        0.120        0.048       37.767        7.866        0.043      337.728        9.900      860.342
12/04/2014  18:58:00      -13.609       -3.215       -3.546       15.706        8.961       10.758      246.674       80.298      115.744        0.033        0.022       13.983        6.103        0.190      337.674        9.807      860.340
12/04/2014  18:59:00      -12.114        2.062        3.498       18.419        9.295        9.533      339.277       86.393       90.869        0.034        0.026       12.288       10.081        0.673      337.708        9.864      860.326
12/04/2014  19:00:00       -9.121      -18.774       -6.616        9.661       18.092        8.859       93.326      327.333       78.490        0.049        0.025       20.873        9.011        0.186      337.711        9.869      860.313
12/04/2014  19:01:00      -12.384      -19.334       -2.299       25.383       12.827       11.877      644.316      164.533      141.066        0.074        0.047       22.960        9.502        0.171      337.755        9.945      860.296
12/04/2014  19:02:00       -6.526       -5.166       -9.015       14.568       13.731       10.018      212.232      188.553      100.362        0.033        0.025        8.323        6.852        0.678      337.761        9.954      860.288
12/04/2014  19:03:00      -49.436      -55.317        0.750       36.940       32.549       18.278     1364.590     1059.436      334.080        0.413        0.138       74.188       15.166        0.042      337.756        9.945      860.297
12/04/2014  19:04:00      -40.120      -45.973        0.155       38.023       29.348       15.817     1445.778      861.277      250.175        0.314        0.128       61.018       13.969        0.052      337.750        9.936      860.304
12/04/2014  19:05:00      -64.387      -49.363       -1.465       32.946       23.593       18.411     1085.443      556.607      338.966        0.428        0.099       81.132       20.349        0.063      337.764        9.959      860.315
12/04/2014  19:06:00      -67.997      -27.260       -7.171       22.760       19.994       12.415      518.037      399.758      154.135        0.324        0.054       73.258        6.981        0.009      337.774        9.976      860.333
12/04/2014  19:07:00      -49.217      -48.258        4.577       30.755       23.774       17.342      945.884      565.213      300.728        0.329        0.091       68.929       17.287        0.063      337.682        9.822      860.348
12/04/2014  19:08:00      -34.585       -6.674        0.622       23.530       27.113       11.813      553.665      735.134      139.537        0.133        0.071       35.223       13.048        0.137      337.658        9.780      860.359
12/04/2014  19:09:00       -2.361        3.796       12.595       18.928       21.891       15.966      358.272      479.232      254.923        0.064        0.055        4.471       10.209        5.214      337.584        9.658      860.374
12/04/2014  19:10:00       -8.992        1.882       17.659        9.704       10.586        5.709       94.170      112.065       32.593        0.032        0.012        9.186        3.322        0.131      337.609        9.697      860.393
12/04/2014  19:11:00        0.595      -15.524       25.992       27.321       31.793       25.919      746.451     1010.803      671.774        0.167        0.121       15.535       19.614        1.594      337.639        9.749      860.410
12/04/2014  19:12:00      -39.079      -25.903       12.621       17.914       15.109       12.246      320.897      228.293      149.973        0.153        0.035       46.884        9.770        0.043      337.674        9.809      860.430
12/04/2014  19:13:00      -56.604      -30.449       -4.518       17.802       14.258       14.166      316.895      203.298      200.687        0.244        0.036       64.274        6.588        0.011      337.637        9.746      860.447
12/04/2014  19:14:00       -8.429       -7.100        0.673       11.815       13.155       11.859      139.594      173.044      140.642        0.029        0.023       11.020        8.346        0.574      337.573        9.638      860.461
12/04/2014  19:15:00       11.216       19.956       25.199       19.161       18.721       21.261      367.135      350.486      452.028        0.116        0.058       22.892       13.822        0.365      337.563        9.622      860.457
12/04/2014  19:16:00      -10.260       12.228       34.109       12.046       28.712       17.773      145.118      824.396      315.894        0.135        0.064       15.962       18.528        1.347      337.533        9.572      860.459
12/04/2014  19:17:00       -5.058       13.764       19.288        6.114       11.395        8.572       37.377      129.854       73.472        0.041        0.012       14.665        7.078        0.233      337.530        9.565      860.465
12/04/2014  19:18:00        1.413        7.871        2.269       20.962       12.411       10.131      439.426      154.023      102.638        0.038        0.035        7.997        7.058        0.779      337.528        9.562      860.468
12/04/2014  19:19:00      -86.851       22.998       -3.099       22.332       13.511       12.706      498.716      182.547      161.437        0.446        0.042       89.845        8.380        0.009      337.665        9.791      860.474
12/04/2014  19:20:00      -71.492        7.110        2.697       31.278       22.825       19.284      978.315      521.002      371.856        0.352        0.094       71.844       15.032        0.044      337.711        9.870      860.484
12/04/2014  19:21:00      -34.778      -40.401        4.646       30.855       29.465       16.715      952.041      868.167      279.385        0.248        0.105       53.308       15.606        0.086      337.624        9.726      860.495
12/04/2014  19:22:00      -56.508      -71.679        4.519       35.451       39.726       19.364     1256.761     1578.188      374.958        0.578        0.160       91.274       21.753        0.057      337.684        9.822      860.503
12/04/2014  19:23:00      -78.323      -64.405       -1.693       37.599       29.991       20.073     1413.693      899.465      402.922        0.650        0.136      101.402       23.600        0.054      337.672        9.803      860.503
12/04/2014  19:24:00      -83.753      -64.211       -7.490       31.953       30.120       17.980     1020.984      907.215      323.268        0.672        0.113      105.535       19.696        0.035      337.664        9.789      860.500
12/04/2014  19:25:00      -92.746      -72.957       -7.936       43.009       24.516       15.015     1849.781      601.038      225.457        0.833        0.134      118.002       14.941        0.016      337.663        9.787      860.497
12/04/2014  19:26:00      -64.704      -42.406       -0.451       28.836       35.778       15.416      831.541     1280.031      237.642        0.417        0.117       77.362       15.870        0.042      337.611        9.702      860.487
12/04/2014  19:27:00      -75.154      -83.030       -9.150       20.632       25.972       11.575      425.698      674.536      133.990        0.693        0.062      111.992        8.952        0.006      337.622        9.720      860.480
12/04/2014  19:28:00      -59.487      -76.371       -7.302       19.427       17.829       14.690      377.397      317.867      215.809        0.517        0.046       96.805       13.933        0.021      337.644        9.760      860.473
12/04/2014  19:29:00      -26.703      -66.924       -5.735       20.024       12.952        8.912      400.959      167.757       79.425        0.294        0.032       72.054        6.812        0.009      337.681        9.819      860.477
12/04/2014  19:30:00      -18.769      -33.765        0.067       14.124       18.590       14.651      199.480      345.582      214.644        0.113        0.038       38.631       11.866        0.094      337.665        9.793      860.491
12/04/2014  19:31:00      -55.171      -28.977       -1.169       23.125       14.284       13.230      534.778      204.043      175.041        0.240        0.046       62.318       11.859        0.036      337.696        9.843      860.510
12/04/2014  19:32:00      -10.620      -18.703        3.590       16.880       22.439       12.985      284.945      503.498      168.614        0.072        0.048       21.508        9.443        0.193      337.655        9.776      860.515
12/04/2014  19:33:00      -48.683      -39.713       -1.709       22.075       21.626       13.452      487.292      467.684      180.961        0.254        0.057       62.827        6.817        0.012      337.648        9.764      860.525
12/04/2014  19:34:00      -83.619      -22.073       -7.639       29.071       18.297       14.539      845.119      334.793      211.379        0.446        0.070       86.483       15.785        0.033      337.645        9.760      860.539
12/04/2014  19:35:00      -42.665      -14.047       -1.911        7.389        6.121        6.734       54.591       37.471       45.345        0.108        0.007       44.918        3.675        0.007      337.635        9.741      860.555
12/04/2014  19:36:00      -52.527        0.475       -2.957        7.029        8.991        5.079       49.402       80.839       25.799        0.146        0.008       52.529        3.840        0.005      337.619        9.715      860.576
12/04/2014  19:37:00      -47.284       -0.412       -2.867       13.004       11.536        8.357      169.093      133.081       69.836        0.131        0.019       47.286        6.597        0.019      337.534        9.572      860.594
12/04/2014  19:38:00      -35.497       -7.243       -4.476       18.051        9.536        7.683      325.824       90.940       59.027        0.090        0.024       36.228        7.354        0.041      337.561        9.618      860.609
12/04/2014  19:39:00       -8.124      -18.253        5.395        9.900       11.246        9.687       98.017      126.478       93.843        0.037        0.016       19.979        5.797        0.084      337.600        9.683      860.627
12/04/2014  19:40:00        3.525       -0.984        8.675        7.056        5.335        7.222       49.785       28.458       52.162        0.011        0.007        3.660        4.394        1.441      337.574        9.639      860.640
12/04/2014  19:41:00        3.177      -23.003       10.684       14.006        9.020       12.205      196.171       81.358      148.965        0.054        0.021       23.221        9.020        0.151      337.603        9.688      860.653
12/04/2014  19:42:00        7.471       13.319       20.321       10.240       20.259        9.652      104.866      410.429       93.170        0.063        0.030       15.271       10.762        0.497      337.497        9.510      860.649
12/04/2014  19:43:00       14.862       20.192       18.971       11.558       15.775       12.632      133.580      248.860      159.567        0.077        0.027       25.072        8.559        0.117      337.461        9.448      860.655
12/04/2014  19:44:00       18.036       25.816       30.105       21.973       19.000       15.893      482.825      361.000      252.600        0.150        0.055       31.492       14.690        0.218      337.416        9.375      860.650
12/04/2014  19:45:00        7.460       28.852        9.799       15.417       11.453       18.961      237.680      131.160      359.501        0.086        0.036       29.800        9.434        0.100      337.401        9.349      860.646
12/04/2014  19:46:00      -17.800       18.103       -1.638       13.912       11.728       10.380      193.549      137.538      107.750        0.054        0.022       25.388        6.499        0.066      337.363        9.284      860.646
12/04/2014  19:47:00      -16.382        3.200       -5.396       12.562        6.033        5.314      157.800       36.399       28.240        0.027        0.011       16.692        4.966        0.089      337.439        9.412      860.639
12/04/2014  19:48:00      -27.418      -11.389       -3.185       14.944       12.412        8.497      223.332      154.069       72.200        0.067        0.022       29.689        5.198        0.031      337.528        9.562      860.642
12/04/2014  19:49:00      -47.641       28.374        0.848       27.124       15.347       14.642      735.732      235.520      214.384        0.213        0.059       55.451       14.198        0.066      337.430        9.398      860.632
12/04/2014  19:50:00        9.669       20.247        5.444       23.142       15.052        9.911      535.569      226.571       98.222        0.070        0.043       22.437       10.538        0.221      337.415        9.371      860.636
12/04/2014  19:51:00      -39.607      -12.767       -0.816       48.574       23.749       19.900     2359.444      564.028      395.991        0.253        0.166       41.614       24.764        0.354      337.486        9.493      860.619
12/04/2014  19:52:00      -69.004      -39.704       -3.923       30.204       20.277       16.238      912.278      411.150      263.658        0.397        0.079       79.611        9.474        0.014      337.558        9.614      860.604
12/04/2014  19:53:00      -68.012      -11.238       -3.541       24.913       17.429       14.830      620.641      303.765      219.932        0.295        0.057       68.935       16.377        0.056      337.580        9.651      860.587
12/04/2014  19:54:00      -52.696      -10.642        1.230       28.639       22.409       14.170      820.171      502.171      200.792        0.221        0.076       53.759       12.792        0.057      337.557        9.611      860.566
12/04/2014  19:55:00      -46.569      -30.413        4.527       26.842       15.225       12.668      720.501      231.785      160.474        0.211        0.056       55.621       10.359        0.035      337.543        9.587      860.558
12/04/2014  19:56:00      -56.151      -18.557       -6.795       14.974       16.481        8.768      224.232      271.620       76.878        0.206        0.029       59.137        8.109        0.019      337.566        9.624      860.566
12/04/2014  19:57:00      -35.646      -24.589       -0.176       17.474       21.330       10.202      305.342      454.976      104.078        0.137        0.043       43.304        9.733        0.051      337.598        9.681      860.589
12/04/2014  19:58:00       -5.701      -11.759       10.666       12.293       11.793        9.528      151.111      139.081       90.788        0.033        0.019       13.068        5.368        0.169      337.621        9.719      860.623
12/04/2014  19:59:00       -0.935      -15.930       14.101       17.602       12.659       12.996      309.819      160.243      168.897        0.055        0.032       15.957       11.798        0.547      337.624        9.725      860.651
12/04/2014  20:00:00        1.036       -9.989       10.682       16.723       10.260        8.638      279.653      105.274       74.612        0.034        0.023       10.043       10.278        1.047      337.575        9.641      860.676
12/04/2014  20:01:00      -12.360      -14.813       10.447       22.125       13.783       11.199      489.510      189.981      125.420        0.064        0.040       19.292        8.980        0.217      337.547        9.593      860.701
12/04/2014  20:02:00      -21.766      -11.782        7.433       23.891       23.551       14.290      570.803      554.649      204.217        0.100        0.066       24.750       14.279        0.333      337.510        9.532      860.712
12/04/2014  20:03:00      -32.241      -23.279        1.801       26.829       21.863       12.937      719.807      477.996      167.363        0.147        0.068       39.767        9.847        0.061      337.540        9.582      860.730
12/04/2014  20:04:00      -50.641      -38.305        3.673       26.843       16.657       15.718      720.564      277.449      247.041        0.264        0.062       63.496       15.861        0.062      337.494        9.505      860.736
12/04/2014  20:05:00      -17.698      -17.226        4.620       19.368       14.050        8.283      375.114      197.401       68.607        0.064        0.032       24.697        8.577        0.121      337.554        9.605      860.738
12/04/2014  20:06:00       -3.256       -8.443        8.407        9.806       12.181        7.482       96.152      148.373       55.979        0.023        0.015        9.049        3.917        0.187      337.514        9.539      860.727
12/04/2014  20:07:00       19.995       -0.233       15.654       10.781        8.778       10.792      116.236       77.057      116.462        0.048        0.015       19.997        3.361        0.028      337.280        9.147      860.710
12/04/2014  20:08:00       24.383       46.687       -1.272       11.800       25.423       19.591      139.234      646.352      383.795        0.197        0.058       52.671       20.254        0.148      337.111        8.863      860.696
12/04/2014  20:09:00       20.486       79.970      -18.185       16.927       25.034       13.560      286.511      626.677      183.880        0.412        0.055       82.552       14.056        0.029      337.070        8.793      860.683
12/04/2014  20:10:00       23.800       97.484      -22.506       15.734       16.551        9.886      247.567      273.935       97.739        0.560        0.031      100.348        8.480        0.007      337.150        8.931      860.690
12/04/2014  20:11:00       22.836       99.091      -19.223       18.436       14.361       10.573      339.887      206.240      111.799        0.568        0.033      101.688        5.801        0.003      337.190        9.000      860.712
12/04/2014  20:12:00       11.658       83.894      -12.231       10.634       16.368        7.797      113.082      267.897       60.792        0.388        0.022       84.700        5.012        0.004      337.176        8.975      860.746
12/04/2014  20:13:00       23.318       85.596      -17.844       12.265       21.000       10.898      150.420      440.990      118.766        0.445        0.036       88.716        8.723        0.010      337.200        9.014      860.776
12/04/2014  20:14:00       27.887      100.417      -23.666       10.923       13.151        9.578      119.309      172.954       91.739        0.590        0.019      104.218        4.157        0.002      337.207        9.027      860.801
12/04/2014  20:15:00       23.502       98.570      -15.196       18.615       18.727       14.409      346.534      350.709      207.611        0.570        0.045      101.333        9.992        0.010      337.207        9.025      860.807
12/04/2014  20:16:00       22.232      109.641      -18.861       12.383       15.560       10.797      153.329      242.113      116.577        0.669        0.026      111.872        5.515        0.002      337.244        9.088      860.815
12/04/2014  20:17:00       24.384      120.500      -23.593       11.784       16.617        8.405      138.857      276.118       70.640        0.808        0.024      122.943        7.665        0.004      337.224        9.054      860.830
12/04/2014  20:18:00       25.643      132.188      -24.316       15.443       15.259        8.656      238.494      232.840       74.930        0.963        0.027      134.652        3.488        0.001      337.189        8.997      860.852
12/04/2014  20:19:00       29.395      119.283      -16.067       30.888       38.323       26.045      954.063     1468.654      678.362        0.923        0.155      122.852       21.994        0.032      337.174        8.970      860.860
12/04/2014  20:20:00       27.826       97.476      -11.021       23.847       35.430       26.790      568.697     1255.250      717.677        0.647        0.127      101.369       25.310        0.062      337.182        8.983      860.877
12/04/2014  20:21:00       24.680       89.756      -12.054       24.708       35.969       19.376      610.495     1293.799      375.432        0.554        0.114       93.087       20.515        0.049      337.145        8.922      860.891
12/04/2014  20:22:00       16.659       80.479        1.657       23.787       36.383       27.172      565.815     1323.696      738.325        0.469        0.131       82.185       26.000        0.100      337.128        8.893      860.907
12/04/2014  20:23:00       22.156       94.126       -9.038       24.062       39.451       22.073      578.977     1556.378      487.225        0.603        0.131       96.699       21.214        0.048      337.166        8.957      860.918
12/04/2014  20:24:00       20.926       82.348       -6.936       24.227       42.524       22.814      586.959     1808.305      520.493        0.509        0.146       84.966       23.824        0.079      337.137        8.907      860.933
12/04/2014  20:25:00       18.497       65.842       -7.969       27.589       36.588       23.319      761.131     1338.711      543.783        0.369        0.132       68.391       20.678        0.091      337.165        8.957      860.934
12/04/2014  20:26:00       26.436       90.685      -13.917       23.224       24.395       14.907      539.361      595.094      222.223        0.524        0.068       94.460       12.372        0.017      337.171        8.965      860.937
12/04/2014  20:27:00       18.883       97.142      -15.479       12.624       15.526        8.207      159.365      241.042       67.361        0.525        0.023       98.960        4.133        0.002      337.181        8.982      860.945
12/04/2014  20:28:00       12.216       97.383      -15.318       14.350       14.655        9.135      205.927      214.771       83.449        0.519        0.025       98.147        6.985        0.005      337.210        9.032      860.951
12/04/2014  20:29:00        1.996       90.830      -14.929        6.288       11.700        5.948       39.543      136.889       35.382        0.434        0.011       90.852        4.003        0.002      337.239        9.080      860.966
12/04/2014  20:30:00        6.989       87.092      -11.591        8.979       20.464        6.822       80.625      418.768       46.534        0.416        0.027       87.372        8.553        0.010      337.270        9.132      860.985
12/04/2014  20:31:00       19.377       36.404       -7.612       10.274       14.809        8.948      105.546      219.310       80.063        0.108        0.020       41.240        7.284        0.031      337.180        8.981      861.007
12/04/2014  20:32:00       24.198       15.596       -3.432       10.080       18.428        6.951      101.603      339.583       48.318        0.066        0.024       28.789        8.447        0.086      337.202        9.018      861.028
12/04/2014  20:33:00       17.117        1.692       -3.739       12.912       10.405        6.296      166.718      108.265       39.637        0.031        0.016       17.200        5.467        0.101      337.256        9.106      861.052
12/04/2014  20:34:00        4.932        2.234       13.576       11.049        7.454        7.969      122.084       55.569       63.510        0.023        0.012        5.415        6.689        1.526      337.179        8.978      861.071
12/04/2014  20:35:00       11.659      -16.017        7.296        9.582       12.133       11.878       91.810      147.206      141.088        0.041        0.019       19.811        4.605        0.054      337.179        8.980      861.072
12/04/2014  20:36:00       14.353      -20.337       -4.206        8.020        7.737        7.187       64.318       59.856       51.648        0.041        0.009       24.891        5.506        0.049      337.310        9.198      861.059
12/04/2014  20:37:00       25.994      -27.843       -6.675       16.786       13.047       13.585      281.781      170.218      184.561        0.107        0.032       38.091        9.634        0.064      337.303        9.187      861.051
12/04/2014  20:38:00       13.469       -5.604       13.386       14.730       20.525       17.648      216.971      421.274      311.467        0.067        0.047       14.589       14.560        0.996      337.236        9.074      861.034
12/04/2014  20:39:00       -5.528       19.950       29.703       12.358       17.103       12.185      152.715      292.502      148.470        0.095        0.030       20.702        9.310        0.202      337.071        8.798      861.034
12/04/2014  20:40:00        7.056       36.984       52.404       20.343       19.672       10.279      413.857      387.004      105.668        0.253        0.045       37.651       11.471        0.093      337.119        8.878      861.019
12/04/2014  20:41:00       17.605       40.569       40.883       29.696       28.100       18.088      881.845      789.632      327.162        0.281        0.100       44.224        5.692        0.017      337.193        9.003      861.005
12/04/2014  20:42:00       11.766       48.056       56.238       21.476       28.759       13.628      461.235      827.087      185.729        0.354        0.074       49.476       13.965        0.080      337.170        8.963      860.991
12/04/2014  20:43:00       -6.555       44.948       63.147        9.891       23.886       14.383       97.842      570.528      206.884        0.346        0.044       45.424       12.607        0.077      337.187        8.993      860.969
12/04/2014  20:44:00        0.022       38.753       53.439       14.637       22.048       11.393      214.235      486.112      129.794        0.259        0.042       38.753        9.913        0.065      337.126        8.889      860.939
12/04/2014  20:45:00       -5.408       35.387       47.901       12.664       20.904       10.461      160.384      436.971      109.432        0.214        0.035       35.798       10.498        0.086      337.115        8.870      860.918
12/04/2014  20:46:00       -1.203       22.625       32.685       13.398       18.821       10.359      179.496      354.223      107.303        0.111        0.032       22.657       10.077        0.198      337.126        8.889      860.898
12/04/2014  20:47:00        2.820       18.893       30.075       12.004       13.471       10.945      144.102      181.454      119.794        0.086        0.022       19.102       10.894        0.325      337.181        8.981      860.882
12/04/2014  20:48:00        8.383       25.233       28.610       12.654       13.697       13.586      160.125      187.610      184.571        0.103        0.027       26.589       10.222        0.148      337.202        9.018      860.872
12/04/2014  20:49:00       26.103       15.073        8.028       16.484       11.026       11.016      271.713      121.565      121.353        0.074        0.026       30.142        6.094        0.041      337.209        9.028      860.868
12/04/2014  20:50:00       11.271        9.300        7.500       12.080        9.844        6.796      145.923       96.896       46.187        0.028        0.014       14.613        2.898        0.039      337.181        8.982      860.868
12/04/2014  20:51:00        9.635        6.955        1.487        4.979        5.026        7.162       24.789       25.259       51.298        0.012        0.005       11.883        3.355        0.080      337.217        9.043      860.868
12/04/2014  20:52:00       11.850        6.768        3.243        6.812        7.005        5.327       46.398       49.075       28.376        0.016        0.006       13.647        4.554        0.111      337.225        9.059      860.878
12/04/2014  20:53:00       11.267        5.698       -2.842        8.612       10.326        4.554       74.165      106.616       20.740        0.018        0.010       12.626        4.485        0.126      337.264        9.122      860.904
12/04/2014  20:54:00      -10.661        5.224        1.691       14.361        6.534        6.150      206.239       42.687       37.823        0.022        0.014       11.872        7.925        0.446      337.216        9.040      860.926
12/04/2014  20:55:00      -29.670       -1.796       -8.082        3.396        2.927        3.149       11.533        8.568        9.919        0.049        0.002       29.724        1.468        0.002      337.143        8.920      860.952
12/04/2014  20:56:00      -35.928       -5.256       -4.297       13.666        5.038        3.946      186.763       25.378       15.573        0.078        0.011       36.311        5.704        0.025      337.008        8.689      860.983
12/04/2014  20:57:00     -120.049       -5.783      -11.943       60.762       27.667       20.248     3691.972      765.438      409.996        0.973        0.243      120.189       18.260        0.023      336.758        8.275      861.004
12/04/2014  20:58:00     -114.087      -14.727       -8.452       39.725       32.742       21.069     1578.060     1072.058      443.884        0.820        0.155      115.033       19.815        0.030      336.815        8.370      861.018
12/04/2014  20:59:00     -100.542       -7.670      -13.453       30.150       25.880       18.014      909.000      669.798      324.513        0.613        0.095      100.834       16.334        0.026      336.756        8.272      861.017
12/04/2014  21:00:00     -132.765       -0.852      -17.132       23.097       19.317       14.556      533.470      373.130      211.884        0.952        0.056      132.768       10.825        0.007      336.788        8.327      861.017
12/04/2014  21:01:00     -143.532       -2.908      -20.076       32.138       16.743       17.769     1032.848      280.327      315.738        1.132        0.081      143.562       13.401        0.009      336.799        8.345      861.020
12/04/2014  21:02:00     -122.265       -5.181      -16.964       30.442       18.140       15.975      926.695      329.075      255.186        0.839        0.076      122.375       16.909        0.019      336.767        8.291      861.023
12/04/2014  21:03:00     -137.268       10.436      -13.644       14.215       13.772        9.189      202.054      189.680       84.445        0.981        0.024      137.664        5.852        0.002      336.833        8.399      861.033
12/04/2014  21:04:00     -143.476       17.389      -11.146       18.310       15.010       12.383      335.256      225.301      153.340        1.086        0.036      144.526        5.218        0.001      336.847        8.423      861.027
12/04/2014  21:05:00     -170.014       32.491      -13.642       23.459       20.166       13.670      550.322      406.663      186.882        1.565        0.057      173.091       10.926        0.004      336.867        8.456      861.017
12/04/2014  21:06:00     -178.879       23.259      -15.867       25.356       30.168       18.453      642.907      910.129      340.498        1.734        0.095      180.385       15.612        0.007      336.849        8.426      861.003
12/04/2014  21:07:00     -167.832        2.894      -18.318       41.543       29.691       26.032     1725.802      881.532      677.684        1.590        0.164      167.857       25.068        0.022      336.737        8.241      860.989
12/04/2014  21:08:00     -157.935        7.920      -17.622       44.185       34.227       22.458     1952.305     1171.471      504.348        1.447        0.181      158.134       23.522        0.022      336.662        8.116      860.977
12/04/2014  21:09:00     -155.098        9.524      -17.980       37.363       31.490       21.107     1396.031      991.630      445.499        1.365        0.142      155.390       16.391        0.011      336.651        8.097      860.972
12/04/2014  21:10:00     -152.040      -36.675      -18.832       28.789       27.227       20.808      828.830      741.315      432.992        1.341        0.100      156.401       18.821        0.014      336.648        8.093      860.974
12/04/2014  21:11:00     -136.072      -25.533       -5.820       24.589       28.449       21.624      604.615      809.322      467.577        1.054        0.094      138.447       10.470        0.006      336.687        8.156      860.997
12/04/2014  21:12:00     -155.114       30.917      -15.876       46.916       41.684       26.570     2201.115     1737.594      705.964        1.496        0.232      158.165       22.360        0.020      336.825        8.386      861.007
12/04/2014  21:13:00     -111.315       32.326      -10.020       38.561       30.825       20.803     1486.918      950.157      432.776        0.820        0.143      115.914       19.277        0.028      336.821        8.381      861.012
12/04/2014  21:14:00     -140.853       38.760      -13.505       35.470       37.553       27.493     1258.134     1410.242      755.872        1.247        0.171      146.089       24.606        0.028      336.885        8.485      861.035
12/04/2014  21:15:00     -142.774       32.184      -12.672       40.481       39.751       33.391     1638.715     1580.168     1114.958        1.296        0.217      146.357       24.989        0.029      336.875        8.470      861.068
12/04/2014  21:16:00      -99.847      -17.976      -11.159       39.724       38.384       24.301     1578.000     1473.351      590.529        0.703        0.182      101.453       21.550        0.045      336.861        8.448      861.100
12/04/2014  21:17:00     -123.088      -47.789      -16.304       38.684       44.322       24.503     1496.441     1964.413      600.400        1.088        0.203      132.039       14.299        0.012      336.776        8.305      861.132
12/04/2014  21:18:00     -169.321      -58.106      -23.423       40.966       45.027       22.627     1678.216     2027.404      511.999        1.841        0.211      179.014       16.388        0.008      336.756        8.273      861.169
12/04/2014  21:19:00     -172.796      -25.397      -16.810       26.112       26.244       20.313      681.824      688.732      412.604        1.628        0.089      174.652       11.469        0.004      336.699        8.176      861.206
12/04/2014  21:20:00     -110.557      -50.137       -1.327       38.586       29.502       24.571     1488.854      870.342      603.737        0.885        0.148      121.394       24.118        0.039      336.644        8.085      861.236
12/04/2014  21:21:00     -121.567      -22.529      -16.262       24.024       26.793       14.728      577.151      717.858      216.921        0.853        0.076      123.637        5.740        0.002      336.663        8.117      861.250
12/04/2014  21:22:00     -139.118        8.682      -18.012       30.540       31.221       14.349      932.722      974.735      205.900        1.093        0.106      139.389       10.140        0.005      336.651        8.097      861.253
12/04/2014  21:23:00     -136.713       13.738       -9.406       37.827       31.899       16.855     1430.886     1017.523      284.095        1.085        0.137      137.402       11.234        0.007      336.707        8.190      861.244
12/04/2014  21:24:00      -96.133      -17.004       -6.597       21.124       44.171       20.620      446.223     1951.107      425.171        0.620        0.141       97.625       10.914        0.012      336.701        8.181      861.249
12/04/2014  21:25:00     -115.505      -42.870      -15.592       26.620       30.259       19.987      708.605      915.615      399.500        0.872        0.101      123.204       15.028        0.015      336.688        8.158      861.245
12/04/2014  21:26:00     -129.479       30.345      -15.534       25.417       31.168       21.006      646.038      971.466      441.262        0.999        0.103      132.987       14.899        0.013      336.722        8.214      861.248
12/04/2014  21:27:00      -83.853      -24.058      -11.480       44.009       38.818       22.150     1936.801     1506.816      490.625        0.584        0.197       87.236       23.522        0.073      336.723        8.218      861.244
12/04/2014  21:28:00     -103.356      -38.499       -8.324       40.051       33.805       19.363     1604.079     1142.795      374.925        0.768        0.156      110.293       13.191        0.014      336.677        8.141      861.262
12/04/2014  21:29:00     -144.112      -42.073      -15.250       29.300       30.865       18.502      858.493      952.634      342.330        1.246        0.108      150.128       10.676        0.005      336.627        8.057      861.281
12/04/2014  21:30:00     -127.886      -45.397       -8.682       26.775       36.541       18.091      716.903     1335.232      327.292        1.043        0.119      135.705       15.809        0.014      336.537        7.903      861.295
12/04/2014  21:31:00      -97.893      -10.545       -6.111       31.574       22.643       18.808      996.904      512.694      353.752        0.580        0.093       98.460       15.294        0.024      336.533        7.899      861.297
12/04/2014  21:32:00     -145.861        0.234      -18.208       22.023       25.032       17.170      485.016      626.617      294.821        1.151        0.070      145.861        7.225        0.002      336.609        8.026      861.289
12/04/2014  21:33:00     -156.493        9.267      -17.423       30.032       26.309       20.407      901.928      692.159      416.451        1.344        0.101      156.768       14.244        0.008      336.636        8.072      861.288
12/04/2014  21:34:00     -157.903       29.220      -11.287       28.181       24.774       17.310      794.149      613.733      299.633        1.381        0.085      160.584       10.351        0.004      336.628        8.059      861.288
12/04/2014  21:35:00     -150.292       22.486      -12.019       20.740       22.326       11.637      430.152      498.452      135.424        1.215        0.053      151.965        9.516        0.004      336.594        8.001      861.284
12/04/2014  21:36:00     -174.621       40.027      -11.235       12.269       15.384       11.537      150.522      236.661      133.092        1.637        0.026      179.150        7.415        0.002      336.718        8.209      861.266
12/04/2014  21:37:00     -154.395       60.466      -16.226       40.353       24.429       20.777     1628.359      596.754      431.692        1.521        0.133      165.813        8.610        0.003      336.699        8.176      861.240
12/04/2014  21:38:00     -130.034       53.352      -10.355       43.614       21.268       19.055     1902.208      452.341      363.097        1.129        0.136      140.553       12.027        0.007      336.634        8.067      861.210
12/04/2014  21:39:00     -106.264       62.305      -18.804       28.398       32.717       20.059      806.471     1070.426      402.363        0.890        0.114      123.183       11.280        0.008      336.797        8.341      861.184
12/04/2014  21:40:00     -142.244       77.122      -20.878       41.794       53.259       25.757     1746.764     2836.483      663.419        1.593        0.262      161.805       26.660        0.027      336.941        8.579      861.155
12/04/2014  21:41:00     -126.205       22.389      -15.642       28.169       31.269       21.960      793.506      977.749      482.251        0.946        0.113      128.175       15.453        0.015      336.694        8.170      861.149
12/04/2014  21:42:00      -90.286       -7.050       -7.143       37.067       21.274       21.130     1373.944      452.579      446.471        0.526        0.114       90.561       18.453        0.042      336.560        7.946      861.144
12/04/2014  21:43:00     -121.770       -2.383      -11.910       30.853       33.112       17.249      951.900     1096.393      297.514        0.866        0.117      121.793       10.380        0.007      336.537        7.905      861.154
12/04/2014  21:44:00     -125.757      -27.526      -18.090       29.450       19.274       16.838      867.277      371.471      283.520        0.921        0.076      128.734       12.475        0.009      336.449        7.758      861.178
12/04/2014  21:45:00     -108.529      -16.196      -20.073       29.042       25.777       19.087      843.466      664.459      364.305        0.716        0.094      109.731       14.409        0.017      336.454        7.766      861.204
12/04/2014  21:46:00      -78.242      -29.589       -0.387       18.114       18.880       12.909      328.129      356.459      166.652        0.392        0.043       83.650        8.153        0.010      336.403        7.680      861.227
12/04/2014  21:47:00      -81.930      -41.471       -7.052       28.470       16.603       15.404      810.537      275.661      237.277        0.490        0.066       91.828       13.237        0.021      336.425        7.719      861.258
12/04/2014  21:48:00     -131.701      -75.426       -6.341       32.111       30.954       18.262     1031.084      958.154      333.488        1.270        0.116      151.770        7.801        0.003      336.479        7.808      861.289
12/04/2014  21:49:00      -31.784      -44.142       11.632       51.188       37.519       25.764     2620.259     1407.674      663.801        0.389        0.235       54.395       28.105        0.267      336.527        7.890      861.301
12/04/2014  21:50:00      -41.812      -58.435        1.129       25.976       21.368       16.304      674.740      456.591      265.805        0.328        0.070       71.853       13.562        0.036      336.650        8.096      861.301
12/04/2014  21:51:00      -49.426      -38.957       -0.632       23.854       16.413       15.594      569.036      269.376      243.185        0.252        0.054       62.933       13.661        0.047      336.697        8.174      861.323
12/04/2014  21:52:00      -88.277      -53.131       -6.127       32.710       37.368       20.821     1069.953     1396.359      433.500        0.678        0.145      103.033       18.850        0.033      336.708        8.192      861.344
12/04/2014  21:53:00      -76.472      -72.477        2.570       26.733       28.787       17.752      714.648      828.696      315.116        0.648        0.093      105.361       18.607        0.031      336.698        8.175      861.356
12/04/2014  21:54:00      -62.036      -57.492        2.986       35.851       36.481       19.502     1285.284     1330.838      380.338        0.508        0.150       84.580       21.303        0.063      336.680        8.146      861.359
12/04/2014  21:55:00      -55.809      -81.081       -1.459       34.427       31.541       19.276     1185.231      994.831      371.547        0.612        0.128       98.432       15.264        0.024      336.729        8.228      861.363
12/04/2014  21:56:00      -49.474      -56.065       -1.846       34.701       38.627       19.069     1204.180     1492.051      363.613        0.433        0.153       74.773       17.203        0.053      336.720        8.213      861.370
12/04/2014  21:57:00      -22.297      -94.293       -2.724       34.273       44.669       17.143     1174.655     1995.308      293.870        0.643        0.173       96.893       10.265        0.011      336.791        8.330      861.368
12/04/2014  21:58:00      -21.014      -51.994        5.881       34.814       39.334       17.764     1212.022     1547.143      315.555        0.313        0.154       56.080       13.384        0.057      336.806        8.355      861.367
12/04/2014  21:59:00      -23.257      -14.310        9.158       29.733       25.420       17.937      884.032      646.168      321.750        0.134        0.093       27.307       17.444        0.408      336.763        8.284      861.379
12/04/2014  22:00:00      -58.980      -39.762       -0.476       22.672       25.935       18.697      514.028      672.627      349.568        0.330        0.077       71.131       12.424        0.031      336.612        8.031      861.407
12/04/2014  22:01:00      -36.414      -20.809        4.578       25.831       22.462       13.533      667.220      504.540      183.148        0.157        0.068       41.940       12.933        0.095      336.479        7.808      861.439
12/04/2014  22:02:00      -10.291      -17.304        6.626       24.031       17.940        9.476      577.466      321.841       89.788        0.072        0.049       20.133        9.463        0.221      336.494        7.834      861.455
12/04/2014  22:03:00       60.898       39.424        6.861       52.788       34.590       29.054     2786.619     1196.436      844.114        0.507        0.241       72.545       19.688        0.074      336.219        7.373      861.466
12/04/2014  22:04:00       55.043       34.859        7.818       40.123       35.116       19.904     1609.893     1233.125      396.169        0.377        0.162       65.153       10.484        0.026      336.040        7.075      861.464
12/04/2014  22:05:00       64.408       54.054        2.406       36.561       29.910       24.597     1336.731      894.596      604.988        0.496        0.142       84.084       18.271        0.047      336.130        7.225      861.461
12/04/2014  22:06:00       26.208       71.486       -9.054       19.032       18.879       13.195      362.212      356.425      174.117        0.339        0.045       76.139        9.639        0.016      336.458        7.772      861.448
12/04/2014  22:07:00       29.472       39.529       -5.511        9.083       18.404        9.609       82.498      338.691       92.330        0.149        0.026       49.306        9.332        0.036      336.423        7.713      861.425
12/04/2014  22:08:00       47.748       23.983        3.090       25.638       18.529       15.314      657.318      343.336      234.531        0.205        0.062       53.433       14.098        0.070      336.174        7.299      861.411
12/04/2014  22:09:00       38.486       21.777        0.570       23.642       17.855       14.525      558.961      318.805      210.984        0.152        0.054       44.220       12.504        0.080      336.070        7.124      861.404
12/04/2014  22:10:00       19.658       23.987        4.836       15.441       12.956       11.442      238.437      167.854      130.909        0.076        0.027       31.013        6.094        0.039      336.065        7.117      861.411
12/04/2014  22:11:00       26.672       18.896        1.602       14.756       12.125        9.986      217.745      147.008       99.714        0.077        0.023       32.687        5.975        0.033      336.089        7.157      861.435
12/04/2014  22:12:00       29.096       -0.558        1.592       10.661       13.879        6.843      113.659      192.637       46.827        0.060        0.018       29.102        3.632        0.016      336.218        7.371      861.467
12/04/2014  22:13:00       -1.416      -47.946        0.428       16.357       17.413       12.656      267.565      303.201      160.171        0.152        0.037       47.967        9.891        0.043      336.343        7.581      861.495
12/04/2014  22:14:00       -6.036      -32.280        1.179       16.452       18.282        9.979      270.670      334.236       99.577        0.089        0.035       32.840       10.085        0.094      336.328        7.555      861.517
12/04/2014  22:15:00        8.665        8.582        9.379        7.354        6.083        8.163       54.083       37.004       66.628        0.020        0.008       12.195        4.869        0.159      336.147        7.252      861.527
12/04/2014  22:16:00       47.945       33.735       19.807       21.107       11.674       10.393      445.505      136.287      108.023        0.226        0.034       58.624        7.706        0.017      336.121        7.208      861.535
12/04/2014  22:17:00       59.032       35.738       25.084       25.714       19.183       19.911      661.205      367.991      396.455        0.341        0.071       69.007       16.173        0.055      336.112        7.195      861.539
12/04/2014  22:18:00       81.780       35.254       10.143       43.009       23.393       17.860     1849.769      547.226      318.967        0.537        0.136       89.055        9.782        0.012      336.125        7.216      861.550
12/04/2014  22:19:00       46.176       24.068       14.212       30.607       24.067       18.303      936.765      579.231      334.991        0.238        0.093       52.072       11.279        0.047      336.071        7.126      861.563
12/04/2014  22:20:00       82.493       45.592       25.014       28.154       23.491       24.814      792.642      551.805      615.719        0.573        0.098       94.254       15.914        0.029      336.106        7.185      861.569
12/04/2014  22:21:00      106.568       59.472       15.485       17.193       18.522       16.392      295.584      343.078      268.704        0.802        0.045      122.040       10.293        0.007      336.139        7.239      861.570
12/04/2014  22:22:00       91.226       51.945       26.353       22.449       16.652       18.657      503.962      277.300      348.096        0.642        0.056      104.978        9.884        0.009      336.199        7.341      861.579
12/04/2014  22:23:00       42.760       22.136       31.841       30.330       30.883       16.447      919.932      953.763      270.489        0.274        0.107       48.150       12.321        0.065      336.290        7.491      861.589
12/04/2014  22:24:00      -36.164      -21.056        0.443       17.350       14.903       13.206      301.017      222.085      174.407        0.122        0.035       41.847       10.246        0.060      336.166        7.284      861.604
12/04/2014  22:25:00      -68.102      -11.823       -8.567       22.343       18.039       10.190      499.221      325.400      103.827        0.289        0.046       69.121        9.279        0.018      335.939        6.905      861.618
12/04/2014  22:26:00     -122.742      -14.566      -12.838       15.127       15.131       10.067      228.821      228.941      101.346        0.800        0.028      123.603        4.734        0.001      335.986        6.985      861.624
12/04/2014  22:27:00      -93.448      -28.119       -5.737       17.464       16.122       12.251      304.976      259.935      150.096        0.514        0.036       97.587        6.170        0.004      336.131        7.226      861.632
12/04/2014  22:28:00      -60.488       -4.529       -5.202       13.655       12.337        9.716      186.472      152.205       94.397        0.207        0.022       60.657        8.644        0.020      336.187        7.320      861.637
12/04/2014  22:29:00      -89.447        4.274      -12.573       12.646        8.605        9.653      159.932       74.040       93.177        0.425        0.016       89.549        7.921        0.008      336.253        7.429      861.631
12/04/2014  22:30:00      -59.863        7.725      -10.899       17.070        9.166       10.357      291.378       84.025      107.274        0.212        0.024       60.360        9.636        0.025      336.142        7.246      861.638
12/04/2014  22:31:00        5.229       42.456       -5.738       26.429       20.652        9.708      698.500      426.488       94.246        0.154        0.061       42.777        4.216        0.010      336.441        7.745      861.638
12/04/2014  22:32:00       18.440       66.306      -10.607       16.859       24.938        9.865      284.236      621.911       97.327        0.293        0.050       68.822        9.017        0.017      336.411        7.694      861.632
12/04/2014  22:33:00       33.782      100.763      -16.957       19.640       31.903       18.372      385.739     1017.795      337.541        0.666        0.087      106.275       17.801        0.028      336.379        7.641      861.637
12/04/2014  22:34:00       23.803       31.983        2.078       25.317       21.942       21.091      640.964      481.440      444.811        0.158        0.078       39.869       16.593        0.173      336.182        7.312      861.629
12/04/2014  22:35:00       18.057       53.019       -7.667       18.445       20.175       13.218      340.219      407.048      174.708        0.206        0.046       56.010       11.297        0.041      336.305        7.517      861.620
12/04/2014  22:36:00      -12.214       37.057       -9.059       24.068       19.065        9.576      579.287      363.459       91.698        0.132        0.052       39.018        7.291        0.035      336.523        7.883      861.624
12/04/2014  22:37:00      -73.055       -0.301      -10.784       15.500       20.494       12.786      240.259      420.022      163.483        0.314        0.041       73.056       10.798        0.022      335.765        6.616      861.621
12/04/2014  22:38:00      -46.021       27.699      -16.589       25.031       18.206       18.929      626.551      331.445      358.289        0.224        0.066       53.714       16.458        0.094      335.916        6.868      861.610
12/04/2014  22:39:00        3.363       59.367       -4.375       20.901       14.517       10.462      436.839      210.731      109.457        0.216        0.038       59.462        6.339        0.011      336.497        7.839      861.599
12/04/2014  22:40:00      -58.228        2.680       -7.343       22.807       23.754        9.567      520.170      564.271       91.522        0.231        0.059       58.290        9.911        0.029      335.886        6.818      861.619
12/04/2014  22:41:00      -34.752       12.593      -16.309       22.269       22.203       14.066      495.915      492.973      197.847        0.141        0.059       36.963        9.764        0.070      335.857        6.772      861.633
12/04/2014  22:42:00       19.179       41.158        1.407       18.591       24.903       13.301      345.611      620.145      176.906        0.160        0.057       45.407       12.839        0.080      336.120        7.209      861.640
12/04/2014  22:43:00      -12.793       66.966       -7.232       22.876       40.870       10.400      523.295     1670.397      108.152        0.350        0.115       68.177       10.272        0.023      336.155        7.266      861.655
12/04/2014  22:44:00      -90.682      -24.626      -15.429       27.348       11.696       11.100      747.921      136.785      123.220        0.504        0.050       93.966        7.082        0.006      335.699        6.506      861.669
12/04/2014  22:45:00     -141.878      -32.028      -17.428       22.591       23.332       15.577      510.359      544.392      242.645        1.138        0.065      145.448        9.607        0.004      335.631        6.393      861.665
12/04/2014  22:46:00      -69.247      -36.842       -9.257       46.742       22.144       13.268     2184.800      490.349      176.036        0.454        0.143       78.438        9.976        0.016      335.566        6.286      861.657
12/04/2014  22:47:00      -12.899      -43.744       -5.721       15.327        8.065        8.827      234.911       65.040       77.914        0.125        0.019       45.606        7.464        0.027      335.743        6.580      861.647
12/04/2014  22:48:00      -34.442      -20.825      -16.493       20.649       11.297        8.812      426.366      127.614       77.655        0.126        0.032       40.248        6.060        0.023      335.909        6.856      861.640
12/04/2014  22:49:00      -90.826       -3.617      -10.124       17.784       16.821       11.000      316.261      282.934      121.006        0.454        0.036       90.897        5.458        0.004      335.738        6.573      861.638
12/04/2014  22:50:00      -84.515       -9.806       -5.158       18.480       16.601       11.851      341.504      275.590      140.447        0.401        0.038       85.082       10.033        0.014      335.680        6.474      861.634
12/04/2014  22:51:00      -77.189        3.349      -10.891       17.197        7.359        7.705      295.720       54.157       59.373        0.325        0.020       77.262        8.209        0.011      335.837        6.735      861.646
12/04/2014  22:52:00      -59.598      -17.823       -4.766        8.419       10.624        5.164       70.881      112.866       26.665        0.205        0.011       62.206        3.307        0.003      336.128        7.221      861.664
12/04/2014  22:53:00      -15.041      -23.760        0.796       20.887        6.651        7.339      436.257       44.235       53.868        0.066        0.027       28.121        8.984        0.102      336.079        7.140      861.677
12/04/2014  22:54:00      -23.750      -21.841       -6.325       13.199        9.490        5.778      174.221       90.060       33.385        0.069        0.015       32.266        4.100        0.016      336.004        7.015      861.686
12/04/2014  22:55:00       -9.965       -9.701       -2.135       16.391        4.521        4.512      268.660       20.440       20.362        0.025        0.015       13.907        6.713        0.233      335.909        6.857      861.683
12/04/2014  22:56:00       67.574       40.684       21.529       39.453       30.106       28.049     1556.554      906.393      786.766        0.497        0.162       78.876       20.775        0.069      335.807        6.687      861.680
12/04/2014  22:57:00       44.154       21.627       42.004       42.515       31.651       28.003     1807.483     1001.793      784.145        0.389        0.180       49.166       22.683        0.213      335.960        6.942      861.684
12/04/2014  22:58:00       38.485       34.451       38.336       46.154       26.717       23.365     2130.164      713.808      545.947        0.376        0.169       51.652       25.799        0.249      335.783        6.647      861.700
12/04/2014  22:59:00       38.366       28.350       24.975       29.106       21.178       26.867      847.152      448.499      721.856        0.246        0.101       47.704       15.696        0.108      335.707        6.521      861.716
12/04/2014  23:00:00       31.637       45.274        1.258       16.689       14.363       15.931      278.525      206.306      253.790        0.190        0.037       55.233        9.121        0.027      335.514        6.196      861.725
12/04/2014  23:01:00       45.237       46.406       13.645       15.511        9.926       11.506      240.603       98.530      132.394        0.243        0.024       64.807        5.004        0.006      335.623        6.381      861.733
12/04/2014  23:02:00       19.193       43.967        8.188        8.781        8.803        9.824       77.105       77.488       96.511        0.131        0.013       47.974        6.513        0.018      335.544        6.249      861.748
12/04/2014  23:03:00       22.083       19.696       10.613        8.941        9.082        7.554       79.939       82.491       57.064        0.060        0.011       29.591        4.026        0.019      335.629        6.390      861.755
12/04/2014  23:04:00       42.051       27.784       17.787       17.425       10.589        9.638      303.614      112.125       92.891        0.168        0.025       50.401        3.339        0.004      335.613        6.365      861.764
12/04/2014  23:05:00        5.012        7.704       12.570       10.600       12.011       10.009      112.366      144.276      100.183        0.030        0.018        9.191        8.002        0.758      335.527        6.219      861.778
12/04/2014  23:06:00        8.011        0.049       15.134       19.125       12.008        9.886      365.748      144.183       97.729        0.045        0.030        8.011        6.958        0.754      335.640        6.410      861.791
12/04/2014  23:07:00        4.693       -2.294       13.054       10.863       18.608       11.610      118.014      346.263      134.796        0.040        0.030        5.223       11.384        4.751      335.694        6.499      861.800
12/04/2014  23:08:00       -9.667      -12.282        5.031       10.498        7.384        8.109      110.212       54.521       65.753        0.025        0.012       15.630        5.258        0.113      335.753        6.597      861.820
12/04/2014  23:09:00      -26.849      -14.282       -2.540        8.749        7.485        4.688       76.550       56.033       21.976        0.054        0.008       30.412        3.220        0.011      335.680        6.476      861.849
12/04/2014  23:10:00      -35.337       -6.816       -2.298       11.075        5.815        5.053      122.666       33.817       25.535        0.074        0.009       35.988        2.681        0.006      335.596        6.337      861.881
12/04/2014  23:11:00      -66.235       -8.941       -9.004       13.096        8.380        7.168      171.516       70.224       51.384        0.242        0.015       66.836        5.833        0.008      335.478        6.138      861.901
12/04/2014  23:12:00      -84.259        9.403       -9.081       19.970       18.473       11.290      398.800      341.247      127.467        0.407        0.043       84.782        9.010        0.011      335.320        5.875      861.916
12/04/2014  23:13:00      -78.419       12.500       -9.536       13.431       12.304        8.871      180.396      151.387       78.702        0.340        0.021       79.409        4.703        0.004      335.323        5.880      861.930
12/04/2014  23:14:00      -78.855       19.378       -7.497       10.685        5.134        5.196      114.167       26.361       26.996        0.341        0.008       81.201        3.668        0.002      335.473        6.131      861.930
12/04/2014  23:15:00      -55.129       13.148       -3.135        8.822        7.814        5.139       77.825       61.066       26.413        0.169        0.008       56.675        3.481        0.004      335.522        6.211      861.927
12/04/2014  23:16:00      -41.638       12.579       -4.234        9.058       10.488        6.718       82.044      109.992       45.138        0.107        0.012       43.497        6.041        0.019      335.610        6.358      861.932
12/04/2014  23:17:00      -42.353       19.252      -10.894       11.588       14.997        6.834      134.287      224.905       46.698        0.134        0.020       46.523        6.512        0.020      335.872        6.797      861.936
12/04/2014  23:18:00       -5.001       18.264        0.570       19.260        8.495        7.078      370.955       72.169       50.092        0.043        0.025       18.936        4.826        0.065      335.884        6.814      861.928
12/04/2014  23:19:00        2.197       12.318        8.837       20.467       15.439       10.044      418.878      238.363      100.889        0.050        0.038       12.513        9.592        0.588      335.898        6.840      861.923
12/04/2014  23:20:00      -57.636      -23.097       -4.884       17.577       11.836        7.794      308.936      140.086       60.753        0.219        0.025       62.092        3.706        0.004      335.659        6.441      861.924
12/04/2014  23:21:00     -107.788       -5.746       -8.509       46.705       22.141       19.671     2181.335      490.233      386.950        0.739        0.153      107.941       19.393        0.032      335.244        5.748      861.935
12/04/2014  23:22:00     -110.304       11.493      -10.872       43.883       31.557       27.286     1925.686      995.861      744.500        0.804        0.183      110.901       25.438        0.053      335.006        5.354      861.942
12/04/2014  23:23:00      -99.693        4.907      -14.845       32.979       33.009       18.491     1087.636     1089.591      341.933        0.635        0.126       99.813       13.024        0.017      335.109        5.526      861.943
12/04/2014  23:24:00      -23.960        3.431       -5.230       21.892       17.561       16.093      479.255      308.376      258.978        0.083        0.052       24.204       15.760        0.424      335.180        5.642      861.947
12/04/2014  23:25:00      -47.455       -8.370      -12.745       12.271       12.426        9.347      150.565      154.400       87.370        0.144        0.020       48.188        7.149        0.022      335.473        6.130      861.956
12/04/2014  23:26:00      -45.946       -2.369      -10.646        6.052        3.220        4.548       36.622       10.368       20.682        0.115        0.003       46.007        3.419        0.006      335.744        6.583      861.956
12/04/2014  23:27:00      -40.902       -3.539       -5.655        5.189        4.643        3.067       26.921       21.557        9.407        0.089        0.003       41.055        2.690        0.004      335.789        6.659      861.957
12/04/2014  23:28:00      -51.216      -20.101       -9.260        9.171        6.568        5.749       84.105       43.142       33.053        0.164        0.008       55.020        4.306        0.006      335.577        6.302      861.958
12/04/2014  23:29:00      -82.014       -9.706      -15.279       17.542       14.600        7.746      307.713      213.148       59.998        0.382        0.029       82.586        7.352        0.008      335.341        5.909      861.955
12/04/2014  23:30:00      -66.607      -20.097       -0.208       31.923       34.431       20.214     1019.077     1185.525      408.624        0.373        0.131       69.573       17.722        0.065      335.086        5.488      861.963
12/04/2014  23:31:00      -69.822       15.204        1.738       52.617       30.125       26.972     2768.546      907.539      727.469        0.476        0.220       71.458       27.598        0.149      335.231        5.727      861.981
12/04/2014  23:32:00      -93.903        0.320       -4.577       33.814       28.192       15.715     1143.413      794.807      246.955        0.551        0.109       93.904       12.068        0.017      335.225        5.716      861.998
12/04/2014  23:33:00      -81.837      -25.526      -12.595       28.690       21.762       12.609      823.137      473.582      158.985        0.448        0.073       85.726        8.037        0.009      335.187        5.654      862.006
12/04/2014  23:34:00      -84.911      -39.938      -11.705       19.249       22.033       17.124      370.530      485.472      293.217        0.505        0.057       93.835        6.490        0.005      335.154        5.600      862.004
12/04/2014  23:35:00     -111.304      -30.846      -16.810       27.246       18.995       17.934      742.326      360.820      321.637        0.752        0.071      115.499       16.681        0.021      335.055        5.435      862.007
12/04/2014  23:36:00     -154.809      -62.669      -12.483       30.026       24.126       16.917      901.544      582.082      286.182        1.491        0.088      167.013       14.026        0.007      334.937        5.239      862.013
12/04/2014  23:37:00     -114.164       -0.282       -0.886       62.218       57.040       28.887     3871.072     3253.509      834.444        1.049        0.398      114.164       29.447        0.067      335.077        5.472      862.016
12/04/2014  23:38:00     -169.800       10.411      -11.401       46.396       36.776       23.349     2152.571     1352.474      545.193        1.656        0.203      170.119       24.406        0.021      335.139        5.574      862.020
12/04/2014  23:39:00     -138.274        9.652      -11.088       42.145       39.003       29.844     1776.185     1521.252      890.649        1.176        0.209      138.611       25.055        0.033      335.204        5.683      862.020
12/04/2014  23:40:00      -97.442      -16.234       -8.701       35.187       29.971       17.617     1238.124      898.244      310.367        0.614        0.122       98.785       15.114        0.023      335.041        5.414      862.017
12/04/2014  23:41:00     -100.384      -27.675       -3.353       36.022       28.915       24.043     1297.618      836.053      578.081        0.678        0.136      104.129       19.804        0.036      335.040        5.411      862.021
12/04/2014  23:42:00     -118.680      -43.765      -13.075       31.257       27.074       16.750      977.002      732.977      280.565        0.908        0.100      126.493       16.007        0.016      335.021        5.380      862.042
12/04/2014  23:43:00     -134.280      -36.180       -8.371       24.965       40.723       18.192      623.268     1658.328      330.955        1.101        0.131      139.069       13.238        0.009      334.989        5.326      862.050
12/04/2014  23:44:00     -121.693      -58.990        1.699       37.723       41.206       19.121     1423.007     1697.924      365.631        1.089        0.174      135.237       14.968        0.012      334.969        5.293      862.054
12/04/2014  23:45:00      -99.474      -23.247       -7.642       33.693       20.693       14.658     1135.199      428.185      214.864        0.614        0.089      102.154       15.392        0.023      335.031        5.398      862.055
12/04/2014  23:46:00     -100.001      -30.641      -12.083       22.575       18.765       11.676      509.609      352.115      136.336        0.604        0.050      104.590       11.987        0.013      335.017        5.373      862.054
12/04/2014  23:47:00     -102.445      -20.942       -7.829       10.493       11.800        9.093      110.110      139.234       82.684        0.566        0.017      104.564        6.235        0.004      335.000        5.344      862.055
12/04/2014  23:48:00      -74.628      -20.784       -3.677       12.453       10.938        6.096      155.075      119.641       37.166        0.316        0.016       77.468        4.677        0.004      335.063        5.448      862.041
12/04/2014  23:49:00      -86.141      -34.290      -15.011       10.603       14.602        7.761      112.431      213.222       60.230        0.460        0.019       92.715        5.712        0.004      335.089        5.492      862.039
12/04/2014  23:50:00      -41.188      -32.639        2.131       24.037       28.953       20.876      577.790      838.270      435.790        0.231        0.093       52.552       19.148        0.133      334.975        5.302      862.039
12/04/2014  23:51:00      -44.748      -36.794        5.387       35.964       20.866       20.660     1293.423      435.396      426.819        0.277        0.108       57.933       23.413        0.163      334.867        5.123      862.051
12/04/2014  23:52:00      -51.416      -42.942        5.096       37.918       24.177       19.311     1437.774      584.504      372.899        0.345        0.120       66.990       22.765        0.115      334.921        5.212      862.069
12/04/2014  23:53:00      -95.785      -28.564       -7.090       26.488       26.989       19.525      701.638      728.415      381.221        0.593        0.091       99.953       16.043        0.026      334.940        5.245      862.082
12/04/2014  23:54:00      -96.039      -28.881      -12.702       26.413       20.539       14.011      697.670      421.853      196.303        0.577        0.066      100.288        9.404        0.009      334.923        5.217      862.087
12/04/2014  23:55:00      -42.720      -21.620        3.675       21.393       19.127       19.194      457.660      365.833      368.421        0.175        0.060       47.879       14.347        0.090      334.829        5.061      862.099
12/04/2014  23:56:00      -11.951      -14.762        6.238       21.213       16.784       13.284      450.006      281.698      176.468        0.065        0.045       18.994        8.260        0.189      334.934        5.234      862.112
12/04/2014  23:57:00      -76.948      -18.619       -5.045       17.624       17.832        9.891      310.621      317.992       97.829        0.351        0.036       79.169        7.433        0.009      334.921        5.213      862.111
12/04/2014  23:58:00      -96.361       -2.813      -11.070        9.370        8.941        6.883       87.805       79.940       47.375        0.482        0.011       96.402        3.763        0.002      335.073        5.466      862.109
12/04/2014  23:59:00      -85.483       -2.456       -7.879       11.203       14.484        8.874      125.500      209.795       78.744        0.389        0.021       85.518        5.301        0.004      334.976        5.303      862.112
